[[{"header":{"parameterUnit":"m.s-1","parameterCategory":1,"la1":30.6,"la2":29.2853,"lo1":-89.7004,"lo2":-87.6739,"dy":0.0162,"dx":0.0183,"nx":112,"ny":82,"refTime":"2023-04-05T06:00:00:Z","depth":0,"parameterNumber":2,"parameterNumberName":"U-component_of_WINDS"},"data":[0.0,0.0,0.0,0.0,0.0,0.0,0.0,0.0,0.0,0.0,0.0,0.0,0.0,0.0,0.0,0.0,0.0,0.0,0.0,0.0,0.0,0.0,0.0,0.0,0.0,0.0,0.0,0.0,0.0,0.0,0.0,0.0,0.0,0.0,0.0,0.0,0.0,0.0,0.0,0.0,0.0,0.0,0.0,0.0,0.0,0.0,0.0,0.0,0.0,0.0,0.0,0.0,0.0,0.0,0.0,0.0,0.0,0.0,0.0,0.0,0.0,0.0,0.0,0.0,0.0,0.0,0.0,0.0,0.0,0.0,0.0,0.0,0.0,0.0,0.0,0.0,0.0,0.0,0.0,0.0,0.0,0.0,0.0,0.0,0.0,0.0,0.0,0.0,0.0,0.0,4.4662,4.3754,4.3423,4.3329,4.3329,4.3329,4.3329,4.3329,0.0,0.0,0.0,0.0,0.0,0.0,0.0,0.0,0.0,0.0,0.0,0.0,0.0,0.0,0.0,0.0,0.0,0.0,0.0,0.0,0.0,0.0,0.0,0.0,0.0,0.0,0.0,0.0,0.0,0.0,0.0,0.0,0.0,0.0,0.0,0.0,0.0,0.0,0.0,0.0,0.0,0.0,0.0,0.0,0.0,0.0,0.0,0.0,0.0,0.0,0.0,0.0,0.0,0.0,0.0,0.0,0.0,0.0,0.0,0.0,0.0,0.0,0.0,0.0,0.0,0.0,0.0,0.0,0.0,0.0,0.0,0.0,0.0,0.0,0.0,0.0,0.0,0.0,0.0,0.0,0.0,0.0,0.0,0.0,0.0,0.0,0.0,0.0,0.0,0.0,0.0,0.0,0.0,0.0,0.0,0.0,0.0,0.0,0.0,0.0,0.0,0.0,0.0,0.0,4.5327,4.3551,4.3329,4.3329,4.3329,4.3329,4.3329,4.3329,0.0,0.0,0.0,0.0,0.0,0.0,0.0,0.0,0.0,0.0,0.0,0.0,0.0,0.0,0.0,0.0,0.0,0.0,0.0,0.0,0.0,0.0,0.0,0.0,0.0,0.0,0.0,0.0,0.0,0.0,0.0,0.0,0.0,0.0,0.0,0.0,0.0,0.0,0.0,0.0,0.0,0.0,0.0,0.0,0.0,0.0,0.0,0.0,0.0,0.0,0.0,0.0,0.0,0.0,0.0,0.0,0.0,0.0,0.0,0.0,0.0,0.0,0.0,0.0,0.0,0.0,0.0,0.0,0.0,0.0,0.0,0.0,0.0,0.0,0.0,0.0,0.0,0.0,0.0,0.0,0.0,0.0,0.0,0.0,0.0,0.0,0.0,0.0,0.0,0.0,0.0,0.0,0.0,0.0,0.0,0.0,0.0,0.0,0.0,0.0,0.0,0.0,0.0,4.5706,4.4915,4.3472,4.3329,4.3329,4.3329,4.3329,4.3329,4.3329,4.3329,0.0,0.0,0.0,0.0,0.0,0.0,0.0,0.0,0.0,0.0,0.0,0.0,0.0,0.0,0.0,0.0,0.0,0.0,0.0,0.0,0.0,0.0,0.0,0.0,0.0,0.0,0.0,0.0,0.0,0.0,0.0,0.0,0.0,0.0,0.0,0.0,0.0,0.0,0.0,0.0,0.0,0.0,0.0,0.0,0.0,0.0,0.0,0.0,0.0,0.0,0.0,0.0,0.0,0.0,0.0,0.0,0.0,0.0,0.0,0.0,0.0,0.0,0.0,0.0,0.0,0.0,0.0,0.0,0.0,0.0,0.0,0.0,0.0,0.0,0.0,0.0,0.0,0.0,0.0,0.0,0.0,0.0,0.0,0.0,0.0,0.0,0.0,0.0,0.0,0.0,0.0,0.0,0.0,0.0,0.0,0.0,0.0,0.0,0.0,0.0,0.0,0.0,4.4721,4.4143,4.3409,4.3329,4.3329,4.3329,4.3329,4.3329,4.3329,4.3329,0.0,0.0,0.0,0.0,0.0,0.0,0.0,0.0,0.0,0.0,0.0,0.0,0.0,0.0,0.0,0.0,0.0,0.0,0.0,0.0,0.0,0.0,0.0,0.0,0.0,0.0,0.0,0.0,0.0,0.0,0.0,0.0,0.0,0.0,0.0,0.0,0.0,0.0,0.0,0.0,0.0,0.0,0.0,0.0,0.0,0.0,0.0,0.0,0.0,0.0,0.0,0.0,0.0,0.0,0.0,0.0,0.0,0.0,0.0,0.0,0.0,0.0,0.0,0.0,0.0,0.0,0.0,0.0,0.0,0.0,0.0,0.0,0.0,0.0,0.0,0.0,0.0,0.0,0.0,0.0,0.0,0.0,0.0,0.0,0.0,0.0,0.0,0.0,0.0,0.0,0.0,0.0,0.0,0.0,0.0,0.0,0.0,0.0,0.0,0.0,0.0,0.0,4.454,4.3409,4.3329,4.3329,4.3329,4.3329,4.3329,4.3329,4.3329,4.3329,0.0,0.0,0.0,0.0,0.0,0.0,0.0,0.0,0.0,0.0,0.0,0.0,0.0,0.0,0.0,0.0,0.0,0.0,0.0,0.0,0.0,0.0,0.0,0.0,0.0,0.0,0.0,0.0,0.0,0.0,0.0,0.0,0.0,0.0,0.0,0.0,0.0,0.0,0.0,0.0,0.0,0.0,0.0,0.0,0.0,0.0,0.0,0.0,0.0,0.0,0.0,0.0,0.0,0.0,0.0,0.0,0.0,0.0,0.0,0.0,0.0,0.0,0.0,0.0,0.0,0.0,0.0,0.0,0.0,0.0,0.0,0.0,0.0,0.0,0.0,0.0,0.0,0.0,0.0,0.0,0.0,0.0,0.0,0.0,0.0,0.0,0.0,0.0,0.0,0.0,0.0,0.0,0.0,0.0,0.0,0.0,0.0,0.0,0.0,0.0,0.0,0.0,4.4796,4.4004,0.0,4.3329,4.3329,4.3329,4.3329,4.3329,4.3329,0.0,0.0,0.0,0.0,0.0,0.0,0.0,0.0,0.0,0.0,0.0,0.0,0.0,0.0,0.0,0.0,0.0,0.0,0.0,0.0,0.0,0.0,0.0,0.0,0.0,0.0,0.0,0.0,0.0,0.0,0.0,0.0,0.0,0.0,0.0,0.0,0.0,0.0,0.0,0.0,0.0,0.0,0.0,0.0,0.0,0.0,0.0,0.0,0.0,0.0,0.0,0.0,0.0,0.0,0.0,0.0,0.0,0.0,0.0,0.0,0.0,0.0,0.0,0.0,0.0,0.0,0.0,0.0,0.0,0.0,0.0,0.0,0.0,0.0,0.0,0.0,0.0,0.0,0.0,0.0,0.0,0.0,0.0,0.0,0.0,0.0,0.0,0.0,0.0,0.0,0.0,0.0,0.0,0.0,0.0,0.0,0.0,0.0,0.0,0.0,0.0,0.0,4.5825,4.531,4.4706,0.0,4.3958,4.3958,4.3958,4.3763,4.3643,4.3643,0.0,0.0,0.0,0.0,0.0,0.0,0.0,0.0,0.0,0.0,0.0,0.0,0.0,0.0,0.0,0.0,0.0,0.0,0.0,0.0,0.0,0.0,0.0,0.0,0.0,0.0,0.0,0.0,0.0,0.0,0.0,0.0,0.0,0.0,0.0,0.0,0.0,0.0,0.0,0.0,0.0,0.0,0.0,0.0,0.0,0.0,0.0,0.0,0.0,0.0,0.0,0.0,0.0,0.0,0.0,0.0,0.0,0.0,0.0,0.0,0.0,0.0,0.0,0.0,0.0,0.0,0.0,0.0,0.0,0.0,0.0,0.0,0.0,0.0,0.0,0.0,0.0,0.0,0.0,0.0,0.0,0.0,0.0,0.0,0.0,0.0,0.0,0.0,0.0,0.0,0.0,0.0,0.0,0.0,0.0,0.0,0.0,0.0,0.0,0.0,0.0,0.0,4.7076,4.6062,4.5289,4.5289,4.5289,4.5289,4.5289,4.4691,4.4332,0.0,0.0,0.0,0.0,0.0,0.0,0.0,0.0,0.0,0.0,0.0,0.0,0.0,0.0,0.0,0.0,0.0,0.0,0.0,0.0,0.0,0.0,0.0,0.0,0.0,0.0,0.0,0.0,0.0,0.0,0.0,0.0,0.0,0.0,0.0,0.0,0.0,0.0,0.0,0.0,0.0,0.0,0.0,0.0,0.0,0.0,0.0,0.0,0.0,0.0,0.0,0.0,0.0,0.0,0.0,0.0,0.0,0.0,0.0,0.0,0.0,0.0,0.0,0.0,0.0,0.0,0.0,0.0,0.0,0.0,0.0,0.0,0.0,0.0,0.0,0.0,0.0,0.0,0.0,0.0,0.0,0.0,0.0,0.0,0.0,0.0,0.0,0.0,0.0,0.0,0.0,0.0,0.0,0.0,0.0,0.0,0.0,0.0,0.0,0.0,0.0,0.0,0.0,4.6077,4.5604,4.5289,4.5289,4.5289,4.5289,4.5289,4.5125,4.5005,4.5005,0.0,0.0,0.0,0.0,0.0,0.0,0.0,0.0,0.0,0.0,0.0,0.0,0.0,0.0,0.0,0.0,0.0,0.0,0.0,0.0,0.0,0.0,0.0,0.0,0.0,0.0,0.0,0.0,0.0,0.0,0.0,0.0,0.0,0.0,0.0,0.0,0.0,0.0,0.0,0.0,0.0,0.0,0.0,0.0,0.0,0.0,0.0,0.0,0.0,0.0,0.0,0.0,0.0,0.0,0.0,0.0,0.0,0.0,0.0,0.0,0.0,0.0,0.0,0.0,0.0,0.0,0.0,0.0,0.0,0.0,0.0,0.0,0.0,0.0,0.0,0.0,0.0,0.0,0.0,0.0,0.0,0.0,0.0,0.0,0.0,0.0,0.0,0.0,0.0,0.0,0.0,0.0,0.0,0.0,0.0,0.0,0.0,0.0,0.0,0.0,0.0,0.0,4.6418,4.6251,4.6097,4.6097,4.6097,4.6097,4.6097,4.5858,4.5708,4.5708,0.0,0.0,0.0,0.0,0.0,0.0,0.0,0.0,0.0,0.0,0.0,0.0,0.0,0.0,0.0,0.0,0.0,0.0,0.0,0.0,0.0,0.0,0.0,0.0,0.0,0.0,0.0,0.0,0.0,0.0,0.0,0.0,0.0,0.0,0.0,0.0,0.0,0.0,0.0,0.0,0.0,0.0,0.0,0.0,0.0,0.0,0.0,0.0,0.0,0.0,0.0,0.0,0.0,0.0,0.0,0.0,0.0,0.0,0.0,0.0,0.0,0.0,0.0,0.0,0.0,0.0,0.0,0.0,0.0,0.0,0.0,0.0,0.0,0.0,0.0,0.0,0.0,0.0,0.0,0.0,0.0,0.0,0.0,0.0,0.0,0.0,0.0,0.0,0.0,0.0,0.0,0.0,0.0,0.0,0.0,0.0,0.0,0.0,0.0,0.0,0.0,0.0,4.7553,4.7381,4.7309,4.7309,4.7309,4.7309,4.7309,4.6756,4.6411,4.6411,0.0,0.0,0.0,0.0,0.0,0.0,0.0,0.0,0.0,0.0,0.0,0.0,0.0,0.0,0.0,0.0,0.0,0.0,0.0,0.0,0.0,0.0,0.0,0.0,0.0,0.0,0.0,0.0,0.0,0.0,0.0,0.0,0.0,0.0,0.0,0.0,0.0,0.0,0.0,0.0,0.0,0.0,0.0,0.0,0.0,0.0,0.0,0.0,0.0,0.0,0.0,0.0,0.0,0.0,0.0,0.0,0.0,0.0,0.0,0.0,3.3594,3.2595,0.0,0.0,0.0,0.0,0.0,0.0,0.0,0.0,0.0,0.0,0.0,0.0,0.0,0.0,0.0,0.0,0.0,0.0,0.0,0.0,0.0,0.0,0.0,0.0,0.0,0.0,0.0,0.0,0.0,0.0,0.0,0.0,0.0,0.0,0.0,0.0,0.0,0.0,0.0,0.0,4.7381,4.7309,4.7309,4.7309,4.7309,4.7309,4.7309,4.7174,4.71,4.71,4.6471,0.0,0.0,0.0,0.0,0.0,0.0,0.0,0.0,0.0,0.0,0.0,0.0,0.0,0.0,0.0,0.0,0.0,0.0,0.0,0.0,0.0,0.0,0.0,0.0,0.0,0.0,0.0,0.0,0.0,0.0,0.0,0.0,0.0,0.0,0.0,0.0,0.0,0.0,0.0,0.0,0.0,0.0,0.0,0.0,0.0,0.0,0.0,0.0,0.0,0.0,0.0,0.0,0.0,0.0,0.0,0.0,0.0,0.0,0.0,3.6491,3.4677,0.0,0.0,0.0,0.0,0.0,0.0,0.0,0.0,0.0,0.0,0.0,0.0,0.0,0.0,0.0,0.0,0.0,0.0,0.0,0.0,0.0,0.0,0.0,0.0,0.0,0.0,0.0,0.0,0.0,0.0,0.0,0.0,0.0,0.0,0.0,0.0,0.0,0.0,0.0,0.0,4.7309,4.7309,4.7309,4.7309,4.7309,4.7309,4.7309,4.7309,4.7309,4.7309,4.698,0.0,0.0,0.0,0.0,0.0,0.0,0.0,0.0,0.0,0.0,0.0,0.0,0.0,0.0,0.0,0.0,0.0,0.0,0.0,0.0,0.0,0.0,0.0,0.0,0.0,0.0,0.0,0.0,0.0,0.0,0.0,0.0,0.0,0.0,0.0,0.0,0.0,0.0,0.0,0.0,0.0,0.0,0.0,0.0,0.0,0.0,0.0,0.0,0.0,0.0,0.0,0.0,0.0,4.0391,4.0782,4.2191,4.2712,4.3,4.3022,4.1189,3.8704,3.5939,3.601,0.0,0.0,0.0,0.0,0.0,0.0,0.0,0.0,0.0,0.0,0.0,0.0,0.0,0.0,0.0,0.0,0.0,0.0,0.0,0.0,0.0,0.0,4.0504,4.8067,4.8708,4.7934,4.9551,0.0,0.0,0.0,0.0,0.0,0.0,0.0,0.0,0.0,0.0,0.0,4.7294,4.7309,4.7309,4.7309,4.7309,4.7309,4.7309,4.7309,4.7309,4.7309,4.7309,4.7309,0.0,0.0,0.0,0.0,0.0,0.0,0.0,0.0,0.0,0.0,0.0,0.0,0.0,0.0,0.0,0.0,0.0,0.0,0.0,0.0,0.0,0.0,0.0,0.0,0.0,0.0,0.0,0.0,0.0,0.0,0.0,0.0,3.7801,3.5183,0.0,0.0,0.0,0.0,0.0,0.0,0.0,0.0,0.0,0.0,0.0,0.0,0.0,3.9491,4.0038,3.9651,3.9759,4.0408,4.2729,4.4338,4.5229,4.8426,4.9898,4.9881,4.9576,0.0,4.0305,3.7126,0.0,0.0,0.0,0.0,0.0,0.0,0.0,0.0,0.0,0.0,0.0,0.0,0.0,0.0,0.0,0.0,0.0,0.0,0.0,0.0,0.0,0.0,3.8189,4.5904,4.7538,4.7381,4.7709,4.7864,4.8049,4.8133,4.8049,4.7964,0.0,0.0,0.0,0.0,0.0,0.0,4.7309,4.7309,4.7309,4.7309,4.7309,4.7309,4.7309,4.7309,4.7309,4.7309,4.7309,4.7309,4.7309,4.7309,0.0,0.0,0.0,0.0,0.0,0.0,0.0,0.0,0.0,0.0,0.0,0.0,0.0,0.0,0.0,0.0,0.0,0.0,0.0,0.0,0.0,0.0,0.0,0.0,0.0,0.0,0.0,0.0,0.0,3.6155,3.6717,3.3417,3.4658,3.4827,0.0,0.0,0.0,0.0,0.0,0.0,0.0,0.0,0.0,3.6791,4.0764,4.2906,4.2804,4.4941,4.614,4.6404,4.7682,4.8495,4.8773,5.0376,5.1123,5.1156,5.1156,4.9521,4.6598,4.3315,4.0873,3.9128,0.0,0.0,0.0,0.0,3.803,3.7647,3.7301,3.7168,3.7152,3.7002,0.0,0.0,0.0,0.0,0.0,0.0,0.0,3.2143,3.635,3.8708,4.124,4.6107,4.7309,4.7309,4.7309,4.7467,4.7639,4.7639,4.7639,4.7553,4.7467,4.7553,0.0,0.0,0.0,4.7381,4.7294,4.7309,4.7309,4.7309,4.7309,4.7309,4.7309,4.7309,4.7309,4.7309,4.7309,4.7309,4.7309,4.7309,4.7309,0.0,0.0,0.0,0.0,0.0,0.0,0.0,0.0,0.0,0.0,0.0,0.0,0.0,0.0,0.0,0.0,0.0,0.0,0.0,0.0,0.0,0.0,0.0,0.0,0.0,0.0,0.0,0.0,3.6063,3.6884,3.2738,3.4592,3.5421,0.0,0.0,0.0,0.0,0.0,0.0,3.5878,3.9343,4.0963,4.0205,4.4306,4.6246,4.5694,4.9147,5.0876,5.0844,5.1061,5.1161,5.113,5.113,5.1067,5.107,5.107,5.0995,5.0569,4.7613,4.4724,4.2141,4.2264,4.2148,4.1878,4.2304,4.2317,4.1951,4.131,4.1071,4.099,4.0337,4.01,4.0039,3.9934,0.0,0.0,0.0,0.0,3.5331,3.7928,4.0689,4.3578,4.6556,4.7309,4.7309,4.7309,4.7309,4.7309,4.7309,4.7309,4.7309,4.7309,4.7309,0.0,4.7309,4.7309,4.7309,4.7309,4.7309,4.7309,4.7309,4.7309,4.7309,4.7309,4.7309,4.7309,4.7309,4.7309,4.7309,4.7309,4.7309,4.7309,4.7309,0.0,0.0,0.0,0.0,0.0,0.0,0.0,0.0,0.0,0.0,0.0,0.0,0.0,0.0,0.0,0.0,0.0,0.0,0.0,0.0,0.0,0.0,0.0,0.0,0.0,0.0,0.0,0.0,0.0,3.578,3.7336,0.0,0.0,0.0,0.0,3.9651,4.0029,3.9742,3.8851,4.2345,4.3992,4.3129,4.6694,4.8657,4.8609,4.9542,5.0056,4.9977,5.0714,5.1109,5.108,5.108,5.1112,5.107,5.107,5.0691,4.9756,4.6818,4.5478,4.5056,4.3141,4.1898,4.1239,4.2121,4.1939,4.1271,4.0507,4.0252,4.0252,4.0204,4.016,4.0039,3.9934,3.9834,0.0,0.0,3.7483,3.8213,4.08,4.149,4.2494,4.6367,4.7309,4.7309,4.7309,4.7309,4.7309,4.7309,4.7309,4.7309,4.7309,0.0,4.7309,4.7309,4.7309,4.7309,4.7309,4.7309,4.7309,4.7309,4.7309,4.7309,4.7309,4.7309,4.7309,4.7309,4.7309,4.7309,4.7309,4.7309,4.7309,4.7309,4.7279,0.0,0.0,0.0,0.0,0.0,0.0,0.0,0.0,0.0,0.0,0.0,0.0,0.0,0.0,0.0,0.0,0.0,0.0,0.0,0.0,0.0,0.0,0.0,0.0,0.0,0.0,0.0,0.0,3.9021,4.1117,0.0,3.926,3.8162,3.7936,3.879,4.0976,4.1896,4.1114,4.5544,4.7737,4.6854,4.9071,5.003,4.9523,5.0824,5.1487,5.1448,5.1751,5.1579,5.107,5.0538,5.001,4.9454,4.9454,4.9309,4.8988,4.7965,4.7527,4.7449,4.6674,4.6197,4.5934,4.626,4.6197,4.5977,4.5696,4.5637,4.5637,4.5637,4.5563,4.5079,4.2481,4.1737,4.1142,3.7886,3.8708,4.072,4.1503,4.3427,4.5544,4.6965,4.7309,4.7309,4.7309,4.7309,4.7309,4.7309,4.7309,4.7309,4.7309,4.7309,4.7309,4.7309,4.7309,4.7309,4.7309,4.7309,4.7309,4.7309,4.7309,4.7309,4.7309,4.7309,4.7309,4.7309,4.7309,4.7309,4.7309,4.7309,4.7309,4.7309,4.7309,4.7309,0.0,0.0,0.0,0.0,0.0,0.0,0.0,0.0,0.0,0.0,0.0,0.0,0.0,0.0,0.0,0.0,0.0,0.0,0.0,0.0,0.0,0.0,0.0,0.0,0.0,3.9692,4.1562,4.0717,4.2737,4.3508,4.1747,4.0912,4.0704,4.1238,4.3719,4.4935,4.4476,4.7675,4.9345,4.8775,4.9731,5.0027,4.9435,5.0843,5.1311,5.1086,5.1311,5.1086,5.0229,4.9694,4.9163,4.862,4.862,4.862,4.862,4.862,4.862,4.862,4.8918,4.9,4.9,4.9,4.9,4.9015,4.8687,4.862,4.862,4.862,4.862,4.8112,4.548,4.4648,4.4033,4.1269,4.2175,4.3925,4.3769,4.5485,4.7309,4.7309,4.7309,4.7309,4.7309,4.7309,4.7309,4.7309,4.7309,4.7309,4.7309,4.7309,4.7309,4.7309,4.7309,4.7309,4.7309,4.7309,4.7309,4.7309,4.7309,4.7309,4.7309,4.7309,4.7309,4.7309,4.7309,4.7309,4.7309,4.7309,4.7309,4.7309,4.7207,4.6931,4.6535,0.0,0.0,0.0,0.0,0.0,0.0,0.0,0.0,0.0,0.0,0.0,0.0,0.0,0.0,0.0,0.0,0.0,0.0,0.0,0.0,0.0,0.0,0.0,3.7346,4.1682,4.3795,4.1098,4.2392,4.3558,4.3763,4.3531,4.4622,4.7583,4.8417,4.882,4.8748,4.8751,4.8764,4.8686,4.8643,4.862,4.862,4.947,4.9486,4.8604,4.9486,4.9486,4.862,4.8635,4.8635,4.865,4.8666,4.8681,4.8681,4.8681,4.8681,4.8764,4.9582,4.9884,4.9884,4.9884,4.9884,4.971,4.8852,4.862,4.862,4.8604,4.8604,4.8604,4.8604,4.8453,4.8286,4.8286,4.7964,4.7624,4.7624,4.7467,4.7309,4.7309,4.7309,4.7309,4.7309,4.7309,4.7309,4.7309,4.7309,4.7309,4.7309,4.7309,4.7309,4.7309,4.7309,0.0,4.7309,4.7309,4.7309,4.7309,4.7309,4.7309,4.7309,4.7309,4.7309,4.7309,4.7309,4.7309,4.7309,4.7309,4.7309,4.7207,4.6931,4.6255,4.4918,0.0,0.0,0.0,0.0,0.0,0.0,0.0,0.0,0.0,0.0,0.0,0.0,0.0,0.0,0.0,0.0,0.0,0.0,0.0,0.0,0.0,3.9631,4.2397,4.267,4.3858,4.5156,4.6496,4.7623,4.8001,4.7519,4.7886,4.7988,4.7776,4.8342,4.8509,4.7918,4.897,4.9268,4.8639,4.9215,4.9244,4.862,4.947,4.9805,4.9566,4.9805,4.9789,4.9582,4.9476,4.9389,4.942,4.9912,5.0128,5.0128,5.0128,5.0128,5.002,4.9238,4.8934,4.8934,4.8934,4.8934,4.8934,4.8537,4.837,4.837,4.8202,4.8118,4.8118,4.8118,4.8133,4.8049,4.8049,4.788,4.7624,4.7624,4.7467,4.7309,4.7309,4.7309,4.7309,4.7309,4.7309,4.7309,4.7309,4.7309,4.7309,4.7309,4.7309,4.7309,4.7309,4.7309,4.7309,4.7309,4.7309,4.7309,4.7309,4.7309,4.7309,4.7309,4.7309,4.7309,4.7309,4.7309,4.7207,4.7019,4.7019,4.655,4.5689,4.5584,4.5024,0.0,0.0,0.0,0.0,0.0,0.0,0.0,0.0,0.0,0.0,0.0,0.0,0.0,0.0,0.0,0.0,0.0,0.0,0.0,0.0,0.0,0.0,4.2125,4.5716,4.6843,4.6929,4.753,4.9255,5.0118,5.0138,4.9,4.9517,4.9281,4.7746,4.8246,4.8475,4.8019,4.8879,4.9081,4.862,4.9081,4.9081,4.8604,4.9081,4.9481,4.9778,4.9778,4.9934,5.0215,5.0151,5.0112,5.0128,5.0528,5.0697,5.0697,5.0697,5.0697,5.062,0.0,0.0,0.0,0.0,4.9382,4.9481,4.9227,4.9127,4.9127,4.8956,4.8885,4.8799,4.8799,4.8713,4.8626,4.8626,4.8468,4.8293,4.8293,4.8205,4.8132,4.8132,4.7923,4.7713,4.7713,4.7504,4.7309,4.7309,4.7309,0.0,4.7309,4.7309,4.7309,4.7309,4.7309,4.7309,4.7309,4.7309,4.7309,4.7309,4.7309,4.7309,4.7309,4.7309,0.0,0.0,0.0,4.7019,4.6756,4.6358,0.0,0.0,0.0,4.3693,4.2558,4.2558,0.0,0.0,4.175,4.1904,0.0,0.0,0.0,0.0,0.0,0.0,0.0,0.0,0.0,0.0,0.0,0.0,0.0,0.0,0.0,0.0,4.4023,4.7459,4.9893,5.0287,5.0304,5.0219,5.0815,5.0627,4.9174,4.9531,4.9273,4.7793,4.8266,4.862,4.862,4.862,0.0,0.0,0.0,4.865,4.8727,4.8727,4.9097,4.9805,4.9805,5.0112,5.0697,5.0774,5.0805,5.0805,5.0882,5.0928,5.0928,5.0928,5.0928,5.0913,5.0759,5.0697,5.0697,5.0391,5.0493,5.0682,5.0406,0.0,0.0,5.0216,5.0041,4.9864,4.9864,4.9687,4.9613,4.9613,4.9434,4.9269,4.9269,4.9269,4.9269,4.9269,4.882,4.8401,4.8401,4.7938,4.7534,4.7534,4.7534,4.7534,4.7534,4.7399,4.7309,4.7309,4.7309,4.7309,4.7309,4.7309,4.7309,4.7309,4.7309,0.0,4.7207,4.7207,4.7121,4.6844,4.6741,4.6565,4.6403,4.5326,4.4656,4.4298,4.3327,4.2266,4.1032,4.1032,4.0554,3.9788,4.1789,4.2266,0.0,0.0,0.0,0.0,0.0,0.0,0.0,0.0,0.0,0.0,0.0,0.0,0.0,0.0,0.0,4.1334,4.5959,4.9707,5.0828,5.1505,5.1657,5.1065,5.1078,5.0777,4.9831,4.9837,4.9505,4.8502,4.8543,4.862,4.862,4.862,4.862,4.862,4.862,4.8897,4.9466,4.9481,4.982,5.0497,5.0497,0.0,5.0713,5.1267,5.1513,5.1544,5.2082,5.2313,5.2313,5.2313,5.2313,5.2221,5.1113,5.0697,5.0697,5.0595,5.0682,5.0611,5.0174,5.0087,4.9983,4.9628,4.9434,4.9449,4.9449,4.9344,0.0,4.9359,4.9359,4.9269,4.9269,4.9269,4.9269,4.9269,4.9164,4.9075,4.9075,4.897,4.888,4.888,4.888,4.888,4.888,4.8012,4.7309,4.7309,4.7309,4.7309,4.7309,4.7309,4.7309,4.7309,4.7121,4.7019,4.7019,4.6858,4.6683,4.6683,4.5718,4.5067,4.5067,4.3923,4.2765,4.19,4.1703,4.1032,3.9981,3.9981,3.989,3.9697,4.0173,4.0275,0.0,0.0,0.0,0.0,0.0,0.0,0.0,0.0,0.0,0.0,0.0,3.6379,0.0,0.0,4.3666,4.4454,4.8438,5.1511,5.1708,5.2051,5.2033,5.1263,5.1489,5.1195,5.0009,4.9882,4.9566,4.8702,4.862,4.862,4.862,4.862,4.8773,4.9143,4.9143,4.9481,5.0189,5.0189,5.0528,5.1205,5.1205,5.1374,5.1713,5.2052,5.2206,5.2236,5.256,5.2713,5.2713,5.2713,5.2713,5.2637,5.1766,5.1506,5.1506,5.1239,5.1254,5.1254,5.0895,5.0804,5.0804,5.0516,5.0333,5.0242,5.0242,5.0242,5.0242,5.0242,5.0242,5.0242,5.0242,5.0242,5.0242,5.0242,4.9987,4.9748,4.9748,4.9494,4.9269,4.9269,4.9269,4.9269,4.9269,4.8716,4.8177,4.7848,4.7803,4.7683,4.7339,4.7309,4.7309,4.7309,4.7019,4.6916,4.6916,4.658,4.6252,4.609,4.5367,4.4836,4.454,4.349,4.2602,4.2095,4.1492,4.0859,4.0111,4.0111,3.9857,3.9478,3.9478,3.9478,0.0,0.0,0.0,0.0,0.0,0.0,0.0,0.0,3.7789,4.0199,4.0751,4.1026,4.1871,4.4457,4.6679,4.7358,5.04,5.2677,5.2569,5.2432,5.1988,5.1201,5.1536,5.1311,5.0026,4.971,4.9325,4.8604,4.862,4.8681,4.882,4.882,4.9143,4.9866,4.9882,5.0205,5.0882,5.0897,5.1221,5.1898,5.1898,5.219,5.2713,5.2713,5.2713,5.2713,5.2713,5.2713,5.2713,5.2713,5.2713,5.2713,5.2397,5.2306,5.2231,5.1864,5.1787,5.1987,5.168,5.1587,5.1587,5.1587,5.1401,5.1214,5.1214,5.1214,5.1214,5.1214,5.1214,5.1214,5.1214,5.1214,5.1214,5.1214,5.081,5.0421,5.0421,5.0017,4.9643,4.9643,4.9643,4.9643,4.9643,4.9643,4.9374,4.8596,4.8476,4.8282,4.7758,4.7596,4.7596,4.7596,4.7302,4.7126,4.7037,4.677,4.6235,4.5666,4.523,4.4773,4.4151,4.3165,4.2565,4.2565,4.1745,4.1116,4.0676,4.0676,4.0333,3.9581,3.9581,3.9469,2.933,3.1389,3.48,3.5842,3.8057,4.0044,0.0,0.0,4.0427,4.1024,4.1518,4.1888,4.1974,4.4744,4.7254,4.8004,5.0493,5.2619,5.3264,5.2784,5.1971,5.118,5.0566,5.0104,4.9947,4.9163,4.8687,4.862,4.862,4.8897,4.9528,4.9574,4.9882,5.0559,5.059,5.0913,5.159,5.159,5.1929,5.2606,5.2606,5.2637,5.2713,5.2713,5.2713,5.2713,5.2713,5.2713,5.2713,5.2713,5.2713,5.2713,5.2397,5.2231,5.1987,5.1987,5.1987,5.1987,5.168,5.1587,5.1587,5.1308,5.1214,5.1214,5.1214,5.1214,5.1214,5.1214,5.1214,5.1214,5.1214,5.1214,5.1214,5.1214,5.1154,5.1109,5.1109,5.105,5.1005,5.1005,5.1005,5.1005,5.1005,5.0803,5.0277,4.9344,4.9164,4.9134,4.906,4.888,4.8699,4.8699,4.8304,4.7921,4.775,4.7657,4.7189,4.6137,4.5145,4.4199,4.3062,4.2051,4.1436,4.1436,4.1329,4.1304,4.1254,4.1254,4.0989,4.0711,4.0711,4.0083,3.7309,3.7359,3.7806,0.0,4.2152,4.3373,4.3074,4.3644,4.4734,4.6441,4.7241,4.778,4.834,4.9436,5.0584,0.0,5.2425,5.3011,5.2853,5.2537,5.1842,5.0554,5.0088,4.9725,4.9163,4.8852,4.8789,4.9204,4.9235,4.9543,5.0236,5.0266,5.059,5.1267,5.1282,5.1605,5.2283,5.2298,5.2436,5.2713,5.2713,5.2713,5.2713,5.2713,5.2713,5.2713,5.2713,5.2713,5.2713,5.2503,5.2503,5.2412,5.2033,5.1864,5.1787,5.1787,5.1695,5.1509,5.1401,5.1401,5.1308,5.1214,5.1214,5.1214,5.1214,5.1214,5.1214,5.1214,5.1214,5.1214,5.1214,5.1214,5.1214,5.1214,5.1214,5.1214,5.1214,5.1214,5.1214,5.1214,5.1214,5.1214,5.1214,5.1011,5.0629,5.0281,4.9694,4.9322,4.8845,4.8724,4.8617,4.8418,4.8219,4.8033,4.7782,4.7157,4.6502,4.5751,4.4676,4.3717,4.301,4.2503,4.2296,4.2296,4.2296,4.2023,4.1479,4.1479,4.1087,4.0342,4.0342,4.0,4.0328,0.0,0.0,4.3563,4.5595,4.665,4.6251,4.7082,4.8493,5.0712,5.161,5.2187,5.2923,5.2895,5.3039,5.3781,5.3567,5.3076,5.2378,5.1931,5.1177,5.0026,4.9899,4.9622,4.8995,4.8912,4.9204,4.9912,4.9959,5.0251,5.0928,5.0974,5.1282,5.1959,5.199,5.2221,5.2713,5.2713,5.2713,5.2713,5.2713,5.2713,5.2713,5.2713,5.2713,5.2713,5.2713,5.2713,5.2713,5.2503,5.2397,5.2306,5.1941,5.1665,5.1587,5.1587,5.1401,5.1214,5.1214,5.1214,5.1214,5.1214,5.1214,5.1214,5.1214,5.1214,5.1214,5.1214,5.1214,5.1214,5.1214,5.1214,5.1214,5.1214,5.1214,5.1214,5.1214,5.1214,5.1214,5.1214,5.112,5.112,5.112,5.0822,5.0632,5.0632,5.0044,4.9398,4.913,4.8963,4.8869,4.8559,4.8559,4.8385,4.7894,4.7078,4.6245,4.5254,4.4467,4.3726,4.3073,4.2974,4.2974,4.2974,4.2862,4.255,4.1929,4.183,4.1287,4.0439,4.0439,4.0352,0.0,0.0,3.979,4.4251,4.7503,4.9818,5.0676,5.0823,5.1038,5.1951,5.2461,5.2785,5.2802,5.3207,5.3484,5.3501,5.2834,5.2307,5.2307,5.0935,4.9947,4.9868,4.9786,4.9735,4.9651,4.9651,4.9943,5.062,5.0667,5.0959,5.1636,5.1682,5.199,5.2667,5.2683,5.2698,5.2713,5.2713,5.2713,5.2713,5.2713,5.2713,5.2713,5.2713,5.2713,5.2713,5.2713,5.2713,5.2713,5.2713,5.2503,5.2306,5.2291,5.2033,5.1587,5.1587,5.1401,5.1214,5.1214,5.1214,5.1214,5.1214,5.1214,5.1214,5.1214,5.1214,5.1214,5.1214,5.1214,5.1214,5.1214,5.1214,5.1214,5.1214,5.1214,5.1214,5.1214,5.1214,5.1214,5.1214,5.1011,5.0807,5.0807,5.0456,5.0086,5.0086,4.9863,4.9834,5.0346,5.0235,4.9931,4.9722,4.9611,4.9205,4.8066,4.7965,4.7033,4.4859,4.4657,4.4126,4.3085,4.2974,4.2974,4.2974,4.2638,4.2513,4.25,4.2174,4.1935,4.1558,4.1558,4.1456,0.0,0.0,4.3975,4.7434,4.9464,5.0728,5.1045,5.1847,5.2578,5.2785,5.1716,5.0626,5.0129,5.0373,5.0544,5.0185,5.1761,5.2747,5.168,5.185,5.1537,4.9961,5.0554,0.0,5.1061,5.062,5.0636,5.1313,5.1359,5.1667,5.2344,5.2375,5.2483,5.2698,5.2713,5.2713,5.2713,5.2713,5.2713,5.2713,5.2713,5.2713,5.2713,5.2713,5.2713,5.2713,5.2713,5.2713,5.2713,5.2503,5.2322,5.2063,5.1864,5.168,5.1308,5.1308,5.1308,5.1214,5.1214,5.1214,5.1214,5.1214,5.1214,5.1214,5.1214,5.1214,5.1214,5.1214,5.1214,5.1214,5.1214,5.1214,5.1214,5.1214,5.1214,5.1214,5.1214,5.1011,5.0917,5.0917,5.0742,5.0567,5.0567,5.0279,5.0086,4.9878,4.9781,4.9781,4.9975,4.9878,4.9473,4.8639,4.8539,4.8122,4.6971,4.6242,4.5515,4.4778,4.4042,4.3406,4.2986,4.2974,4.2862,4.2638,4.2525,4.2287,4.1948,4.1846,4.1618,4.1287,4.1287,4.1287,0.0,4.2768,4.5872,4.9344,5.0676,5.1252,5.1804,5.2701,5.3415,5.3576,5.127,4.91,4.8753,4.7677,4.6697,4.6396,4.8105,4.951,4.9442,5.0221,5.0615,5.0136,5.1118,5.1779,0.0,0.0,5.159,5.2021,5.2067,5.2252,5.2698,5.2713,5.2713,5.2713,5.2713,5.2713,5.2713,5.2713,5.2713,5.2713,5.2713,5.2713,5.2713,5.2713,5.2713,5.2713,5.2713,5.2713,5.2713,5.2503,5.2246,5.1987,5.1787,5.1494,5.1214,5.1214,5.1214,5.1214,5.1214,5.1214,5.1214,5.1214,5.1214,5.1214,5.1214,5.1214,5.1214,5.1214,5.1214,5.1214,5.1214,5.1214,5.1214,5.1214,5.1214,5.1214,5.1214,5.1011,5.0917,5.0807,5.0662,5.0501,5.039,5.0086,4.9878,4.9781,4.9669,4.9669,4.9669,4.936,4.8951,4.8639,4.7906,4.7074,4.6333,4.5302,4.4574,4.4152,4.3406,4.2974,4.2974,4.2862,4.275,4.2525,4.2287,4.1948,4.1606,4.1492,4.139,4.1184,4.1184,4.1184,4.2448,4.4543,4.577,5.0028,5.1166,5.1614,5.308,5.3442,5.3598,5.4115,5.1021,4.8168,0.0,0.0,4.2547,4.2515,4.2758,4.3842,4.6394,4.6713,4.7762,0.0,0.0,0.0,0.0,0.0,0.0,5.2713,5.2713,5.2713,5.2713,5.2713,5.2713,5.2713,5.2713,5.2713,5.2713,5.2713,5.2713,5.2713,5.2713,5.2713,5.2713,5.2713,5.2713,5.2713,5.2713,5.2713,5.2713,5.2713,5.2352,5.1987,5.1987,5.1695,5.1214,5.1214,5.1214,5.1214,5.1214,5.1214,5.1214,5.1214,5.1214,5.1214,5.1214,5.1214,5.1214,5.1214,5.1214,5.1214,5.1214,5.1214,5.1214,5.1214,5.1214,5.1214,5.1214,5.1214,5.112,5.0807,5.0552,5.039,5.0086,4.9878,4.9669,4.9669,4.9669,4.9669,4.9669,4.8738,4.8438,4.9473,4.7587,4.6228,4.6228,4.5195,4.4152,4.3085,4.2974,4.2974,4.2974,4.2638,4.2525,4.2413,4.1948,4.1606,4.1606,4.1287,4.1184,4.1184,4.1184,4.1184,4.3595,4.6769,4.9648,5.0821,5.1977,5.2925,5.3304,5.3839,5.3477,5.0821,4.7644,4.4337,4.0944,4.2073,4.3071,4.1887,4.6653,0.0,4.983,5.0611,0.0,5.1416,0.0,5.2467,5.2467,5.2606,0.0,5.2713,5.2713,5.2713,5.2713,5.2713,5.2713,5.2713,5.2713,5.2713,5.2713,5.2713,5.2713,5.2713,5.2713,5.2713,5.2713,5.2713,5.2713,5.2713,5.2503,5.2397,5.2412,5.2261,5.1987,5.168,5.168,5.1494,5.1214,5.1214,5.1214,5.1214,5.1214,5.1214,5.1214,5.1214,5.1214,5.1214,5.1214,5.1214,5.1214,5.1214,5.1214,5.1214,5.1214,5.1214,5.1214,5.1214,5.1214,5.112,5.0917,5.0742,5.0581,5.0361,5.0072,4.9878,4.9781,4.9781,4.9669,4.9669,4.9669,4.9669,4.9669,4.8738,4.8122,4.8438,4.6451,4.5088,4.5088,4.4042,4.3295,4.2974,4.2974,4.2862,4.2638,4.2525,4.2287,4.1834,4.172,4.1492,4.1287,4.1184,4.1184,4.1184,4.1184,4.1184,4.6559,4.9091,5.1269,5.1942,5.277,5.3063,5.1701,5.1718,5.0925,4.7131,4.3647,4.0509,3.7956,3.9345,4.061,3.9631,0.0,0.0,4.9377,5.0263,5.1236,0.0,5.2483,0.0,5.2713,5.2713,5.2713,5.2713,5.2713,5.2713,5.2713,5.2713,5.2713,5.2713,5.2713,5.2713,5.2713,5.2713,5.2713,5.2713,5.2608,5.2503,5.2503,5.2443,5.2352,5.2352,5.2246,5.2139,5.2139,5.2078,5.188,5.1587,5.1587,5.1401,5.1214,5.1214,5.1214,5.1214,5.1214,5.1214,5.1214,5.1214,5.1214,5.1214,5.1214,5.1214,5.1214,5.1214,5.1214,5.1214,5.1214,5.1214,5.1214,5.1214,5.112,5.1011,5.0807,5.0647,5.0405,5.0183,4.9878,4.9669,4.9669,4.9669,4.9669,4.9669,4.9669,4.9571,4.905,4.8438,4.7819,4.728,4.5714,4.4683,4.4683,4.3615,4.2974,4.2974,4.2862,4.275,4.2525,4.2287,4.1948,4.1594,4.1504,4.1402,4.1184,4.1184,4.1184,4.1184,4.1184,4.1184,5.0028,5.1269,5.1735,5.308,5.3477,5.2718,4.9545,4.8734,4.7493,4.3285,3.9698,3.7198,3.6758,3.6955,3.7325,3.7691,4.1233,4.4982,4.783,4.8667,4.991,5.2433,5.2713,5.2713,5.2713,5.2713,5.2713,5.2713,5.2713,5.2713,5.2713,5.2713,5.2713,5.2713,5.2713,5.2713,5.2713,5.2624,5.2624,5.2608,5.2412,5.2215,5.2215,5.2078,5.2002,5.2002,5.1987,5.1987,5.1895,5.1895,5.1787,5.1587,5.1587,5.1401,5.1214,5.1214,5.1214,5.1214,5.1214,5.1214,5.1214,5.1214,5.1214,5.1214,5.1214,5.1214,5.1214,5.1214,5.1214,5.1214,5.1214,5.1214,5.1214,5.112,5.1011,5.0807,5.0713,5.0567,5.0294,5.0086,4.9878,4.9669,4.9669,4.9669,4.9669,4.9669,4.9571,4.905,4.792,4.7805,4.7396,4.6438,4.5195,4.4574,4.4683,4.3615,4.2974,4.2974,4.2638,4.2413,4.24,4.1834,4.1606,4.1606,4.1287,4.1184,4.1184,4.1184,4.1184,4.1184,4.1184,4.1184,5.0729,5.1924,5.308,5.3339,5.3873,5.3356,4.9666,4.8355,0.0,3.9657,3.7361,3.5648,3.2901,3.4976,3.8051,4.0857,4.438,4.8023,5.1533,5.2028,5.2125,0.0,5.2713,5.2713,5.2713,5.2713,0.0,5.2713,5.2713,5.2713,5.2713,5.2713,5.2713,5.2713,5.2713,5.2713,5.2713,5.2503,5.2397,5.2397,5.2155,5.2078,5.2078,5.1987,5.2002,5.2002,5.1787,5.168,5.168,5.1401,5.1308,5.1308,5.1308,5.1214,5.1214,5.1214,5.1214,5.1214,5.1214,5.1214,5.1214,5.1214,5.1214,5.1214,5.1214,5.1214,5.1214,5.1214,5.1214,5.1214,5.1214,5.1214,5.112,5.0917,5.0807,5.0713,5.0264,4.9975,4.9878,4.9781,4.9781,4.9669,4.9669,4.9669,4.9669,4.9669,4.8951,4.7906,4.675,4.6646,4.6542,4.6333,4.4453,4.3725,4.4574,4.3615,4.2862,4.2638,4.2513,4.2287,4.1834,4.1606,4.1492,4.1287,4.1184,4.1184,4.1184,4.1184,4.1184,4.1184,4.1184,4.1184,5.1976,5.2777,5.3494,5.3891,5.4253,5.2994,4.72,0.0,0.0,3.5966,3.4197,3.349,3.176,3.4575,3.7755,3.9713,4.4232,4.8256,5.0432,5.1871,5.2713,5.2713,5.2713,5.2713,5.2713,5.2713,5.2713,5.2713,5.2713,5.2713,5.2713,5.2713,5.2713,5.2713,5.2713,5.2608,5.2503,5.2397,5.2215,5.2139,5.188,5.1787,5.1787,5.1602,5.1602,5.1602,5.1401,5.1401,5.1401,5.1214,5.1214,5.1214,5.1214,5.1214,5.1214,5.1214,5.1214,5.1214,5.1214,5.1214,5.1214,5.1214,5.1214,5.1214,5.1214,5.1214,5.1214,5.1214,5.1214,5.1214,5.1214,5.112,5.0917,5.0807,5.0632,5.0361,4.9975,4.9781,4.9669,4.9669,4.9669,4.9669,4.9669,4.9669,4.9669,4.9669,4.8738,4.7601,4.6438,4.5807,4.5182,4.4657,4.4139,4.3835,4.3835,4.3184,4.2638,4.2525,4.2174,4.1948,4.1594,4.1504,4.1287,4.1184,4.1184,4.1184,4.1184,4.1184,4.1184,4.1184,4.1184,4.0815,5.2822,5.3529,5.377,5.4374,5.4512,5.2528,4.4906,4.3009,4.075,3.3279,3.1681,3.1595,3.1545,3.3932,3.6454,3.7963,4.2285,4.6201,4.8498,5.0492,5.2059,5.2621,5.2713,0.0,5.2713,5.2713,5.2713,5.2713,5.2713,5.2713,5.2713,5.2713,5.2713,5.2608,5.2608,5.2503,5.2215,5.2215,5.2048,5.1895,5.168,5.1494,5.1494,5.1308,5.1214,5.1214,5.1214,5.1214,5.1214,5.1214,5.1214,5.1214,5.1214,5.1214,5.1214,5.1214,5.1214,5.1214,5.1214,5.1214,5.1214,5.1214,5.1214,5.1214,5.1214,5.1214,5.1214,5.1214,5.1214,5.1214,5.112,5.1011,5.0822,5.0728,5.0361,4.9975,4.9781,4.9669,4.9669,4.9669,4.9669,4.9669,4.9669,4.9669,4.9571,4.936,4.8324,4.7177,4.6123,4.498,4.4042,4.3085,4.3835,4.3932,4.3085,4.2638,4.2525,4.2413,4.1948,4.1606,4.1492,4.1287,4.1184,4.1184,4.1184,4.1184,4.1184,4.1184,4.1184,4.1184,4.0942,4.0199,5.2235,5.3891,5.4425,5.4494,5.4512,5.2528,4.4906,0.0,4.0129,3.308,3.1085,3.0773,3.1253,3.1623,3.3403,3.8156,3.8731,4.1173,4.8554,4.917,4.9755,5.2418,0.0,0.0,5.2713,5.2713,5.2713,5.2713,5.2713,5.2713,5.2713,5.2713,5.2608,5.2306,5.2306,5.2231,5.1987,5.1787,5.168,5.1587,5.1401,5.1214,5.1229,5.1214,5.1214,5.1214,5.1214,5.1214,5.1214,5.1214,5.1214,5.1214,5.1214,5.1214,5.1214,5.1214,5.1214,5.1214,5.1214,5.1214,5.1214,5.1214,5.1214,5.1214,5.1214,5.1214,5.1214,5.1214,5.1214,5.112,5.0902,5.1011,5.1026,5.0677,5.0086,4.9781,4.9669,4.9669,4.9669,4.9669,4.9669,4.9669,4.9669,4.9669,4.936,4.8338,4.7177,4.6018,4.4993,4.3823,4.3085,4.2974,4.3085,4.3085,4.2974,4.2638,4.2413,4.2098,4.1846,4.1492,4.1299,4.1184,4.1184,4.1184,4.1184,4.1184,4.1184,4.1184,4.1184,4.1184,3.9954,3.9345,5.2839,5.4287,5.4512,5.4512,5.3132,5.0287,4.4492,0.0,3.8387,3.2882,3.1485,3.131,3.1452,3.1445,3.2219,3.4703,3.622,3.8346,4.2048,4.378,4.5896,4.9181,4.9568,5.0397,5.2467,5.2713,5.2713,5.2713,5.2713,5.2608,5.2503,5.2503,5.2397,5.2306,5.2139,5.1972,5.1787,5.168,5.1494,5.1401,5.1214,5.1214,5.1214,5.1214,5.1214,5.1214,5.1214,5.1214,5.1214,5.1214,5.1214,5.1214,5.1214,5.1214,5.1214,5.1214,5.1214,5.1214,5.1214,5.1214,5.1214,5.1214,5.1214,5.1214,5.1214,5.1214,5.1214,5.1214,5.1214,5.1214,5.1105,5.0947,5.0677,5.0294,4.999,4.9669,4.9669,4.9669,4.9669,4.9669,4.9669,4.9669,4.9669,4.9164,4.8539,4.8021,4.6451,4.5195,4.4778,4.3725,4.2974,4.2974,4.2974,4.2974,4.2974,4.2538,4.2211,4.211,4.1631,4.1287,4.1184,4.1184,4.1184,4.1184,4.1184,4.1184,4.1184,4.1184,4.1184,4.1184,3.9826,3.8732,5.1873,5.3822,5.4512,5.4512,5.2235,4.8803,4.4199,0.0,3.7301,3.2769,3.161,3.145,3.1582,3.1333,3.1423,3.2292,3.4102,3.5943,3.7554,3.9577,4.2061,4.5315,4.573,4.7075,5.0599,5.2006,5.2713,5.2713,5.2608,5.2503,5.2306,5.2215,5.2124,5.2124,5.1972,5.1787,5.1494,5.1494,5.1401,5.1214,5.1214,5.1214,5.1214,5.1214,5.1214,5.1214,5.1214,5.1214,5.1214,5.1214,5.1214,5.1214,5.1214,5.1214,5.1214,5.1214,5.1214,5.1214,5.1214,5.1214,5.1214,5.1214,5.1214,5.1214,5.1214,5.1214,5.1214,5.1214,5.1135,5.1041,5.1026,5.0647,5.0198,5.0086,4.9878,4.9669,4.9669,4.9669,4.9669,4.9669,4.9669,4.9669,4.9669,4.8738,4.792,4.7499,4.5926,4.4574,4.4248,4.3517,4.2974,4.2974,4.2974,4.2974,4.2974,4.2437,4.211,4.211,4.1528,4.1184,4.1184,4.1184,4.1184,4.1184,4.1184,4.1184,4.1184,4.1184,4.1184,4.1184,3.9474,3.7528,4.8596,5.2235,5.4512,5.4512,5.2235,4.8786,4.4147,4.0767,3.7344,3.281,3.1179,3.0759,3.1497,3.083,3.0662,3.2076,3.2307,3.3604,3.7225,3.7744,3.8659,4.1193,4.1488,4.2864,4.6516,5.0429,5.2713,5.2713,5.2412,5.2306,5.2306,5.1849,5.1587,5.1587,5.1587,5.1494,5.1214,5.1214,5.1214,5.1214,5.1214,5.1214,5.1214,5.1214,5.1214,5.1214,5.1214,5.1214,5.1214,5.1214,5.1214,5.1214,5.1214,5.1214,5.1214,5.1214,5.1214,5.1214,5.1214,5.1214,5.1214,5.1214,5.1214,5.1214,5.1214,5.1214,5.1214,5.1214,5.0867,5.0581,5.0728,5.0235,4.9781,5.0086,4.9878,4.9669,4.9669,4.9669,4.9669,4.9669,4.9669,4.9669,4.9669,4.8738,4.7601,4.6542,4.5395,4.4248,4.3197,4.2974,4.2974,4.2974,4.2974,4.2974,4.2974,4.2437,4.211,4.211,4.1528,4.1184,4.1184,4.1184,4.1184,4.1184,4.1184,4.1184,4.1184,4.1184,4.1184,4.1184,3.8506,3.5592,4.4923,4.6786,4.751,4.751,4.4906,4.1795,3.9761,3.699,3.4142,3.1614,3.1139,3.1264,3.1504,3.1181,3.1179,3.2161,3.193,3.2229,3.3917,3.5874,3.8319,4.1486,4.6166,4.9594,5.0737,5.1959,5.2608,5.2412,5.2306,5.2124,5.1849,5.168,5.1587,5.1587,5.1401,5.1308,5.1214,5.1214,5.1214,5.1214,5.1214,5.1214,5.1214,5.1214,5.1214,5.1214,5.1214,5.1214,5.1214,5.1214,5.1214,5.1214,5.1214,5.1214,5.1214,5.1214,5.1214,5.1214,5.1214,5.1214,5.1214,5.1214,5.1214,5.1214,5.1214,5.1214,5.112,5.1011,5.0822,5.0647,5.0567,5.0279,4.999,5.0086,4.9878,4.9669,4.9669,4.9669,4.9669,4.9669,4.905,4.8753,4.9571,4.7485,4.582,4.6228,4.4765,4.3406,4.3085,4.2974,4.2974,4.2974,4.2974,4.2974,4.2974,4.2437,4.211,4.211,4.1528,4.1184,4.1184,4.1184,4.1184,4.1184,4.1184,4.1184,4.1184,4.1184,4.0199,3.8138,3.6205,3.4133,4.2276,4.3764,4.4199,4.3923,4.1056,3.7992,3.6913,3.4306,3.1927,3.094,3.0673,3.0817,3.1435,3.1108,3.1004,3.1749,3.154,3.1918,3.3778,3.5627,3.8057,4.1454,4.6967,5.0405,5.0303,5.1702,5.2412,5.2231,5.2124,5.1941,5.1587,5.1494,5.1494,5.1494,5.1308,5.1214,5.1214,5.1214,5.1214,5.1214,5.1214,5.1214,5.1214,5.1214,5.1214,5.1214,5.1214,5.1214,0.0,5.1214,5.1214,5.1214,5.1214,5.1214,5.1214,5.1214,5.1214,5.1214,5.1214,5.1214,5.1214,5.1214,5.1214,5.1214,5.1214,5.1214,5.1214,5.1011,5.0822,5.0647,5.0486,5.0198,4.9975,4.9975,4.9781,4.9669,4.9669,4.9669,4.9669,4.9669,4.9164,4.8738,4.905,4.6971,4.5395,4.5714,4.4139,4.2974,4.2974,4.2974,4.2974,4.2974,4.2974,4.2974,4.2862,4.2312,4.2098,4.1972,4.1402,4.1184,4.1184,4.1184,4.1184,4.1184,4.1184,4.1184,4.1184,4.0687,3.9228,3.6803,3.5108,3.3515,0.0,4.2335,4.3404,4.261,3.9692,3.6654,3.5128,0.0,0.0,3.0647,2.9919,2.974,3.1305,3.0772,3.034,3.1224,3.1258,3.2496,3.6171,3.7061,3.8569,4.1818,4.5179,4.7114,4.6843,5.009,5.2231,5.1987,5.1787,5.1587,5.1572,5.1308,5.1214,5.1214,5.1214,5.1214,5.1214,5.1214,5.1214,5.1214,5.1214,5.1214,5.1214,5.1214,5.1214,5.1214,5.1214,5.1214,5.1214,5.1214,5.1214,5.1214,5.1214,5.1214,5.1214,5.1214,5.1214,5.1214,5.1214,5.1214,5.1214,5.1214,5.1214,5.1214,5.1214,5.1214,5.1214,5.112,5.0852,5.0501,5.0501,5.0086,4.9669,4.9669,4.9669,4.9669,4.9669,4.9669,4.9669,4.9669,4.9571,4.9164,4.8122,4.6971,4.5701,4.4886,4.3725,4.2974,4.2974,4.2974,4.2974,4.2974,4.2974,4.2862,4.2525,4.2199,4.1984,4.1606,4.1402,4.1184,4.1184,4.1184,4.1184,4.1184,4.1184,4.1184,4.1184,3.9721,3.8257,3.6803,3.5108,3.3398,3.6932,0.0,3.6601,3.52,3.3601,3.2117,0.0,0.0,0.0,0.0,0.0,3.0302,3.1198,3.1116,3.132,3.2538,3.1854,3.2681,3.6828,4.1645,4.6112,4.9594,5.058,5.0973,5.0885,5.1591,5.1972,5.168,5.168,5.1494,5.1308,5.1214,5.1214,5.1214,5.1214,5.1214,5.1214,5.1214,5.1214,5.1214,5.1214,5.1214,5.1214,5.1214,5.1214,5.1214,5.1214,5.1214,5.1214,5.1214,5.1214,5.1214,5.1214,5.1214,5.1214,5.1214,5.1214,5.1214,5.1214,5.1214,5.1214,5.1214,5.1214,5.1214,5.1214,5.1011,5.0822,5.0677,5.0486,5.0183,4.9975,4.9781,4.9669,4.9669,4.9669,4.9669,4.9669,4.9669,4.9669,4.9669,4.831,4.7266,4.792,4.5608,4.4029,4.4574,4.3725,4.2974,4.2974,4.2974,4.2974,4.2974,4.2974,4.2862,4.2525,4.2199,4.1984,4.1606,4.1402,4.1184,4.1184,4.1184,4.1184,4.1184,4.1184,4.1184,4.1184,3.8873,3.7407,3.6682,3.4123,3.254,3.5557,3.4766,3.381,3.2616,3.1516,3.0525,2.9679,0.0,0.0,0.0,0.0,3.0883,3.1647,3.1945,3.221,3.2606,3.3523,3.548,3.9097,4.2417,4.589,4.9656,4.9726,5.0201,5.185,5.1864,5.1695,5.1401,5.1401,5.1308,5.1214,5.1214,5.1214,5.1214,5.1214,5.1214,5.1214,5.1214,5.1214,5.1214,5.1214,5.1214,5.1214,5.1214,5.1214,5.1214,5.1214,5.1214,5.1214,5.1214,5.1214,5.1214,5.1214,5.1214,5.1214,5.1214,5.1214,5.1214,5.1214,5.1214,5.1214,5.1214,5.1214,5.1214,5.1214,5.1011,5.0807,5.0852,5.0581,5.0294,5.0086,4.9878,4.9669,4.9669,4.9669,4.9669,4.9669,4.9669,4.9571,4.905,4.7906,4.6971,4.6556,4.498,4.3835,4.3945,4.3406,4.2974,4.2974,4.2974,4.2974,4.2974,4.2974,4.2862,4.2525,4.2199,4.1984,4.1606,4.1402,4.1184,4.1184,4.1184,4.1184,4.1184,4.1184,4.1184,4.1184,3.8636,3.7045,3.6549,3.3766,3.2166,3.5055,3.4483,3.3863,3.2545,3.1446,3.0489,2.9679,0.0,0.0,0.0,0.0,0.0,0.0,3.2605,0.0,3.232,3.5679,3.9372,4.2282,4.289,4.419,4.74,4.7461,4.8338,5.1348,5.1587,5.1401,5.1214,5.1214,5.1214,5.1214,5.1214,5.1214,5.1214,5.1214,5.1214,5.1214,5.1214,5.1214,5.1214,5.1214,5.1214,5.1214,5.1214,5.1214,5.1214,5.1214,5.1214,5.1214,5.1214,5.1214,5.1214,5.1214,5.1214,5.1214,5.1214,5.1214,5.1214,5.1214,5.1214,5.1214,5.1214,5.1214,5.1214,5.1214,5.1011,5.0902,5.112,5.0757,5.0405,5.039,5.0086,4.9669,4.9669,4.9669,4.9669,4.9669,4.9571,4.9164,4.8223,4.7717,4.6881,4.4993,4.4574,4.4152,4.3197,4.2974,4.2974,4.2974,4.2974,4.2974,4.2974,4.2974,4.2862,4.2525,4.2199,4.1984,4.1606,4.1402,4.1184,4.1184,4.1184,4.1184,4.1184,4.1184,4.1184,4.1184,3.8506,3.6924,3.6306,3.3641,3.2038,3.4183,3.5818,3.6751,3.2784,3.1231,3.0489,0.0,0.0,0.0,0.0,0.0,0.0,0.0,3.1705,3.1698,3.2824,3.7682,4.2473,4.5955,4.9031,5.1051,5.1475,5.1225,5.1213,5.1527,5.1401,5.1214,5.1214,5.1214,5.1214,5.1214,5.1214,5.1214,5.1214,5.1214,5.1214,5.1214,5.1214,5.1214,5.1214,5.1214,5.1214,5.1214,5.1214,5.1214,5.1214,5.1214,5.1214,5.1214,5.1214,5.1214,5.1214,5.1214,5.1214,5.1214,5.1214,5.1214,5.1214,5.1214,5.1214,5.1214,5.1214,5.1214,5.1214,5.1214,5.1214,5.112,5.0917,5.0537,5.0086,4.9878,4.9781,4.9669,4.9669,4.9669,4.9669,4.9669,4.8951,4.8223,4.8021,4.6465,4.5101,4.4778,4.3932,4.3184,4.2986,4.2974,4.2974,4.2974,4.2974,4.2974,4.2974,4.2974,4.2862,4.2525,4.2199,4.1984,4.1606,4.1402,4.1184,4.1184,4.1184,4.1184,4.1184,4.1184,4.1184,4.1184,3.8257,3.6803,3.6682,3.3515,3.1919,3.3762,3.4274,3.4869,3.5277,3.6361,3.7205,0.0,0.0,0.0,0.0,0.0,0.0,0.0,3.4091,3.6856,4.0813,4.1709,4.3182,4.6821,4.6827,4.7214,4.918,4.9151,4.9604,5.1468,5.1494,5.1401,5.1214,5.1214,5.1214,5.1214,5.1214,5.1214,5.1214,5.1214,5.1214,5.1214,5.1214,5.1214,5.1214,5.1214,5.1214,5.1214,5.1214,5.1214,5.1214,5.1214,5.1214,5.1214,5.1214,5.1214,5.1214,5.1214,5.1214,5.1214,5.1214,5.1214,5.1214,5.1214,5.1214,5.1214,5.1214,5.1214,5.1214,5.1214,5.1214,5.112,5.0902,5.0552,5.0294,4.999,4.936,4.8951,4.9571,4.9262,4.8753,4.8753,4.8338,4.7601,4.6451,4.5422,4.4466,4.3932,4.3295,4.2974,4.2974,4.2974,4.2974,4.2974,4.2974,4.2974,4.2974,4.2974,4.2862,4.2525,4.2199,4.1871,4.139,4.1287,4.1184,4.1184,4.1184,4.1184,4.1184,4.1184,4.1184,4.1184,3.8755,3.7298,3.6428,3.3882,3.2284,3.3376,3.3441,3.4115,3.7394,3.9285,0.0,0.0,0.0,0.0,0.0,0.0,0.0,0.0,3.6577,4.072,4.5945,4.478,4.4448,4.8058,4.5815,4.4915,4.7862,4.787,4.8602,5.1378,5.1587,5.1401,5.1214,5.1214,5.1214,5.1214,5.1214,5.1214,5.1214,5.1214,5.1214,5.1214,5.1214,5.1214,5.1214,5.1214,5.1214,5.1214,5.1214,5.1214,5.1214,5.1214,5.1214,5.1214,5.1214,5.1214,5.1214,5.1214,5.1214,5.1214,5.1214,5.1214,5.1214,5.1214,5.1214,5.1214,5.1214,5.1214,5.1214,5.1214,5.112,5.1011,5.0822,5.0567,5.039,5.0183,4.905,4.8338,4.9459,4.8639,4.7703,4.8324,4.7819,4.6764,4.5302,4.467,4.4042,4.3197,4.2974,4.2974,4.2974,4.2974,4.2974,4.2974,4.2974,4.2974,4.2974,4.2974,4.2862,4.2413,4.2086,4.1643,4.1184,4.1184,4.1184,4.1184,4.1184,4.1184,4.1184,4.1184,4.1057,4.0942,3.9133,3.7429,3.6061,3.4133,3.2657,3.2837,3.5514,3.8295,3.7554,3.4961,0.0,4.1349,4.0168,0.0,4.1324,0.0,0.0,0.0,3.7395,3.8634,4.1577,4.4818,4.8199,5.177,5.1812,5.1616,5.1922,5.1501,5.1363,5.1557,5.1401,5.1214,5.1214,5.1214,5.1214,5.1214,5.1214,5.1214,5.1214,5.1214,5.1214,5.1214,5.1214,5.1214,5.1214,5.1214,5.1214,5.1214,5.1214,5.1214,5.1214,5.1214,5.1214,5.1214,5.1214,5.1214,5.1214,5.1214,5.1214,5.1214,5.1214,5.1214,5.1214,5.1214,5.1214,5.1214,5.1214,5.1214,5.1214,5.1214,5.1011,5.0822,5.0581,5.0294,5.0086,5.0086,4.905,4.8338,4.9459,4.7993,4.6957,4.9149,4.7177,4.5195,4.6018,4.4548,4.3085,4.2974,4.2974,4.2974,4.2974,4.2974,4.2974,4.2974,4.2974,4.2974,4.2974,4.2974,4.2762,4.2211,4.1643,4.1299,4.1184,4.1184,4.1184,4.1184,4.1184,4.1184,4.1184,4.1184,4.0942,4.0223,3.8648,3.6946,3.5345,3.3747,3.2374,3.2454,3.4722,3.693,3.6573,3.5457,0.0,0.0,4.506,4.4228,4.5409,4.66,0.0,0.0,4.2734,4.4046,4.4971,4.8195,5.1101,5.2498,5.2608,5.2503,5.2306,5.2322,5.2139,5.168,5.1695,5.1509,5.1214,5.1214,5.1214,5.1214,5.1214,5.1214,5.1214,5.1214,5.1214,5.1214,5.1214,5.1214,5.1214,5.1214,5.1214,5.1214,5.1214,5.1214,5.1214,5.1214,5.1214,5.1214,5.1214,5.1214,5.1214,5.1214,5.1214,5.1214,5.1214,5.1214,5.1214,5.1214,5.1214,5.1214,5.1214,5.1214,5.1214,5.1214,5.112,5.1011,5.0742,5.0028,4.9233,4.8838,4.8438,4.792,4.7689,4.6957,4.6333,4.6542,4.5608,4.4574,4.4344,4.3615,4.2974,4.2974,4.2974,4.2974,4.2974,4.2974,4.2974,4.2974,4.2974,4.2974,4.2974,4.265,4.2312,4.1846,4.1402,4.1184,4.1184,4.1184,4.1184,4.1184,4.1184,4.1184,4.1184,4.1184,4.0826,4.0223,3.8529,3.6946,3.5222,3.3621,3.2374,3.1856,3.3118,3.4693,0.0,0.0,0.0,4.6408,4.7003,4.6615,4.9041,4.9552,0.0,4.593,0.0,4.7746,4.7247,5.0306,5.2713,5.2713,5.2608,5.2503,5.2306,5.2322,5.2139,5.168,5.1695,5.1617,5.1214,5.1214,5.1214,5.1214,5.1214,5.1214,5.1214,5.1214,5.1214,5.1214,5.1214,5.1214,5.1214,5.1214,5.1214,5.1214,5.1214,5.1214,5.1214,5.1214,5.1214,5.1214,5.1214,5.1214,5.1214,5.1214,5.1214,5.1214,5.1214,5.1214,5.1214,5.1214,5.1214,5.1214,5.1214,5.1214,5.1214,5.1214,5.112,5.0917,5.0302,4.9401,4.8396,4.728,4.6985,4.6867,4.6438,4.5807,4.5289,4.5195,4.467,4.4042,4.3615,4.3308,4.2974,4.2974,4.2974,4.2974,4.2974,4.2974,4.2974,4.2974,4.2974,4.2974,4.2974,4.2437,4.1984,4.1732,4.1402,4.1184,4.1184,4.1184,4.1184,4.1184,4.1184,4.1184,4.1184,4.0942,4.0583,3.9873,3.8291,3.6581,3.4984,3.3621,3.2374,3.098,3.1016,3.2227,0.0,0.0,0.0,4.626,4.4674,4.3824,5.1826,5.1003,4.8759,4.8562,4.8487,4.8222,4.734,5.0306,5.2713,5.2713,5.2503,5.2306,5.2306,5.1849,5.1587,5.1587,5.1401,5.1214,5.1214,5.1214,5.1214,5.1214,5.1214,5.1214,5.1214,5.1214,5.1214,5.1214,5.1214,5.1214,5.1214,5.1214,5.1214,5.1214,5.1214,5.1214,5.1214,5.1214,5.1214,5.1214,5.1214,5.1214,5.1214,5.1214,5.1214,5.1214,5.1214,5.1214,5.1214,5.1214,5.1214,5.1214,5.1214,5.1214,5.1214,5.1214,5.1011,5.0508,4.919,4.8596,4.7763,4.5302,4.4683,4.4993,4.6018,4.4548,4.3615,4.5807,4.4548,4.3295,4.4466,4.3713,4.2974,4.2974,4.2974,4.2974,4.2974,4.2974,4.2974,4.2974,4.2974,4.2974,4.2974,4.2437,4.211,4.211,4.1528,4.1184,4.1184,4.1184,4.1184,4.1184,4.1184,4.1184,4.1184,4.0583,3.9873,3.9308,3.7583,3.5981,3.4383,3.3379,3.2384,3.0242,3.3899,0.0,3.5284,0.0,0.0,0.0,4.6598,0.0,0.0,5.2884,5.1108,4.8875,5.012,5.0533,4.7652,5.0306,5.2713,5.2713,5.2608,5.2503,5.2306,5.2322,5.2246,5.1895,5.1956,5.1849,5.1494,5.1494,5.1401,5.1214,5.1214,5.1214,5.1214,5.1214,5.1214,5.1214,5.1214,5.1214,5.1214,5.1214,5.1214,5.1214,5.1214,5.1214,5.1214,5.1214,5.1214,5.1214,5.1214,5.1214,5.1214,5.1214,5.1214,5.1214,5.1214,5.1214,5.1214,5.1214,5.1214,5.1214,5.1214,5.1214,5.1214,5.1214,5.0618,4.982,4.9205,4.7763,4.6123,4.5195,4.4248,4.3615,4.392,4.4139,4.4152,4.4029,4.3504,4.3085,4.3406,4.3184,4.2974,4.2974,4.2974,4.2974,4.2974,4.2974,4.2974,4.2974,4.2974,4.2862,4.2638,4.2312,4.1984,4.1732,4.1402,4.1184,4.1184,4.1184,4.1184,4.1184,4.1184,4.1184,4.1184,4.0583,3.9873,3.9297,3.6957,3.5612,3.5376,3.3009,3.2001,3.1938,3.5161,0.0,3.9303,4.3231,4.7242,4.8644,0.0,0.0,0.0,5.3733,5.2912,5.0628,5.1847,5.2393,4.977,5.1287,5.2713,5.2713,5.2713,5.2608,5.2306,5.2412,5.2427,5.2002,5.2048,5.1941,5.1572,5.1494,5.1401,5.1214,5.1214,5.1214,5.1214,5.1214,5.1214,5.1214,5.1214,5.1214,5.1214,5.1214,5.1214,5.1214,5.1214,5.1214,5.1214,5.1214,5.1214,5.1214,5.1214,5.1214,5.1214,5.1214,5.1214,5.1214,5.1214,5.1214,5.112,5.0713,5.0822,5.112,5.0713,5.0822,5.112,5.0713,5.0124,4.9317,4.808,4.6632,4.5289,4.4453,4.3615,4.2974,4.2974,4.3504,4.3823,4.3197,4.2974,4.2974,4.2974,4.2974,4.2974,4.2974,4.2974,4.2974,4.2974,4.2974,4.2974,4.2974,4.2974,4.2862,4.2525,4.2199,4.1972,4.1606,4.1402,4.1184,4.1184,4.1184,4.1184,4.1184,4.1184,4.1057,4.0826,4.0118,3.9532,3.8942,3.6592,3.5612,3.5879,3.3253,3.2384,3.4988,3.562,0.0,4.5621,4.7564,0.0,5.1552,5.2834,5.3305,5.2974,0.0,5.3848,5.2787,5.3315,5.3577,5.2788,5.2713,5.2713,5.2713,5.2713,5.2608,5.2397,5.2306,5.2215,5.2078,5.188,5.168,5.168,5.1401,5.1214,5.1214,5.1214,5.1214,5.1214,5.1214,5.1214,5.1214,5.1154,5.1124,5.1124,5.1065,5.105,5.105,5.1169,5.1214,5.1214,5.1214,5.1214,5.1214,5.1214,5.1214,5.1214,5.112,5.112,5.1214,5.112,5.109,5.0937,5.0022,5.0294,5.0847,4.9852,5.0155,5.0738,4.9741,4.9242,4.8623,4.6066,4.5276,4.4901,4.333,4.2936,4.2974,4.2974,4.2974,4.2974,4.2974,4.2974,4.2974,4.2974,4.2974,4.2974,4.2974,4.2974,4.2974,4.2974,4.2974,4.2974,4.2974,4.2974,4.2862,4.2525,4.2199,4.1972,4.1606,4.1402,4.1184,4.1184,4.1184,4.1184,4.1184,4.1184,4.0826,4.0223,3.965,3.8942,3.8347,3.6735,3.5879,3.5879,3.3882,3.2883,3.4584,3.9286,0.0,0.0,4.9622,5.2101,5.225,5.2449,5.2323,5.1581,5.1949,5.2356,5.2007,5.2522,5.2951,5.2713,5.2713,5.2713,5.2713,5.2713,5.2713,5.2608,5.2608,5.2608,5.2533,5.2533,5.2337,5.1987,5.1895,5.1602,5.1214,5.1214,5.1214,5.1214,5.1214,5.1308,5.1494,5.0798,5.0543,5.0712,5.0019,4.9688,4.9718,5.075,5.1214,5.1214,5.1214,5.1214,5.1214,5.1214,5.1214,5.112,5.0316,5.0427,5.112,5.022,5.0103,5.0359,5.0158,4.9923,4.9688,4.9399,4.9016,4.8521,4.8239,4.6839,4.5239,4.4644,4.3861,4.3086,4.2785,4.2881,4.2974,4.2974,4.2974,4.2974,4.2974,4.2974,4.2974,4.2974,4.2974,4.2974,4.2974,4.2974,4.2974,4.2974,4.2974,4.2974,4.2974,4.2974,4.2862,4.2525,4.2199,4.1972,4.1606,4.1402,4.1184,4.1184,4.1184,4.1184,4.1184,4.1184,4.0826,4.0223,3.965,3.8942,3.8347,3.6735,3.5879,3.5879,3.3882,3.2883,3.679,0.0,0.0,4.8995,0.0,5.3195,5.1987,5.1769,5.1333,5.0086,5.09,5.1842,5.1734,5.2252,5.2713,5.2713,5.2713,5.2713,5.2713,5.2713,5.2713,5.2713,5.2713,5.2624,5.2503,5.2427,5.217,5.188,5.1695,5.1509,5.1401,5.1401,5.1401,5.1602,5.1494,5.1494,5.1587,5.0978,5.0556,5.041,4.9989,4.9568,4.9284,4.9972,5.0287,5.0287,5.0287,5.0287,5.0287,5.0287,5.0287,5.0194,4.9685,4.9794,5.0194,4.9685,4.9586,4.958,4.858,4.8375,4.8389,4.7398,4.7019,4.6938,4.6444,4.5354,4.4266,4.3475,4.2891,4.2309,4.2093,4.2091,4.2195,4.2195,4.2597,4.2974,4.2974,4.2974,4.2974,4.2974,4.2974,4.2974,4.2974,4.2974,4.2974,4.2974,4.2974,4.2974,4.2974,4.2974,4.2862,4.2312,4.2211,4.1871,4.1504,4.1287,4.1184,4.1184,4.1184,4.1184,4.1184,4.1184,4.0711,3.9767,3.9414,3.8823,3.7867,3.7,3.6624,3.6624,3.5005,3.4123,3.8491,4.0779,4.3254,5.1454,5.3501,0.0,5.1443,5.107,5.0599,4.8918,5.0175,5.1471,5.141,5.2006,5.2544,5.2544,5.2637,5.2713,5.2713,5.2713,5.2713,5.2713,5.2624,5.2518,5.2306,5.2155,5.1987,5.168,5.1494,5.1494,5.168,5.168,5.1787,5.2002,5.1787,5.168,5.168,5.1296,5.078,5.0242,5.0002,4.9568,4.8925,4.8925,4.9045,4.9269,4.9269,4.9269,4.9269,4.9269,4.9269,4.9269,4.9058,4.9058,4.8983,4.8786,4.8711,4.8411,4.6767,4.679,4.7189,4.5428,4.533,4.5733,4.4642,4.4157,4.3654,4.2385,4.1952,4.1817,4.1405,4.1266,4.1342,4.1342,4.2032,4.2698,4.2698,4.2773,4.2836,4.2836,4.2911,4.2974,4.2974,4.2974,4.2974,4.2974,4.2974,4.2974,4.2974,4.2974,4.265,4.211,4.2098,4.1757,4.1299,4.1184,4.1184,4.1184,4.1184,4.1184,4.1184,4.1184,4.0595,3.9297,3.9308,3.8704,3.7374,3.7374,3.7253,3.7132,3.6125,3.5129,3.5149,0.0,4.7166,0.0,5.3501,5.3041,0.0,5.107,5.0599,4.8918,4.9334,5.0005,4.9943,5.099,5.1836,5.1836,5.2329,5.2713,5.2713,5.2713,5.2713,5.2713,5.2503,5.2306,5.2306,5.2306,5.2139,5.1987,5.2048,5.2124,5.1987,5.1987,5.1987,5.2002,5.1987,5.1987,5.1987,5.1121,5.0592,5.0486,4.9179,4.8207,4.7563,4.7563,4.8192,4.9269,4.9269,4.9269,4.9269,4.9269,4.9269,4.9164,4.8175,4.7896,4.7911,4.6924,4.6186,4.5921,4.6512,4.6428,4.604,4.5753,4.5203,4.4363,4.3313,4.2265,4.1305,4.1116,4.1055,4.1022,4.1022,4.1178,4.1342,4.1342,4.1455,4.1555,4.1555,4.1932,4.2258,4.2258,4.2647,4.2974,4.2974,4.2974,4.2974,4.2974,4.2974,4.2974,4.2974,4.275,4.2413,4.2098,4.1859,4.1504,4.1184,4.1184,4.1184,4.1184,4.1184,4.1184,4.1184,4.1184,4.0595,3.9297,3.9308,3.8704,3.7374,3.7374,3.7,3.6125,3.5129,3.3998,3.662,4.2211,4.7988,5.2367,5.3501,5.3212,5.2076,5.1443,5.0767,4.955,4.9182,4.9204,4.9605,5.0482,5.1144,5.1144,5.139,5.1575,5.1575,5.1575,5.1728,5.2113,5.2055,5.1935,5.1741,5.1741,5.1498,5.0879,5.0833,5.0848,5.0879,5.0879,5.0953,5.1027,5.0968,5.0953,5.1027,5.0291,4.9869,4.9854,4.882,4.8132,4.7863,4.7863,4.7967,4.8162,4.8162,4.8162,4.8162,4.7584,4.739,4.7286,4.6803,4.6621,4.6727,4.6741,4.6643,4.641,4.6305,4.6026,4.5584,4.447,4.3829,4.3273,4.2235,4.1584,4.1097,4.0984,4.0861,4.085,4.076,4.0745,4.0831,4.061,4.061,4.0622,4.0413,4.1091,4.1706,4.1706,4.1894,4.2158,4.2459,4.2522,4.2622,4.2924,4.2974,4.2974,4.2974,4.275,4.2413,4.2098,4.1846,4.1492,4.1184,4.1184,4.1184,4.1184,4.1184,4.1184,4.1184,4.1184,4.0595,3.9297,3.9308,3.8704,3.7374,3.7374,3.7132,3.6746,3.5746,3.4757,3.6884,4.1103,4.4907,5.0452,5.1792,5.1882,5.22,5.1696,5.0843,5.0104,4.9244,4.8773,4.9312,4.9974,5.0436,5.0436,5.059,5.0697,5.0697,5.0697,5.0882,5.139,5.1348,5.1245,5.1053,5.1053,5.075,4.9998,4.9864,4.988,5.0071,5.0071,5.0144,5.0304,5.0247,5.0159,5.0216,4.9702,4.9269,4.9015,4.8521,4.8192,4.8115,4.8115,4.7758,4.7004,4.7207,4.7309,4.7207,4.6447,4.6166,4.6166,4.6166,4.6062,4.5869,4.6358,4.6373,4.6077,4.5312,4.5038,4.4748,4.3259,4.2985,4.2985,4.1683,4.1498,4.1584,4.1084,4.0984,4.0883,4.0694,4.0504,4.0389,4.0173,4.0083,4.0019,3.9873,4.0551,4.1178,4.1317,4.1342,4.1467,4.1869,4.1944,4.2133,4.2685,4.2773,4.2823,4.2961,4.2638,4.2312,4.2098,4.1745,4.139,4.1184,4.1184,4.1184,4.1184,4.1184,4.1184,4.1184,4.1057,4.0479,3.9297,3.919,3.8466,3.7374,3.7374,3.7253,3.7,3.6002,3.5005,3.3016,3.4309,3.6512,4.5128,4.7242,4.8101,5.1503,5.1696,5.0843,5.0104,4.9244,4.862,4.8666,4.9251,4.9743,4.9743,5.0282,5.0697,5.0697,5.0697,5.0713,5.0743,5.0555,5.035,5.035,5.035,5.0262,4.9998,5.0144,5.0289,5.0304,5.0304,5.0304,5.0289,5.0509,5.0437,4.9998,4.9702,4.9208,4.8341,4.8297,4.804,4.7598,4.7598,4.7106,4.6196,4.7004,4.7309,4.7309,4.7207,4.7207,4.7207,4.7207,4.6638,4.5689,4.4776,4.3829,4.3081,4.2971,4.2985,4.2985,4.2778,4.345,4.3843,4.1881,4.1967,4.2514,4.1597,4.1097,4.0883,4.0883,4.0478,4.0083,4.007,3.9878,3.9835,4.0362,4.0513,4.0714,4.1241,4.1342,4.1354,4.1379,4.1379,4.1568,4.212,4.2195,4.2384,4.2911,4.2437,4.2098,4.211,4.1528,4.1184,4.1184,4.1184,4.1184,4.1184,4.1184,4.1184,4.1184,4.0583,4.0001,3.9308,3.8704,3.7987,3.7374,3.7374,3.6878,3.6002,3.5005,3.3882,3.2702,3.3778,3.5224,4.124,4.4822,4.7115,4.7865,4.9611,5.0843,5.0104,4.9244,4.862,4.862,4.8835,4.9004,4.9004,4.9204,4.9358,4.9358,4.9358,4.9528,4.9989,4.995,4.9935,4.9935,4.9935,4.968,4.898,4.8849,4.8764,4.8592,4.8592,4.8592,4.8592,4.8693,4.8607,4.8275,4.826,4.835,4.8282,4.8282,4.825,4.8185,4.7437,4.674,4.6107,4.5598,4.5341,4.5341,4.467,4.4392,4.4392,4.4392,4.4191,4.3909,4.4205,4.4485,4.4748,4.4748,4.513,4.5598,4.4946,4.4577,4.4031,4.2709,4.2052,4.1782,4.1411,4.1211,4.1211,4.1211,4.0896,4.0478,4.0173,3.989,3.9747,3.9948,3.9986,4.0049,4.0249,4.0287,4.0388,4.0752,4.0814,4.1003,4.1555,4.163,4.1706,4.1894,4.1384,4.1066,4.1066,4.051,4.0306,4.0643,4.0679,4.0824,4.116,4.1184,4.1184,4.1184,4.0942,4.0351,3.9297,3.906,3.8466,3.7374,3.6746,3.6247,3.5869,3.4258,3.3253,3.0793,0.0,3.2694,3.7075,4.0387,4.3155,4.5554,4.7754,4.9538,5.0173,4.963,4.8934,4.8604,4.862,4.862,4.862,4.862,4.862,4.862,4.862,4.8789,4.9266,4.9328,4.9328,4.9328,4.9328,4.9044,4.8248,4.8049,4.788,4.7624,4.7624,4.7624,4.7709,4.7624,4.7553,4.7381,4.7639,4.7865,4.804,4.8128,4.8287,4.8445,4.7643,4.683,4.6196,4.5298,4.467,4.4219,4.3545,4.3545,4.3721,4.345,4.3545,4.3815,4.3829,4.4392,4.5235,4.4485,4.4946,4.5613,4.4577,4.4111,4.364,4.2985,4.2333,4.1769,4.1769,4.1597,4.1311,4.1311,4.101,4.0694,4.0185,3.989,3.9697,3.9697,3.9697,3.9697,3.9697,3.9697,3.981,4.0174,4.0237,4.0425,4.0978,4.1065,4.1128,4.1317,4.0814,4.0488,4.0488,3.994,3.9741,4.0102,4.0126,4.0282,4.0631,4.0824,4.092,4.092,4.0846,4.0351,3.9297,3.8812,3.7965,3.6878,3.6247,3.55,3.4871,3.3505,3.2629,0.0,0.0,0.0,3.2574,3.3739,3.6096,4.455,4.6042,4.6645,5.0205,5.0285,4.9488,4.8754,4.862,4.862,4.862,4.862,4.862,4.862,4.862,4.862,4.862,4.862,4.862,4.862,4.862,4.8453,4.8049,4.7964,4.788,4.7624,4.7624,4.7709,4.7964,4.7709,4.7624,4.7624,4.788,4.788,4.7624,4.788,4.8133,4.8286,4.8034,4.7407,4.6491,4.6107,4.5298,4.4219,4.4219,4.4854,4.5598,4.4577,4.4776,4.5403,4.345,4.3355,4.3937,4.2065,4.2052,4.2695,4.1782,4.215,4.2875,4.2889,4.2792,4.2792,4.2792,4.2052,4.1311,4.1311,4.0909,4.0491,4.0185,3.9878,3.9697,3.9697,3.9697,3.9697,3.9697,3.9697,3.9697,3.9697,3.9697,3.9873,4.0413,4.0488,4.0689,4.1229,4.0765,4.0439,4.0439,3.9892,3.9561,3.9585,3.9585,3.9585,3.9609,4.009,4.0379,4.0379,4.0287,3.9861,3.9274,3.7703,3.6481,3.5746,3.5746,3.4757,3.2883,3.2883,3.2001,2.7117,0.0,0.0,0.0,0.0,0.0,3.6202,3.8937,4.2129,4.565,4.5783,4.6103,4.9001,4.9015,4.862,4.862,4.862,4.862,4.862,4.862,4.862,4.862,4.862,4.862,4.862,4.862,4.8537,4.8202,4.8049,4.788,4.7624,4.7467,4.7396,4.7467,4.7381,4.7467,4.7624,4.7624,4.7794,4.788,4.7794,4.7794,4.8034,4.6959,4.6314,4.6107,4.4442,4.3531,4.3163,4.3163,4.3355,4.3545,4.2528,4.2346,4.2431,4.1868,4.2333,4.3259,4.3368,4.4111,4.5038,4.5522,4.5326,4.484,4.4111,4.3355,4.2598,4.1967,4.1498,4.1211,4.1097,4.1458,4.1644,4.0593,4.0185,3.9981,3.9981,3.989,3.9697,3.9697,3.9697,3.9697,3.9697,3.9697,3.9747,3.9898,3.9923,3.9973,4.0124,3.9823,3.9519,3.9296,3.8977,3.8814,3.8996,3.9032,3.92,3.9585,3.9741,3.9826,3.9826,4.0218,3.9544,3.7646,3.7515,3.6215,3.3757,3.3757,3.3505,3.2873,3.2128,3.1497,0.0,0.0,0.0,0.0,0.0,0.0,3.525,3.8012,4.1406,4.6896,4.7557,4.7845,5.0073,4.9773,4.9069,4.8758,4.8419,4.8296,4.8573,4.862,4.862,4.862,4.862,4.862,4.862,4.862,4.8537,4.8286,4.8202,4.8049,4.7794,4.7639,4.7553,4.7553,4.7553,4.7639,4.7794,4.788,4.7964,4.7964,4.7964,4.7964,4.7964,4.6974,4.6594,4.6682,4.5312,4.467,4.467,4.4191,4.3815,4.3368,4.2806,4.2806,4.3081,4.2722,4.3177,4.4111,4.4205,4.4961,4.5779,4.5508,4.5038,4.447,4.3829,4.2985,4.2248,4.2431,4.2248,4.1868,4.1743,4.1743,4.1558,4.0883,4.0389,4.007,4.007,3.989,3.9697,3.9697,3.9697,3.9697,3.9697,3.9697,3.9697,3.9697,3.9697,3.9697,3.9697,3.9478,3.927,3.905,3.8619,3.8437,3.8657,3.8574,3.8599,3.8912,3.9152,3.9272,3.9272,3.9555,3.8871,3.7071,3.6622,3.5026,3.2256,3.2756,3.2629,3.2256,3.1625,3.1377,0.0,0.0,0.0,0.0,2.7506,0.0,3.747,3.9272,4.1492,4.9039,5.0393,5.0106,4.9736,4.8962,4.8111,4.7447,4.7091,4.7253,4.8235,4.8389,4.8389,4.8389,4.8389,4.8389,4.8389,4.8389,4.8306,4.814,4.8072,4.7989,4.7752,4.7737,4.7782,4.7858,4.7858,4.7888,4.7964,4.8133,4.8133,4.7964,4.8133,4.8133,4.7964,4.7709,4.7553,4.7538,4.7279,4.7121,4.7019,4.6166,4.5221,4.4499,4.4312,4.4869,4.5508,4.4485,4.4762,4.5508,4.4591,4.4961,4.5494,4.3815,4.3259,4.3259,4.3163,4.2514,4.2164,4.3654,4.364,4.3081,4.2695,4.194,4.1172,4.0984,4.0478,4.0185,4.0185,3.9878,3.9697,3.9697,3.9697,3.9697,3.9697,3.9697,3.9697,3.9697,3.9697,3.9697,3.9697,3.9478,3.9374,3.9258,3.8736,3.8409,3.8409,3.8092,3.7986,3.7986,3.8455,3.8731,3.8731,3.854,3.7862,3.6659,3.5082,3.3273,3.1313,3.2355,3.2374,3.1377,3.1377,3.1377,0.0,0.0,0.0,0.0,2.9142,0.0,3.0523,3.0871,3.2063,3.5916,3.6177,3.6588,3.9204,3.9097,3.851,3.8382,4.0639,4.3526,4.6575,4.6988,4.6988,4.6988,4.6988,4.6988,4.6988,4.6988,4.6988,4.6908,4.6747,4.66,4.6355,4.6273,4.6613,4.719,4.7023,4.7265,4.7964,4.7794,4.7794,4.7964,4.7794,4.7709,4.7624,4.7467,4.7381,4.7294,4.6447,4.6062,4.6062,4.5869,4.5689,4.5417,4.4591,4.4406,4.4485,4.345,4.3735,4.4577,4.4406,4.4961,4.5869,4.627,4.6447,4.627,4.5508,4.5038,4.467,4.345,4.4097,4.467,4.2248,4.2625,4.3273,4.1584,4.0808,4.0402,4.0402,3.9993,3.9697,3.9697,3.9697,3.9697,3.9697,3.9697,3.9697,3.9697,3.9697,3.9697,3.9697,3.9685,3.9478,3.8945,3.8841,3.8526,3.8092,3.7986,3.7986,3.7986,3.8082,3.8142,3.8142,3.7391,3.6207,3.4697,3.2598,3.1313,3.0901,3.2213,3.2374,3.1377,3.1377,3.1377,0.0,0.0,0.0,2.9296,2.9088,0.0,0.0,3.1393,3.2431,3.6177,3.6515,3.6671,3.8419,3.7748,3.6963,3.6963,3.9387,4.1261,4.1314,4.4359,4.6603,4.6603,4.6603,4.6603,4.6603,4.6603,4.6603,4.6603,4.6524,4.6364,4.6284,4.6123,4.629,4.6641,4.6395,4.6561,4.6978,4.6895,4.6963,4.728,4.7196,4.7207,4.7467,4.7396,4.7309,4.7309,4.6741,4.6535,4.6535,4.6535,4.6535,4.655,4.5987,4.5808,4.5718,4.5235,4.5326,4.5808,4.5808,4.6181,4.6535,4.6535,4.6535,4.6358,4.5326,4.5403,4.5508,4.4017,4.467,4.5326,4.3273,4.3177,4.3177,4.1696,4.0909,4.0504,4.0504,4.0096,3.9697,3.9697,3.9697,3.9697,3.9697,3.9697,3.9697,3.9697,3.9697,3.9697,3.9697,3.9697,3.9478,3.905,3.8945,3.8631,3.8198,3.8092,3.7986,3.7986,3.7986,3.7761,3.7108,3.6351,3.4895,3.284,3.2211,3.156,3.0791,3.1977,3.2185,3.1377,3.1377,3.1377,0.0,0.0,0.0,0.0,0.0,2.9586,0.0,0.0,0.0,3.7592,3.8069,3.7841,3.7641,3.6518,3.5535,3.5385,3.74,3.8001,3.4948,4.0103,4.4239,4.4487,4.5557,4.6035,4.5434,4.5187,4.5372,4.6157,4.548,4.5372,4.6157,4.6061,4.6027,4.6165,4.594,4.5855,4.5976,4.5895,4.607,4.6319,4.6319,4.6611,4.7115,4.7115,4.7189,4.7309,4.7309,4.7309,4.7309,4.7309,4.7309,4.7309,4.7309,4.7309,4.7309,4.7106,4.7121,4.7309,4.7106,4.7121,4.7207,4.6344,4.6062,4.5973,4.5144,4.5417,4.5883,4.4854,4.5326,4.5793,4.4392,4.3545,4.2806,4.1597,4.0909,4.0605,4.0605,4.0198,3.9788,3.9788,3.9685,3.9697,3.9697,3.9697,3.9697,3.9697,3.9697,3.9697,3.9697,3.9697,3.9594,3.9374,3.905,3.8736,3.8409,3.8198,3.7986,3.7986,3.7761,3.7215,3.6231,3.5245,3.3618,3.112,3.2007,3.1915,3.0552,3.1492,3.1775,3.1377,3.1377,3.1377,0.0,0.0,0.0,3.0749,3.0241,2.9729,2.9356,0.0,2.9253,2.8426,0.0,2.7875,2.71,0.0,0.0,2.5622,2.8508,3.0452,2.9407,3.2772,3.5796,3.699,4.1716,4.3766,4.1117,3.9957,4.0924,4.4526,4.1463,4.1001,4.4618,4.4803,4.5095,4.568,4.5318,4.5384,4.5976,4.5552,4.5417,4.5492,4.5492,4.5768,4.6426,4.6426,4.6756,4.7309,4.7309,4.7309,4.7309,4.7309,4.7309,4.7309,4.7309,4.7309,4.7207,4.6255,4.6535,4.7207,4.6255,4.6535,4.7309,4.7207,4.7121,4.7121,4.7019,4.7019,4.6916,4.5883,4.6344,4.6462,4.3735,4.3545,4.3654,4.1782,4.1097,4.0883,4.0883,4.0478,4.0083,4.0083,3.989,3.9697,3.9697,3.9697,3.9697,3.9697,3.9697,3.9697,3.9697,3.9697,3.9594,3.9374,3.905,3.8736,3.8409,3.8198,3.7986,3.7986,3.7,3.634,3.6243,3.3877,3.1632,2.9742,3.0165,3.0158,2.9709,3.0208,3.077,3.1377,3.1377,3.1377,0.0,0.0,3.3738,3.0552,3.1183,3.1864,2.8912,2.824,2.8047,2.7529,0.0,0.0,0.0,0.0,0.0,0.0,2.7411,2.8868,2.6869,3.1191,3.4579,3.4726,3.6394,3.7918,3.8715,3.8789,4.0442,4.4355,4.0993,4.0467,4.4356,4.4511,4.4557,4.4849,4.4476,4.4391,4.4664,4.4328,4.4347,4.4721,4.4721,4.508,4.5723,4.5723,4.5873,4.6157,4.6561,4.6741,4.677,4.7145,4.7309,4.7309,4.7309,4.7309,4.7207,4.6829,4.6931,4.7207,4.6829,4.6931,4.7309,4.7309,4.7309,4.7207,4.6638,4.6829,4.7106,4.6062,4.6535,4.6829,4.5038,4.4854,4.467,4.2612,4.194,4.1644,4.1084,4.0593,4.0287,4.0185,3.9981,3.989,3.9697,3.9697,3.9697,3.9697,3.9697,3.9697,3.9697,3.9697,3.9594,3.9374,3.9154,3.8945,3.8409,3.8303,3.8198,3.7986,3.622,3.4902,3.4235,3.2778,3.1295,2.9804,3.0201,3.0172,2.9571,2.9745,3.013,3.0699,3.0928,3.1157,3.4211,3.4436,3.5028,3.0159,3.0812,3.1863,2.8735,2.7911,2.7836,2.8014,2.7677,0.0,0.0,0.0,2.5247,0.0,0.0,2.7339,2.4985,2.875,3.1692,3.1517,3.1616,3.2944,3.6169,3.5933,3.759,4.2447,3.9274,3.9305,4.437,4.4419,4.4358,4.4358,4.4065,4.3847,4.3754,4.3503,4.3663,4.4047,4.4047,4.4392,4.5035,4.5035,4.5125,4.5319,4.5813,4.6037,4.6082,4.6561,4.686,4.704,4.704,4.7145,4.7309,4.7309,4.7309,4.7309,4.7309,4.7309,4.7309,4.7309,4.7309,4.7121,4.6447,4.6726,4.7121,4.6447,4.6726,4.7106,4.6062,4.5598,4.4946,4.3163,4.2417,4.1855,4.1185,4.0694,4.0402,4.0287,4.0083,3.9878,3.9697,3.9697,3.9697,3.9697,3.9697,3.9697,3.9697,3.9697,3.9594,3.9478,3.9258,3.8945,3.8526,3.8409,3.8092,3.7548,3.5553,3.3899,3.2799,3.2238,3.1315,2.9922,3.0372,3.0173,2.9415,2.9415,2.9617,3.0039,3.0442,3.0837,3.8692,3.5714,3.3755,2.9959,2.8546,2.8111,2.8021,2.8014,2.8042,2.8154,2.7522,2.6916,2.6899,0.0,0.0,0.0,0.0,0.0,0.0,2.3325,2.3973,2.5322,2.7872,3.0399,3.2643,2.9329,3.014,3.7745,3.45,3.5845,4.4185,4.4572,4.4572,4.4572,4.4358,4.4205,4.3988,4.3769,4.3611,4.3359,4.3359,4.3703,4.4347,4.4347,4.4691,4.5289,4.5319,4.5334,4.5334,4.5349,4.5753,4.6352,4.6352,4.6741,4.7309,4.7309,4.7309,4.7309,4.7309,4.7309,4.7309,4.7309,4.7309,4.7309,4.7294,4.7309,4.7309,4.7294,4.7309,4.7106,4.6062,4.5052,4.4125,4.3081,4.2052,4.1311,4.1311,4.0909,4.0504,4.0504,4.0096,3.9697,3.9697,3.9697,3.9697,3.9697,3.9697,3.9697,3.9697,3.9697,3.9697,3.9697,3.9166,3.8841,3.8736,3.8303,3.7536,3.634,3.5113,3.3899,3.2799,3.2685,3.1767,2.9922,2.9922,2.9577,2.9003,2.9003,2.9204,2.9599,3.002,3.0433,4.0485,4.0763,4.0277,3.3523,3.3523,3.391,2.9094,2.7579,2.7262,2.7433,2.673,2.5984,2.5586,0.0,0.0,0.0,0.0,0.0,0.0,2.3144,2.3288,2.3762,2.6757,2.8865,2.9058,2.9983,3.27,3.7759,3.6413,3.767,4.2971,4.3679,4.391,4.391,4.4205,4.4281,4.4205,4.3832,4.369,4.3596,4.3344,4.3449,4.3658,4.3658,4.3778,4.4018,4.4466,4.4646,4.4676,4.511,4.5424,4.5648,4.5648,4.5783,4.6082,4.698,4.7309,4.7309,4.7309,4.7309,4.7309,4.7309,4.7309,4.7309,4.7309,4.7309,4.7309,4.7309,4.7309,4.7207,4.6916,4.6077,4.5038,4.4017,4.2985,4.215,4.1398,4.101,4.0694,4.0504,4.0198,3.9878,3.9697,3.9697,3.9697,3.9697,3.9697,3.9697,3.9697,3.9697,3.9697,3.9697,3.9478,3.927,3.8841,3.8303,3.7441,3.6231,3.5124,3.3899,3.2799,3.1903,3.0986,2.9922,2.9922,2.9568,2.8984,2.8984,2.9048,2.9186,2.9324,2.9755,4.3308,4.3935,4.3605,3.698,3.7137,3.7311,3.1329,2.9541,2.8841,2.7683,2.6586,2.5651,2.5151,2.4629,0.0,0.0,0.0,0.0,0.0,2.3217,2.3151,2.3119,2.5171,2.6742,2.7179,2.8201,3.0749,3.5486,3.5379,3.6726,4.0405,4.2273,4.3217,4.3217,4.3804,4.4006,4.393,4.3944,4.3832,4.369,4.3518,4.3423,4.3329,4.3329,4.3329,4.3359,4.3778,4.3958,4.4003,4.4421,4.4736,4.4945,4.4945,4.5095,4.5424,4.6546,4.7115,4.7309,4.7309,4.7309,4.7309,4.7309,4.7309,4.7309,4.7309,4.7309,4.7309,4.7309,4.7309,4.7207,4.6829,4.6255,4.5508,4.4577,4.3545,4.2598,4.1954,4.1385,4.0795,4.0504,4.0287,3.9981,3.9788,3.9697,3.9697,3.9697,3.9697,3.9697,3.9697,3.9697,3.9697,3.9697,3.9478,3.9166,3.8526,3.7761,3.7215,3.6893,3.5333,3.4112,3.3346,3.2123,3.0986,2.9922,2.9922,2.9568,2.8984,2.8984,2.8984,2.8984,2.8984,2.9269]},{"header":{"parameterUnit":"m.s-1","parameterCategory":1,"la1":30.6,"la2":29.2853,"lo1":-89.7004,"lo2":-87.6739,"dy":0.0162,"dx":0.0183,"nx":112,"ny":82,"refTime":"2023-04-05T06:00:00:Z","depth":0,"parameterNumber":3,"parameterNumberName":"V-component_of_WINDS"},"data":[0.0,0.0,0.0,0.0,0.0,0.0,0.0,0.0,0.0,0.0,0.0,0.0,0.0,0.0,0.0,0.0,0.0,0.0,0.0,0.0,0.0,0.0,0.0,0.0,0.0,0.0,0.0,0.0,0.0,0.0,0.0,0.0,0.0,0.0,0.0,0.0,0.0,0.0,0.0,0.0,0.0,0.0,0.0,0.0,0.0,0.0,0.0,0.0,0.0,0.0,0.0,0.0,0.0,0.0,0.0,0.0,0.0,0.0,0.0,0.0,0.0,0.0,0.0,0.0,0.0,0.0,0.0,0.0,0.0,0.0,0.0,0.0,0.0,0.0,0.0,0.0,0.0,0.0,0.0,0.0,0.0,0.0,0.0,0.0,0.0,0.0,0.0,0.0,0.0,0.0,3.4581,3.5908,3.6275,3.6358,3.6358,3.6358,3.6358,3.6358,0.0,0.0,0.0,0.0,0.0,0.0,0.0,0.0,0.0,0.0,0.0,0.0,0.0,0.0,0.0,0.0,0.0,0.0,0.0,0.0,0.0,0.0,0.0,0.0,0.0,0.0,0.0,0.0,0.0,0.0,0.0,0.0,0.0,0.0,0.0,0.0,0.0,0.0,0.0,0.0,0.0,0.0,0.0,0.0,0.0,0.0,0.0,0.0,0.0,0.0,0.0,0.0,0.0,0.0,0.0,0.0,0.0,0.0,0.0,0.0,0.0,0.0,0.0,0.0,0.0,0.0,0.0,0.0,0.0,0.0,0.0,0.0,0.0,0.0,0.0,0.0,0.0,0.0,0.0,0.0,0.0,0.0,0.0,0.0,0.0,0.0,0.0,0.0,0.0,0.0,0.0,0.0,0.0,0.0,0.0,0.0,0.0,0.0,0.0,0.0,0.0,0.0,0.0,0.0,3.354,3.6061,3.6358,3.6358,3.6358,3.6358,3.6358,3.6358,0.0,0.0,0.0,0.0,0.0,0.0,0.0,0.0,0.0,0.0,0.0,0.0,0.0,0.0,0.0,0.0,0.0,0.0,0.0,0.0,0.0,0.0,0.0,0.0,0.0,0.0,0.0,0.0,0.0,0.0,0.0,0.0,0.0,0.0,0.0,0.0,0.0,0.0,0.0,0.0,0.0,0.0,0.0,0.0,0.0,0.0,0.0,0.0,0.0,0.0,0.0,0.0,0.0,0.0,0.0,0.0,0.0,0.0,0.0,0.0,0.0,0.0,0.0,0.0,0.0,0.0,0.0,0.0,0.0,0.0,0.0,0.0,0.0,0.0,0.0,0.0,0.0,0.0,0.0,0.0,0.0,0.0,0.0,0.0,0.0,0.0,0.0,0.0,0.0,0.0,0.0,0.0,0.0,0.0,0.0,0.0,0.0,0.0,0.0,0.0,0.0,0.0,0.0,3.3055,3.4154,3.6156,3.6358,3.6358,3.6358,3.6358,3.6358,3.6358,3.6358,0.0,0.0,0.0,0.0,0.0,0.0,0.0,0.0,0.0,0.0,0.0,0.0,0.0,0.0,0.0,0.0,0.0,0.0,0.0,0.0,0.0,0.0,0.0,0.0,0.0,0.0,0.0,0.0,0.0,0.0,0.0,0.0,0.0,0.0,0.0,0.0,0.0,0.0,0.0,0.0,0.0,0.0,0.0,0.0,0.0,0.0,0.0,0.0,0.0,0.0,0.0,0.0,0.0,0.0,0.0,0.0,0.0,0.0,0.0,0.0,0.0,0.0,0.0,0.0,0.0,0.0,0.0,0.0,0.0,0.0,0.0,0.0,0.0,0.0,0.0,0.0,0.0,0.0,0.0,0.0,0.0,0.0,0.0,0.0,0.0,0.0,0.0,0.0,0.0,0.0,0.0,0.0,0.0,0.0,0.0,0.0,0.0,0.0,0.0,0.0,0.0,0.0,3.4471,3.5271,3.6263,3.6358,3.6358,3.6358,3.6358,3.6358,3.6358,3.6358,0.0,0.0,0.0,0.0,0.0,0.0,0.0,0.0,0.0,0.0,0.0,0.0,0.0,0.0,0.0,0.0,0.0,0.0,0.0,0.0,0.0,0.0,0.0,0.0,0.0,0.0,0.0,0.0,0.0,0.0,0.0,0.0,0.0,0.0,0.0,0.0,0.0,0.0,0.0,0.0,0.0,0.0,0.0,0.0,0.0,0.0,0.0,0.0,0.0,0.0,0.0,0.0,0.0,0.0,0.0,0.0,0.0,0.0,0.0,0.0,0.0,0.0,0.0,0.0,0.0,0.0,0.0,0.0,0.0,0.0,0.0,0.0,0.0,0.0,0.0,0.0,0.0,0.0,0.0,0.0,0.0,0.0,0.0,0.0,0.0,0.0,0.0,0.0,0.0,0.0,0.0,0.0,0.0,0.0,0.0,0.0,0.0,0.0,0.0,0.0,0.0,0.0,3.4642,3.6263,3.6358,3.6358,3.6358,3.6358,3.6358,3.6358,3.6358,3.6358,0.0,0.0,0.0,0.0,0.0,0.0,0.0,0.0,0.0,0.0,0.0,0.0,0.0,0.0,0.0,0.0,0.0,0.0,0.0,0.0,0.0,0.0,0.0,0.0,0.0,0.0,0.0,0.0,0.0,0.0,0.0,0.0,0.0,0.0,0.0,0.0,0.0,0.0,0.0,0.0,0.0,0.0,0.0,0.0,0.0,0.0,0.0,0.0,0.0,0.0,0.0,0.0,0.0,0.0,0.0,0.0,0.0,0.0,0.0,0.0,0.0,0.0,0.0,0.0,0.0,0.0,0.0,0.0,0.0,0.0,0.0,0.0,0.0,0.0,0.0,0.0,0.0,0.0,0.0,0.0,0.0,0.0,0.0,0.0,0.0,0.0,0.0,0.0,0.0,0.0,0.0,0.0,0.0,0.0,0.0,0.0,0.0,0.0,0.0,0.0,0.0,0.0,3.4374,3.5475,0.0,3.6358,3.6358,3.6358,3.6358,3.6358,3.6358,0.0,0.0,0.0,0.0,0.0,0.0,0.0,0.0,0.0,0.0,0.0,0.0,0.0,0.0,0.0,0.0,0.0,0.0,0.0,0.0,0.0,0.0,0.0,0.0,0.0,0.0,0.0,0.0,0.0,0.0,0.0,0.0,0.0,0.0,0.0,0.0,0.0,0.0,0.0,0.0,0.0,0.0,0.0,0.0,0.0,0.0,0.0,0.0,0.0,0.0,0.0,0.0,0.0,0.0,0.0,0.0,0.0,0.0,0.0,0.0,0.0,0.0,0.0,0.0,0.0,0.0,0.0,0.0,0.0,0.0,0.0,0.0,0.0,0.0,0.0,0.0,0.0,0.0,0.0,0.0,0.0,0.0,0.0,0.0,0.0,0.0,0.0,0.0,0.0,0.0,0.0,0.0,0.0,0.0,0.0,0.0,0.0,0.0,0.0,0.0,0.0,0.0,3.4375,3.5083,3.588,0.0,3.6885,3.6885,3.6885,3.6722,3.6621,3.6621,0.0,0.0,0.0,0.0,0.0,0.0,0.0,0.0,0.0,0.0,0.0,0.0,0.0,0.0,0.0,0.0,0.0,0.0,0.0,0.0,0.0,0.0,0.0,0.0,0.0,0.0,0.0,0.0,0.0,0.0,0.0,0.0,0.0,0.0,0.0,0.0,0.0,0.0,0.0,0.0,0.0,0.0,0.0,0.0,0.0,0.0,0.0,0.0,0.0,0.0,0.0,0.0,0.0,0.0,0.0,0.0,0.0,0.0,0.0,0.0,0.0,0.0,0.0,0.0,0.0,0.0,0.0,0.0,0.0,0.0,0.0,0.0,0.0,0.0,0.0,0.0,0.0,0.0,0.0,0.0,0.0,0.0,0.0,0.0,0.0,0.0,0.0,0.0,0.0,0.0,0.0,0.0,0.0,0.0,0.0,0.0,0.0,0.0,0.0,0.0,0.0,0.0,3.5636,3.6969,3.8002,3.8002,3.8002,3.8002,3.8002,3.75,3.7199,0.0,0.0,0.0,0.0,0.0,0.0,0.0,0.0,0.0,0.0,0.0,0.0,0.0,0.0,0.0,0.0,0.0,0.0,0.0,0.0,0.0,0.0,0.0,0.0,0.0,0.0,0.0,0.0,0.0,0.0,0.0,0.0,0.0,0.0,0.0,0.0,0.0,0.0,0.0,0.0,0.0,0.0,0.0,0.0,0.0,0.0,0.0,0.0,0.0,0.0,0.0,0.0,0.0,0.0,0.0,0.0,0.0,0.0,0.0,0.0,0.0,0.0,0.0,0.0,0.0,0.0,0.0,0.0,0.0,0.0,0.0,0.0,0.0,0.0,0.0,0.0,0.0,0.0,0.0,0.0,0.0,0.0,0.0,0.0,0.0,0.0,0.0,0.0,0.0,0.0,0.0,0.0,0.0,0.0,0.0,0.0,0.0,0.0,0.0,0.0,0.0,0.0,0.0,3.6981,3.7593,3.8002,3.8002,3.8002,3.8002,3.8002,3.7864,3.7764,3.7764,0.0,0.0,0.0,0.0,0.0,0.0,0.0,0.0,0.0,0.0,0.0,0.0,0.0,0.0,0.0,0.0,0.0,0.0,0.0,0.0,0.0,0.0,0.0,0.0,0.0,0.0,0.0,0.0,0.0,0.0,0.0,0.0,0.0,0.0,0.0,0.0,0.0,0.0,0.0,0.0,0.0,0.0,0.0,0.0,0.0,0.0,0.0,0.0,0.0,0.0,0.0,0.0,0.0,0.0,0.0,0.0,0.0,0.0,0.0,0.0,0.0,0.0,0.0,0.0,0.0,0.0,0.0,0.0,0.0,0.0,0.0,0.0,0.0,0.0,0.0,0.0,0.0,0.0,0.0,0.0,0.0,0.0,0.0,0.0,0.0,0.0,0.0,0.0,0.0,0.0,0.0,0.0,0.0,0.0,0.0,0.0,0.0,0.0,0.0,0.0,0.0,0.0,3.8264,3.8466,3.868,3.868,3.868,3.868,3.868,3.8479,3.8354,3.8354,0.0,0.0,0.0,0.0,0.0,0.0,0.0,0.0,0.0,0.0,0.0,0.0,0.0,0.0,0.0,0.0,0.0,0.0,0.0,0.0,0.0,0.0,0.0,0.0,0.0,0.0,0.0,0.0,0.0,0.0,0.0,0.0,0.0,0.0,0.0,0.0,0.0,0.0,0.0,0.0,0.0,0.0,0.0,0.0,0.0,0.0,0.0,0.0,0.0,0.0,0.0,0.0,0.0,0.0,0.0,0.0,0.0,0.0,0.0,0.0,0.0,0.0,0.0,0.0,0.0,0.0,0.0,0.0,0.0,0.0,0.0,0.0,0.0,0.0,0.0,0.0,0.0,0.0,0.0,0.0,0.0,0.0,0.0,0.0,0.0,0.0,0.0,0.0,0.0,0.0,0.0,0.0,0.0,0.0,0.0,0.0,0.0,0.0,0.0,0.0,0.0,0.0,3.9374,3.9581,3.9697,3.9697,3.9697,3.9697,3.9697,3.9233,3.8944,3.8944,0.0,0.0,0.0,0.0,0.0,0.0,0.0,0.0,0.0,0.0,0.0,0.0,0.0,0.0,0.0,0.0,0.0,0.0,0.0,0.0,0.0,0.0,0.0,0.0,0.0,0.0,0.0,0.0,0.0,0.0,0.0,0.0,0.0,0.0,0.0,0.0,0.0,0.0,0.0,0.0,0.0,0.0,0.0,0.0,0.0,0.0,0.0,0.0,0.0,0.0,0.0,0.0,0.0,0.0,0.0,0.0,0.0,0.0,0.0,0.0,1.8718,1.7698,0.0,0.0,0.0,0.0,0.0,0.0,0.0,0.0,0.0,0.0,0.0,0.0,0.0,0.0,0.0,0.0,0.0,0.0,0.0,0.0,0.0,0.0,0.0,0.0,0.0,0.0,0.0,0.0,0.0,0.0,0.0,0.0,0.0,0.0,0.0,0.0,0.0,0.0,0.0,0.0,3.9581,3.9697,3.9697,3.9697,3.9697,3.9697,3.9697,3.9584,3.9521,3.9521,3.8994,0.0,0.0,0.0,0.0,0.0,0.0,0.0,0.0,0.0,0.0,0.0,0.0,0.0,0.0,0.0,0.0,0.0,0.0,0.0,0.0,0.0,0.0,0.0,0.0,0.0,0.0,0.0,0.0,0.0,0.0,0.0,0.0,0.0,0.0,0.0,0.0,0.0,0.0,0.0,0.0,0.0,0.0,0.0,0.0,0.0,0.0,0.0,0.0,0.0,0.0,0.0,0.0,0.0,0.0,0.0,0.0,0.0,0.0,0.0,2.0541,1.9222,0.0,0.0,0.0,0.0,0.0,0.0,0.0,0.0,0.0,0.0,0.0,0.0,0.0,0.0,0.0,0.0,0.0,0.0,0.0,0.0,0.0,0.0,0.0,0.0,0.0,0.0,0.0,0.0,0.0,0.0,0.0,0.0,0.0,0.0,0.0,0.0,0.0,0.0,0.0,0.0,3.9697,3.9697,3.9697,3.9697,3.9697,3.9697,3.9697,3.9697,3.9697,3.9697,3.9421,0.0,0.0,0.0,0.0,0.0,0.0,0.0,0.0,0.0,0.0,0.0,0.0,0.0,0.0,0.0,0.0,0.0,0.0,0.0,0.0,0.0,0.0,0.0,0.0,0.0,0.0,0.0,0.0,0.0,0.0,0.0,0.0,0.0,0.0,0.0,0.0,0.0,0.0,0.0,0.0,0.0,0.0,0.0,0.0,0.0,0.0,0.0,0.0,0.0,0.0,0.0,0.0,0.0,2.3086,2.3309,2.3992,2.4536,2.4701,2.4465,2.3304,2.1786,2.0127,1.996,0.0,0.0,0.0,0.0,0.0,0.0,0.0,0.0,0.0,0.0,0.0,0.0,0.0,0.0,0.0,0.0,0.0,0.0,0.0,0.0,0.0,0.0,3.0108,3.4923,3.7713,3.8816,3.6499,0.0,0.0,0.0,0.0,0.0,0.0,0.0,0.0,0.0,0.0,0.0,3.9685,3.9697,3.9697,3.9697,3.9697,3.9697,3.9697,3.9697,3.9697,3.9697,3.9697,3.9697,0.0,0.0,0.0,0.0,0.0,0.0,0.0,0.0,0.0,0.0,0.0,0.0,0.0,0.0,0.0,0.0,0.0,0.0,0.0,0.0,0.0,0.0,0.0,0.0,0.0,0.0,0.0,0.0,0.0,0.0,0.0,0.0,1.9469,1.8024,0.0,0.0,0.0,0.0,0.0,0.0,0.0,0.0,0.0,0.0,0.0,0.0,0.0,2.1778,2.2079,2.2092,2.238,2.2978,2.4545,2.547,2.6113,2.7959,2.8809,2.8799,2.8623,0.0,2.2803,2.1005,0.0,0.0,0.0,0.0,0.0,0.0,0.0,0.0,0.0,0.0,0.0,0.0,0.0,0.0,0.0,0.0,0.0,0.0,0.0,0.0,0.0,0.0,3.0925,3.7505,3.9362,3.9581,3.9154,3.8933,3.8736,3.8631,3.8736,3.8841,0.0,0.0,0.0,0.0,0.0,0.0,3.9697,3.9697,3.9697,3.9697,3.9697,3.9697,3.9697,3.9697,3.9697,3.9697,3.9697,3.9697,3.9697,3.9697,0.0,0.0,0.0,0.0,0.0,0.0,0.0,0.0,0.0,0.0,0.0,0.0,0.0,0.0,0.0,0.0,0.0,0.0,0.0,0.0,0.0,0.0,0.0,0.0,0.0,0.0,0.0,0.0,0.0,1.783,1.9012,1.6843,1.785,1.8033,0.0,0.0,0.0,0.0,0.0,0.0,0.0,0.0,0.0,2.0604,2.3063,2.4275,2.4217,2.5556,2.6371,2.6657,2.7529,2.8423,2.9596,3.0569,3.1482,3.2277,3.2277,3.1246,2.9401,2.6543,2.5293,2.5168,0.0,0.0,0.0,0.0,2.3764,2.3639,2.3308,2.3225,2.3215,2.3234,0.0,0.0,0.0,0.0,0.0,0.0,0.0,2.2402,2.7767,3.0652,3.3396,3.8517,3.9697,3.9697,3.9697,3.9478,3.927,3.927,3.927,3.9374,3.9478,3.9374,0.0,0.0,0.0,3.9581,3.9685,3.9697,3.9697,3.9697,3.9697,3.9697,3.9697,3.9697,3.9697,3.9697,3.9697,3.9697,3.9697,3.9697,3.9697,0.0,0.0,0.0,0.0,0.0,0.0,0.0,0.0,0.0,0.0,0.0,0.0,0.0,0.0,0.0,0.0,0.0,0.0,0.0,0.0,0.0,0.0,0.0,0.0,0.0,0.0,0.0,0.0,1.8276,1.92,1.6412,1.8104,1.8834,0.0,0.0,0.0,0.0,0.0,0.0,2.0196,2.2715,2.4009,2.3564,2.649,2.7925,2.7592,2.924,3.0268,3.0701,3.0378,3.1045,3.2574,3.2574,3.3322,3.4447,3.4447,3.4558,3.4593,3.1216,2.9602,2.9235,2.8642,2.8429,2.8514,2.8267,2.8142,2.8163,2.7995,2.7964,2.7909,2.7723,2.7689,2.7776,2.7962,0.0,0.0,0.0,0.0,2.567,2.9367,3.2366,3.5289,3.8893,3.9697,3.9697,3.9697,3.9697,3.9697,3.9697,3.9697,3.9697,3.9697,3.9697,0.0,3.9697,3.9697,3.9697,3.9697,3.9697,3.9697,3.9697,3.9697,3.9697,3.9697,3.9697,3.9697,3.9697,3.9697,3.9697,3.9697,3.9697,3.9697,3.9697,0.0,0.0,0.0,0.0,0.0,0.0,0.0,0.0,0.0,0.0,0.0,0.0,0.0,0.0,0.0,0.0,0.0,0.0,0.0,0.0,0.0,0.0,0.0,0.0,0.0,0.0,0.0,0.0,0.0,1.8825,2.0589,0.0,0.0,0.0,0.0,2.2092,2.2417,2.2371,2.2318,2.5695,2.7489,2.7212,3.0906,3.282,3.2787,3.1867,3.2043,3.3552,3.2464,3.2717,3.4292,3.4292,3.4314,3.4447,3.4447,3.5002,3.5819,3.2328,3.0965,3.0822,2.7882,2.6564,2.6399,2.6576,2.6462,2.6166,2.7194,2.7536,2.7536,2.7502,2.7601,2.7776,2.7962,2.7763,0.0,0.0,2.8245,2.9189,3.3039,3.4354,3.5499,3.8906,3.9697,3.9697,3.9697,3.9697,3.9697,3.9697,3.9697,3.9697,3.9697,0.0,3.9697,3.9697,3.9697,3.9697,3.9697,3.9697,3.9697,3.9697,3.9697,3.9697,3.9697,3.9697,3.9697,3.9697,3.9697,3.9697,3.9697,3.9697,3.9697,3.9697,3.9672,0.0,0.0,0.0,0.0,0.0,0.0,0.0,0.0,0.0,0.0,0.0,0.0,0.0,0.0,0.0,0.0,0.0,0.0,0.0,0.0,0.0,0.0,0.0,0.0,0.0,0.0,0.0,0.0,2.0967,2.2792,0.0,2.1427,2.1154,2.1792,2.3307,2.4865,2.6053,2.67,2.8875,3.0412,3.1159,3.202,3.2801,3.3561,3.2691,3.2486,3.3092,3.2653,3.3177,3.4447,3.5223,3.6002,3.6762,3.6762,3.6989,3.7252,3.5981,3.549,3.5432,3.4379,3.3873,3.3835,3.3919,3.3873,3.3712,3.4123,3.4234,3.4234,3.4234,3.4334,3.397,3.1867,3.1167,3.0722,2.9071,3.0242,3.239,3.3909,3.6118,3.8216,3.9408,3.9697,3.9697,3.9697,3.9697,3.9697,3.9697,3.9697,3.9697,3.9697,3.9697,3.9697,3.9697,3.9697,3.9697,3.9697,3.9697,3.9697,3.9697,3.9697,3.9697,3.9697,3.9697,3.9697,3.9697,3.9697,3.9697,3.9697,3.9697,3.9697,3.9697,3.9697,3.9697,0.0,0.0,0.0,0.0,0.0,0.0,0.0,0.0,0.0,0.0,0.0,0.0,0.0,0.0,0.0,0.0,0.0,0.0,0.0,0.0,0.0,0.0,0.0,0.0,0.0,2.1776,2.3157,2.2223,2.4057,2.4993,2.3981,2.3979,2.4822,2.6653,2.8391,2.9742,3.0425,3.2006,3.3127,3.3994,3.402,3.4383,3.5262,3.4294,3.4123,3.4458,3.4123,3.4458,3.5663,3.6437,3.7215,3.7986,3.7986,3.7986,3.7986,3.7986,3.7986,3.7986,3.7536,3.7429,3.7429,3.7429,3.7429,3.7441,3.7868,3.7986,3.7986,3.7986,3.7986,3.7589,3.5373,3.4726,3.4402,3.2388,3.3698,3.5729,3.592,3.7829,3.9697,3.9697,3.9697,3.9697,3.9697,3.9697,3.9697,3.9697,3.9697,3.9697,3.9697,3.9697,3.9697,3.9697,3.9697,3.9697,3.9697,3.9697,3.9697,3.9697,3.9697,3.9697,3.9697,3.9697,3.9697,3.9697,3.9697,3.9697,3.9697,3.9697,3.9697,3.9697,3.9788,4.0083,4.0453,0.0,0.0,0.0,0.0,0.0,0.0,0.0,0.0,0.0,0.0,0.0,0.0,0.0,0.0,0.0,0.0,0.0,0.0,0.0,0.0,0.0,0.0,0.0,2.0489,2.3224,2.4526,2.2664,2.4229,2.5914,2.7081,2.7599,2.9116,3.2246,3.2966,3.3241,3.3347,3.4774,3.5592,3.5698,3.7157,3.7986,3.7986,3.6773,3.6785,3.7974,3.6785,3.6785,3.7986,3.7998,3.7998,3.801,3.8022,3.8034,3.8034,3.8034,3.8034,3.7928,3.6688,3.6243,3.6243,3.6243,3.6243,3.6449,3.7655,3.7986,3.7986,3.7974,3.7974,3.7974,3.7974,3.8198,3.8409,3.8409,3.8841,3.9258,3.9258,3.9478,3.9697,3.9697,3.9697,3.9697,3.9697,3.9697,3.9697,3.9697,3.9697,3.9697,3.9697,3.9697,3.9697,3.9697,3.9697,0.0,3.9697,3.9697,3.9697,3.9697,3.9697,3.9697,3.9697,3.9697,3.9697,3.9697,3.9697,3.9697,3.9697,3.9697,3.9697,3.9788,4.0083,4.0743,4.207,0.0,0.0,0.0,0.0,0.0,0.0,0.0,0.0,0.0,0.0,0.0,0.0,0.0,0.0,0.0,0.0,0.0,0.0,0.0,0.0,0.0,2.1968,2.3865,2.3897,2.4813,2.5809,2.6575,2.7357,2.8416,2.9549,3.0068,3.1463,3.3921,3.4641,3.5244,3.6109,3.607,3.6456,3.7322,3.6918,3.7108,3.7986,3.6773,3.6352,3.6677,3.6352,3.634,3.6688,3.7964,3.8587,3.8611,3.8996,3.9164,3.9164,3.9164,3.9164,3.908,3.7953,3.7548,3.7548,3.7548,3.7548,3.7548,3.8092,3.8303,3.8303,3.8514,3.8619,3.8619,3.8619,3.8631,3.8736,3.8736,3.8945,3.9258,3.9258,3.9478,3.9697,3.9697,3.9697,3.9697,3.9697,3.9697,3.9697,3.9697,3.9697,3.9697,3.9697,3.9697,3.9697,3.9697,3.9697,3.9697,3.9697,3.9697,3.9697,3.9697,3.9697,3.9697,3.9697,3.9697,3.9697,3.9697,3.9697,3.9788,3.9981,3.9981,4.0465,4.1319,4.1406,4.1985,0.0,0.0,0.0,0.0,0.0,0.0,0.0,0.0,0.0,0.0,0.0,0.0,0.0,0.0,0.0,0.0,0.0,0.0,0.0,0.0,0.0,0.0,2.335,2.5733,2.6637,2.6958,2.7441,2.8437,2.8935,2.9829,3.1518,3.2157,3.3397,3.5654,3.6356,3.6861,3.7517,3.7169,3.7322,3.7986,3.7322,3.7322,3.7974,3.7322,3.7118,3.734,3.734,3.7457,3.7668,3.8656,3.9152,3.9164,3.9477,3.9609,3.9609,3.9609,3.9609,3.9549,0.0,0.0,0.0,0.0,3.8755,3.8659,3.8982,3.9077,3.9077,3.9291,3.941,3.9517,3.9517,3.9623,3.9729,3.9729,3.9954,4.0165,4.0165,4.027,4.0388,4.0388,4.0212,4.0036,4.0036,3.986,3.9697,3.9697,3.9697,0.0,3.9697,3.9697,3.9697,3.9697,3.9697,3.9697,3.9697,3.9697,3.9697,3.9697,3.9697,3.9697,3.9697,3.9697,0.0,0.0,0.0,3.9981,4.0287,4.0655,0.0,0.0,0.0,4.3313,4.4456,4.4456,0.0,0.0,4.4576,4.4351,0.0,0.0,0.0,0.0,0.0,0.0,0.0,0.0,0.0,0.0,0.0,0.0,0.0,0.0,0.0,0.0,2.4277,2.6578,2.8661,2.9033,2.9043,2.8994,2.9486,3.0721,3.2857,3.3724,3.4984,3.7172,3.7709,3.7986,3.7986,3.7986,0.0,0.0,0.0,3.801,3.807,3.807,3.8359,3.8912,3.8912,3.9152,3.9609,3.9669,3.9693,3.9693,3.9753,3.9789,3.9789,3.9789,3.9789,3.9777,3.9657,3.9609,3.9609,3.9904,3.9806,3.9597,3.9916,0.0,0.0,4.0123,4.0342,4.056,4.056,4.0777,4.0898,4.0898,4.1114,4.1342,4.1342,4.1342,4.1342,4.1342,4.0965,4.0614,4.0614,4.0224,3.9885,3.9885,3.9885,3.9885,3.9885,3.9772,3.9697,3.9697,3.9697,3.9697,3.9697,3.9697,3.9697,3.9697,3.9697,0.0,3.9788,3.9788,3.989,4.0185,4.0275,4.0478,4.0694,4.1716,4.2377,4.2778,4.3707,4.4734,4.5973,4.5973,4.6447,4.7207,4.5207,4.4734,0.0,0.0,0.0,0.0,0.0,0.0,0.0,0.0,0.0,0.0,0.0,0.0,0.0,0.0,0.0,2.256,2.5738,2.8554,2.9346,2.9736,2.9824,2.9482,3.0691,3.2038,3.3454,3.4896,3.6298,3.7724,3.7926,3.7986,3.7986,3.7986,3.7986,3.7986,3.7986,3.8202,3.8647,3.8659,3.8924,3.9453,3.9453,0.0,3.9621,4.0054,4.0246,4.027,4.0691,4.0872,4.0872,4.0872,4.0872,4.08,3.9934,3.9609,3.9609,3.9708,3.9597,3.972,4.0269,4.0379,4.0476,4.091,4.1114,4.1126,4.1126,4.1222,0.0,4.1234,4.1234,4.1342,4.1342,4.1342,4.1342,4.1342,4.1254,4.1178,4.1178,4.1091,4.1015,4.1015,4.1015,4.1015,4.1015,4.0287,3.9697,3.9697,3.9697,3.9697,3.9697,3.9697,3.9697,3.9697,3.989,3.9981,3.9981,4.0198,4.0402,4.0402,4.1345,4.2025,4.2025,4.3163,4.4284,4.513,4.5312,4.5973,4.7019,4.7019,4.7121,4.7309,4.6829,4.6741,0.0,0.0,0.0,0.0,0.0,0.0,0.0,0.0,0.0,0.0,0.0,1.9445,0.0,0.0,2.3832,2.4262,2.6988,2.9292,2.9853,3.0814,3.1264,3.0802,3.1707,3.3088,3.4854,3.5745,3.6677,3.788,3.7986,3.7986,3.7986,3.7986,3.8106,3.8395,3.8395,3.8659,3.9212,3.9212,3.9477,4.0006,4.0006,4.0138,4.0403,4.0667,4.0787,4.0812,4.1064,4.1184,4.1184,4.1184,4.1184,4.1124,4.0809,4.0604,4.0604,4.094,4.0952,4.0952,4.1398,4.1509,4.1509,4.1828,4.2048,4.2158,4.2158,4.2158,4.2158,4.2158,4.2158,4.2158,4.2158,4.2158,4.2158,4.2158,4.1944,4.1743,4.1743,4.153,4.1342,4.1342,4.1342,4.1342,4.1342,4.0877,4.0425,4.0149,4.0111,4.0011,3.9722,3.9697,3.9697,3.9697,3.9981,4.007,4.007,4.0491,4.1101,4.1865,4.2677,4.3487,4.4346,4.543,4.6289,4.6751,4.7313,4.7629,4.7803,4.7803,4.771,4.7467,4.7467,4.7467,0.0,0.0,0.0,0.0,0.0,0.0,0.0,0.0,2.0411,2.1826,2.2241,2.2391,2.2263,2.4013,2.5609,2.6116,2.8081,2.9652,3.0198,3.166,3.2643,3.2462,3.2991,3.4123,3.6013,3.6449,3.7,3.7974,3.7986,3.8034,3.8142,3.8142,3.8395,3.896,3.8972,3.9224,3.9753,3.9765,4.0018,4.0547,4.0547,4.0775,4.1184,4.1184,4.1184,4.1184,4.1184,4.1184,4.1184,4.1184,4.1184,4.1184,4.1492,4.1606,4.1732,4.2187,4.2312,4.2098,4.2413,4.2525,4.2525,4.2525,4.275,4.2974,4.2974,4.2974,4.2974,4.2974,4.2974,4.2974,4.2974,4.2974,4.2974,4.2974,4.2635,4.2308,4.2308,4.1969,4.1656,4.1656,4.1656,4.1656,4.1656,4.1656,4.143,4.0777,4.0676,4.0513,4.0074,4.0115,4.0115,4.0115,4.04,4.0606,4.0709,4.1016,4.1997,4.3525,4.4062,4.4969,4.6526,4.7521,4.8112,4.8112,4.8877,4.9,4.8476,4.8476,4.828,4.8015,4.8015,4.788,1.5268,1.6515,1.8504,1.8957,2.0449,2.1742,0.0,0.0,2.1609,2.1356,2.1844,2.2272,2.2318,2.4547,2.6464,2.6884,2.8713,3.0227,3.0752,3.1872,3.3109,3.4036,3.5079,3.5904,3.6122,3.7215,3.7868,3.7986,3.7986,3.8202,3.8695,3.8731,3.8972,3.9501,3.9525,3.9777,4.0306,4.0306,4.0571,4.11,4.11,4.1124,4.1184,4.1184,4.1184,4.1184,4.1184,4.1184,4.1184,4.1184,4.1184,4.1184,4.1492,4.1732,4.2098,4.2098,4.2098,4.2098,4.2413,4.2525,4.2525,4.2862,4.2974,4.2974,4.2974,4.2974,4.2974,4.2974,4.2974,4.2974,4.2974,4.2974,4.2974,4.2974,4.2924,4.2886,4.2886,4.2836,4.2798,4.2798,4.2798,4.2798,4.2798,4.3008,4.2751,4.1404,4.1254,4.1229,4.1166,4.138,4.1592,4.1592,4.199,4.2397,4.2619,4.2723,4.324,4.436,4.5342,4.6373,4.7615,4.8588,4.9164,4.9164,4.9254,4.9224,4.9164,4.9164,4.9284,4.9387,4.9387,4.8841,1.9942,2.0179,2.042,0.0,2.2649,2.3183,2.2662,2.2962,2.366,2.4693,2.5516,2.6078,2.611,2.7403,2.8473,0.0,2.9661,3.076,3.1757,3.2352,3.3346,3.5234,3.5893,3.646,3.7215,3.7655,3.8118,3.8443,3.8467,3.8707,3.9248,3.9272,3.9525,4.0054,4.0066,4.0319,4.0848,4.086,4.0968,4.1184,4.1184,4.1184,4.1184,4.1184,4.1184,4.1184,4.1184,4.1184,4.1184,4.139,4.139,4.1504,4.1948,4.2187,4.2312,4.2312,4.2425,4.265,4.275,4.275,4.2862,4.2974,4.2974,4.2974,4.2974,4.2974,4.2974,4.2974,4.2974,4.2974,4.2974,4.2974,4.2974,4.2974,4.2974,4.2974,4.2974,4.2974,4.2974,4.2974,4.2974,4.2974,4.2974,4.3184,4.3241,4.2566,4.2442,4.2125,4.1902,4.1983,4.2076,4.2275,4.2473,4.2683,4.3023,4.3592,4.4516,4.5951,4.7078,4.834,4.9695,5.0206,5.0406,5.0406,5.0406,5.0304,5.0095,5.0095,5.0064,5.0041,5.0041,4.9839,2.1669,0.0,0.0,2.353,2.4371,2.4674,2.4592,2.4902,2.5784,2.7391,2.8314,2.8928,2.8885,2.9623,3.0161,3.0119,3.0616,3.1421,3.2571,3.3243,3.4357,3.6013,3.6587,3.7223,3.8107,3.8214,3.8443,3.8996,3.9032,3.926,3.9789,3.9826,4.0066,4.0595,4.0619,4.08,4.1184,4.1184,4.1184,4.1184,4.1184,4.1184,4.1184,4.1184,4.1184,4.1184,4.1184,4.1184,4.1184,4.139,4.1492,4.1606,4.2061,4.24,4.2525,4.2525,4.275,4.2974,4.2974,4.2974,4.2974,4.2974,4.2974,4.2974,4.2974,4.2974,4.2974,4.2974,4.2974,4.2974,4.2974,4.2974,4.2974,4.2974,4.2974,4.2974,4.2974,4.2974,4.2974,4.2974,4.3085,4.3085,4.3085,4.3406,4.3628,4.3628,4.3502,4.3321,4.2708,4.2751,4.2857,4.315,4.315,4.3375,4.3887,4.4676,4.5843,4.7688,4.8528,4.9641,5.1105,5.1214,5.1214,5.1214,5.1308,5.1161,5.0864,5.097,5.0985,5.0839,5.0839,5.0958,0.0,0.0,2.0934,2.3529,2.5524,2.6909,2.7087,2.7308,2.7568,2.7768,2.8632,2.9259,2.9268,3.0103,3.0879,3.0889,3.1903,3.2685,3.2685,3.4681,3.6122,3.6231,3.7687,3.8683,3.8791,3.8791,3.902,3.9549,3.9585,3.9813,4.0343,4.0379,4.0619,4.1148,4.116,4.1172,4.1184,4.1184,4.1184,4.1184,4.1184,4.1184,4.1184,4.1184,4.1184,4.1184,4.1184,4.1184,4.1184,4.1184,4.139,4.1606,4.1594,4.1948,4.2525,4.2525,4.275,4.2974,4.2974,4.2974,4.2974,4.2974,4.2974,4.2974,4.2974,4.2974,4.2974,4.2974,4.2974,4.2974,4.2974,4.2974,4.2974,4.2974,4.2974,4.2974,4.2974,4.2974,4.2974,4.2974,4.3184,4.3394,4.3394,4.3861,4.4313,4.4313,4.4505,4.4479,4.3958,4.4055,4.437,4.4574,4.467,4.5088,4.6215,4.6319,4.7238,4.9386,4.9596,5.0095,5.112,5.1214,5.1214,5.1214,5.1494,5.1572,5.1557,5.1849,5.2018,5.2245,5.2245,5.2351,0.0,0.0,2.3382,2.5487,2.6578,2.7114,2.7141,2.7713,2.8251,2.8362,2.808,2.7631,2.736,2.821,2.8742,2.8105,3.0035,3.2008,3.3561,3.4157,3.5255,3.7649,3.8095,0.0,3.9714,3.9549,3.9561,4.009,4.0126,4.0367,4.0896,4.092,4.1004,4.1172,4.1184,4.1184,4.1184,4.1184,4.1184,4.1184,4.1184,4.1184,4.1184,4.1184,4.1184,4.1184,4.1184,4.1184,4.1184,4.139,4.1618,4.1972,4.2187,4.2413,4.2862,4.2862,4.2862,4.2974,4.2974,4.2974,4.2974,4.2974,4.2974,4.2974,4.2974,4.2974,4.2974,4.2974,4.2974,4.2974,4.2974,4.2974,4.2974,4.2974,4.2974,4.2974,4.2974,4.3184,4.3295,4.3295,4.353,4.3764,4.3764,4.4094,4.4313,4.4518,4.4626,4.4626,4.4409,4.4518,4.4938,4.5755,4.5861,4.6269,4.7383,4.8094,4.8809,4.9513,5.022,5.0822,5.1229,5.1214,5.1308,5.1494,5.1587,5.1757,5.2033,5.2139,5.2322,5.2608,5.2608,5.2608,0.0,2.274,2.439,2.6513,2.7087,2.7251,2.7545,2.8022,2.8551,2.8787,2.7837,2.6798,2.6333,2.6428,2.642,2.5718,2.7773,3.034,3.3193,3.3715,3.5113,3.8644,3.8871,3.9196,0.0,0.0,4.0306,4.0643,4.0679,4.0824,4.1172,4.1184,4.1184,4.1184,4.1184,4.1184,4.1184,4.1184,4.1184,4.1184,4.1184,4.1184,4.1184,4.1184,4.1184,4.1184,4.1184,4.1184,4.1184,4.139,4.1745,4.2098,4.2312,4.2638,4.2974,4.2974,4.2974,4.2974,4.2974,4.2974,4.2974,4.2974,4.2974,4.2974,4.2974,4.2974,4.2974,4.2974,4.2974,4.2974,4.2974,4.2974,4.2974,4.2974,4.2974,4.2974,4.2974,4.3184,4.3295,4.3394,4.3653,4.3899,4.3997,4.4313,4.4518,4.4626,4.4722,4.4722,4.4722,4.5033,4.5449,4.5755,4.6465,4.728,4.7979,4.9007,4.9722,5.0124,5.0822,5.1214,5.1214,5.1308,5.1401,5.1587,5.1757,5.2033,5.2306,5.2397,5.2503,5.2713,5.2713,5.2713,2.2215,2.3435,2.4081,2.66,2.7205,2.7444,2.8223,2.8416,2.8498,2.8773,2.7558,2.6426,0.0,0.0,2.4195,2.4054,2.5691,2.82,3.1737,3.3629,3.5828,0.0,0.0,0.0,0.0,0.0,0.0,4.1184,4.1184,4.1184,4.1184,4.1184,4.1184,4.1184,4.1184,4.1184,4.1184,4.1184,4.1184,4.1184,4.1184,4.1184,4.1184,4.1184,4.1184,4.1184,4.1184,4.1184,4.1184,4.1184,4.1643,4.2098,4.2098,4.2425,4.2974,4.2974,4.2974,4.2974,4.2974,4.2974,4.2974,4.2974,4.2974,4.2974,4.2974,4.2974,4.2974,4.2974,4.2974,4.2974,4.2974,4.2974,4.2974,4.2974,4.2974,4.2974,4.2974,4.2974,4.3085,4.3394,4.3751,4.3997,4.4313,4.4518,4.4722,4.4722,4.4722,4.4722,4.4722,4.5648,4.5966,4.4938,4.6764,4.808,4.808,4.9106,5.0124,5.112,5.1214,5.1214,5.1214,5.1494,5.1587,5.168,5.2033,5.2306,5.2306,5.2608,5.2713,5.2713,5.2713,5.2713,2.318,2.4867,2.6399,2.7022,2.7636,2.8141,2.8342,2.8627,2.8434,2.7022,2.5466,2.3699,2.1885,2.3082,2.4617,2.5168,2.887,0.0,3.538,3.6771,0.0,3.999,0.0,4.0992,4.0992,4.11,0.0,4.1184,4.1184,4.1184,4.1184,4.1184,4.1184,4.1184,4.1184,4.1184,4.1184,4.1184,4.1184,4.1184,4.1184,4.1184,4.1184,4.1184,4.1184,4.1184,4.139,4.1492,4.1504,4.1757,4.2098,4.2413,4.2413,4.2638,4.2974,4.2974,4.2974,4.2974,4.2974,4.2974,4.2974,4.2974,4.2974,4.2974,4.2974,4.2974,4.2974,4.2974,4.2974,4.2974,4.2974,4.2974,4.2974,4.2974,4.2974,4.3085,4.3295,4.353,4.3776,4.3971,4.43,4.4518,4.4626,4.4626,4.4722,4.4722,4.4722,4.4722,4.4722,4.5648,4.6269,4.5966,4.7892,4.9205,4.9205,5.022,5.0917,5.1214,5.1214,5.1308,5.1494,5.1587,5.1757,5.2124,5.2215,5.2397,5.2608,5.2713,5.2713,5.2713,5.2713,5.2713,2.4886,2.624,2.726,2.7618,2.8058,2.8214,2.749,2.7499,2.7077,2.506,2.3208,2.1539,2.0182,2.1474,2.2859,2.3461,0.0,0.0,3.4735,3.6518,3.826,0.0,4.1004,0.0,4.1184,4.1184,4.1184,4.1184,4.1184,4.1184,4.1184,4.1184,4.1184,4.1184,4.1184,4.1184,4.1184,4.1184,4.1184,4.1184,4.1287,4.139,4.139,4.1528,4.1643,4.1643,4.1745,4.1846,4.1846,4.1984,4.2199,4.2525,4.2525,4.275,4.2974,4.2974,4.2974,4.2974,4.2974,4.2974,4.2974,4.2974,4.2974,4.2974,4.2974,4.2974,4.2974,4.2974,4.2974,4.2974,4.2974,4.2974,4.2974,4.2974,4.3085,4.3184,4.3394,4.364,4.401,4.4203,4.4518,4.4722,4.4722,4.4722,4.4722,4.4722,4.4722,4.483,4.5342,4.5966,4.6583,4.7074,4.8596,4.9625,4.9625,5.0618,5.1214,5.1214,5.1308,5.1401,5.1587,5.1757,5.2033,5.2291,5.2412,5.2518,5.2713,5.2713,5.2713,5.2713,5.2713,5.2713,2.66,2.726,2.7508,2.8223,2.8434,2.8031,2.6344,2.5913,2.5252,2.3015,2.1108,1.9778,1.9648,2.0065,2.069,2.1433,2.5268,2.9351,3.3027,3.5359,3.7781,4.0781,4.1184,4.1184,4.1184,4.1184,4.1184,4.1184,4.1184,4.1184,4.1184,4.1184,4.1184,4.1184,4.1184,4.1184,4.1184,4.1299,4.1299,4.1287,4.1504,4.172,4.172,4.1984,4.211,4.211,4.2098,4.2098,4.2211,4.2211,4.2312,4.2525,4.2525,4.275,4.2974,4.2974,4.2974,4.2974,4.2974,4.2974,4.2974,4.2974,4.2974,4.2974,4.2974,4.2974,4.2974,4.2974,4.2974,4.2974,4.2974,4.2974,4.2974,4.3085,4.3184,4.3394,4.3504,4.3764,4.4107,4.4313,4.4518,4.4722,4.4722,4.4722,4.4722,4.4722,4.483,4.5342,4.6478,4.6569,4.6985,4.7878,4.9106,4.9722,4.9625,5.0618,5.1214,5.1214,5.1494,5.168,5.1665,5.2124,5.2306,5.2306,5.2608,5.2713,5.2713,5.2713,5.2713,5.2713,5.2713,5.2713,2.7401,2.79,2.8223,2.8361,2.8645,2.837,2.6408,2.5711,0.0,2.1309,1.997,1.9155,1.8237,1.9488,2.1748,2.5283,2.9236,3.316,3.6928,3.9028,4.0542,0.0,4.1184,4.1184,4.1184,4.1184,0.0,4.1184,4.1184,4.1184,4.1184,4.1184,4.1184,4.1184,4.1184,4.1184,4.1184,4.139,4.1492,4.1492,4.1859,4.1984,4.1984,4.2098,4.211,4.211,4.2312,4.2413,4.2413,4.275,4.2862,4.2862,4.2862,4.2974,4.2974,4.2974,4.2974,4.2974,4.2974,4.2974,4.2974,4.2974,4.2974,4.2974,4.2974,4.2974,4.2974,4.2974,4.2974,4.2974,4.2974,4.2974,4.3085,4.3295,4.3394,4.3504,4.4081,4.4409,4.4518,4.4626,4.4626,4.4722,4.4722,4.4722,4.4722,4.4722,4.5449,4.6465,4.7573,4.7675,4.7777,4.7979,4.9805,5.0522,4.9722,5.0618,5.1308,5.1494,5.1572,5.1757,5.2124,5.2306,5.2397,5.2608,5.2713,5.2713,5.2713,5.2713,5.2713,5.2713,5.2713,5.2713,2.7928,2.821,2.8443,2.8654,2.8847,2.8177,2.5096,0.0,0.0,1.9224,1.8183,1.7807,1.7515,1.9165,2.1361,2.3744,2.9,3.3476,3.5477,3.8911,4.1184,4.1184,4.1184,4.1184,4.1184,4.1184,4.1184,4.1184,4.1184,4.1184,4.1184,4.1184,4.1184,4.1184,4.1184,4.1287,4.139,4.1492,4.172,4.1846,4.2199,4.2312,4.2312,4.2538,4.2538,4.2538,4.275,4.275,4.275,4.2974,4.2974,4.2974,4.2974,4.2974,4.2974,4.2974,4.2974,4.2974,4.2974,4.2974,4.2974,4.2974,4.2974,4.2974,4.2974,4.2974,4.2974,4.2974,4.2974,4.2974,4.2974,4.3085,4.3295,4.3394,4.3628,4.3971,4.4409,4.4626,4.4722,4.4722,4.4722,4.4722,4.4722,4.4722,4.4722,4.4722,4.5648,4.6777,4.7878,4.8482,4.9092,4.9596,5.011,5.0427,5.0427,5.1011,5.1494,5.1587,5.1849,5.2033,5.2291,5.2412,5.2608,5.2713,5.2713,5.2713,5.2713,5.2713,5.2713,5.2713,5.2713,5.2951,2.8086,2.8462,2.859,2.8911,2.8984,2.793,2.3877,2.2868,2.1667,1.7788,1.6757,1.6711,1.7217,1.8712,2.0207,2.1588,2.6938,3.1605,3.3332,3.7362,4.0308,4.1112,4.1184,0.0,4.1184,4.1184,4.1184,4.1184,4.1184,4.1184,4.1184,4.1184,4.1184,4.1287,4.1287,4.139,4.172,4.172,4.196,4.2211,4.2413,4.2638,4.2638,4.2862,4.2974,4.2974,4.2974,4.2974,4.2974,4.2974,4.2974,4.2974,4.2974,4.2974,4.2974,4.2974,4.2974,4.2974,4.2974,4.2974,4.2974,4.2974,4.2974,4.2974,4.2974,4.2974,4.2974,4.2974,4.2974,4.2974,4.3085,4.3184,4.3406,4.3517,4.3971,4.4409,4.4626,4.4722,4.4722,4.4722,4.4722,4.4722,4.4722,4.4722,4.483,4.5033,4.6058,4.7177,4.8181,4.9303,5.022,5.112,5.0427,5.0316,5.112,5.1494,5.1587,5.168,5.2033,5.2306,5.2397,5.2608,5.2713,5.2713,5.2713,5.2713,5.2713,5.2713,5.2713,5.2713,5.2877,5.3346,2.7774,2.8654,2.8938,2.8975,2.8984,2.793,2.3877,0.0,2.1337,1.7868,1.6878,1.6796,1.7503,1.7801,1.8899,2.1919,2.3967,2.7252,3.3215,3.5397,3.7663,4.0769,0.0,0.0,4.1184,4.1184,4.1184,4.1184,4.1184,4.1184,4.1184,4.1184,4.1287,4.1606,4.1606,4.1732,4.2098,4.2312,4.2413,4.2525,4.275,4.2974,4.2986,4.2974,4.2974,4.2974,4.2974,4.2974,4.2974,4.2974,4.2974,4.2974,4.2974,4.2974,4.2974,4.2974,4.2974,4.2974,4.2974,4.2974,4.2974,4.2974,4.2974,4.2974,4.2974,4.2974,4.2974,4.2974,4.2974,4.3085,4.3283,4.3184,4.3197,4.3666,4.4313,4.4626,4.4722,4.4722,4.4722,4.4722,4.4722,4.4722,4.4722,4.4722,4.5033,4.6072,4.7177,4.8282,4.9317,5.0412,5.112,5.1214,5.112,5.112,5.1214,5.1494,5.168,5.1987,5.2139,5.2397,5.2624,5.2713,5.2713,5.2713,5.2713,5.2713,5.2713,5.2713,5.2713,5.2713,5.3505,5.3907,2.8095,2.8865,2.8984,2.8984,2.8251,2.6738,2.3657,0.0,2.0411,1.7576,1.6917,1.6912,1.7345,1.752,1.8136,1.9734,2.2196,2.4902,2.7699,3.023,3.3192,3.7061,3.7522,3.8496,4.0992,4.1184,4.1184,4.1184,4.1184,4.1287,4.139,4.139,4.1492,4.1606,4.1846,4.2086,4.2312,4.2413,4.2638,4.275,4.2974,4.2974,4.2974,4.2974,4.2974,4.2974,4.2974,4.2974,4.2974,4.2974,4.2974,4.2974,4.2974,4.2974,4.2974,4.2974,4.2974,4.2974,4.2974,4.2974,4.2974,4.2974,4.2974,4.2974,4.2974,4.2974,4.2974,4.2974,4.2974,4.2974,4.3073,4.3321,4.3666,4.4107,4.4422,4.4722,4.4722,4.4722,4.4722,4.4722,4.4722,4.4722,4.4722,4.5248,4.5861,4.6374,4.7892,4.9106,4.9513,5.0522,5.1214,5.1214,5.1214,5.1214,5.1214,5.1602,5.1895,5.2002,5.2337,5.2608,5.2713,5.2713,5.2713,5.2713,5.2713,5.2713,5.2713,5.2713,5.2713,5.2713,5.3577,5.4301,2.7581,2.8618,2.8984,2.8984,2.7774,2.5949,2.3501,0.0,1.9833,1.7332,1.6807,1.6899,1.7148,1.7279,1.7598,1.8363,2.0491,2.2569,2.404,2.6195,2.9179,3.3226,3.3684,3.5313,3.9354,4.0631,4.1184,4.1184,4.1287,4.139,4.1606,4.172,4.1834,4.1834,4.2086,4.2312,4.2638,4.2638,4.275,4.2974,4.2974,4.2974,4.2974,4.2974,4.2974,4.2974,4.2974,4.2974,4.2974,4.2974,4.2974,4.2974,4.2974,4.2974,4.2974,4.2974,4.2974,4.2974,4.2974,4.2974,4.2974,4.2974,4.2974,4.2974,4.2974,4.2974,4.2974,4.2974,4.3098,4.3209,4.3197,4.364,4.4216,4.4313,4.4518,4.4722,4.4722,4.4722,4.4722,4.4722,4.4722,4.4722,4.4722,4.5648,4.6478,4.6881,4.8396,4.9722,5.0013,5.0728,5.1214,5.1214,5.1214,5.1214,5.1214,5.171,5.2002,5.2002,5.2443,5.2713,5.2713,5.2713,5.2713,5.2713,5.2713,5.2713,5.2713,5.2713,5.2713,5.2713,5.3836,5.5117,2.5839,2.7774,2.8984,2.8984,2.7774,2.594,2.3474,2.1676,1.9752,1.7171,1.6578,1.6701,1.7101,1.7178,1.7436,1.8426,1.8652,1.9992,2.3829,2.4395,2.5953,2.9929,3.042,3.2008,3.5854,3.9223,4.1184,4.1184,4.1504,4.1606,4.1606,4.2174,4.2525,4.2525,4.2525,4.2638,4.2974,4.2974,4.2974,4.2974,4.2974,4.2974,4.2974,4.2974,4.2974,4.2974,4.2974,4.2974,4.2974,4.2974,4.2974,4.2974,4.2974,4.2974,4.2974,4.2974,4.2974,4.2974,4.2974,4.2974,4.2974,4.2974,4.2974,4.2974,4.2974,4.2974,4.2974,4.2974,4.3444,4.3776,4.3517,4.4055,4.4626,4.4313,4.4518,4.4722,4.4722,4.4722,4.4722,4.4722,4.4722,4.4722,4.4722,4.5648,4.6777,4.7777,4.8894,5.0013,5.1026,5.1214,5.1214,5.1214,5.1214,5.1214,5.1214,5.171,5.2002,5.2002,5.2443,5.2713,5.2713,5.2713,5.2713,5.2713,5.2713,5.2713,5.2713,5.2713,5.2713,5.2713,5.4485,5.6409,2.3886,2.4876,2.5262,2.5262,2.3752,2.1989,2.103,1.9461,1.7868,1.6633,1.6819,1.7241,1.7373,1.7552,1.791,1.8475,1.8249,1.8514,2.0078,2.22,2.5123,2.9184,3.4474,3.8227,3.9462,4.0595,4.1287,4.1504,4.1606,4.1834,4.2174,4.2413,4.2525,4.2525,4.275,4.2862,4.2974,4.2974,4.2974,4.2974,4.2974,4.2974,4.2974,4.2974,4.2974,4.2974,4.2974,4.2974,4.2974,4.2974,4.2974,4.2974,4.2974,4.2974,4.2974,4.2974,4.2974,4.2974,4.2974,4.2974,4.2974,4.2974,4.2974,4.2974,4.2974,4.2974,4.3085,4.3184,4.3406,4.364,4.3764,4.4094,4.4422,4.4313,4.4518,4.4722,4.4722,4.4722,4.4722,4.4722,4.5342,4.5662,4.483,4.6867,4.8496,4.808,4.9499,5.0822,5.112,5.1214,5.1214,5.1214,5.1214,5.1214,5.1214,5.171,5.2002,5.2002,5.2443,5.2713,5.2713,5.2713,5.2713,5.2713,5.2713,5.2713,5.2713,5.2713,5.3346,5.472,5.6018,5.7372,2.1657,2.2903,2.3501,2.3354,2.1715,1.9989,1.9524,1.8145,1.6709,1.6278,1.6654,1.7082,1.7335,1.76,1.79,1.833,1.8027,1.8428,2.0196,2.2154,2.4952,2.9161,3.5392,3.9381,3.9478,4.0576,4.1504,4.1732,4.1834,4.2061,4.2525,4.2638,4.2638,4.2638,4.2862,4.2974,4.2974,4.2974,4.2974,4.2974,4.2974,4.2974,4.2974,4.2974,4.2974,4.2974,4.2974,4.2974,0.0,4.2974,4.2974,4.2974,4.2974,4.2974,4.2974,4.2974,4.2974,4.2974,4.2974,4.2974,4.2974,4.2974,4.2974,4.2974,4.2974,4.2974,4.2974,4.3184,4.3406,4.364,4.3887,4.4216,4.4409,4.4409,4.4626,4.4722,4.4722,4.4722,4.4722,4.4722,4.5248,4.5648,4.5342,4.7383,4.8894,4.8596,5.011,5.1214,5.1214,5.1214,5.1214,5.1214,5.1214,5.1214,5.1308,5.1787,5.1987,5.2063,5.2518,5.2713,5.2713,5.2713,5.2713,5.2713,5.2713,5.2713,5.2713,5.3024,5.3992,5.5603,5.6734,5.7758,0.0,2.1454,2.2957,2.2537,2.0994,1.9387,1.8678,0.0,0.0,1.5954,1.6076,1.6485,1.7086,1.7322,1.7605,1.8027,1.8047,1.9333,2.3266,2.4298,2.6261,3.0663,3.4355,3.6645,3.6928,3.9843,4.1732,4.2098,4.2312,4.2525,4.2513,4.2862,4.2974,4.2974,4.2974,4.2974,4.2974,4.2974,4.2974,4.2974,4.2974,4.2974,4.2974,4.2974,4.2974,4.2974,4.2974,4.2974,4.2974,4.2974,4.2974,4.2974,4.2974,4.2974,4.2974,4.2974,4.2974,4.2974,4.2974,4.2974,4.2974,4.2974,4.2974,4.2974,4.2974,4.2974,4.2974,4.3085,4.3432,4.3899,4.3899,4.4313,4.4722,4.4722,4.4722,4.4722,4.4722,4.4722,4.4722,4.4722,4.483,4.5248,4.6269,4.7383,4.8582,4.9415,5.0522,5.1214,5.1214,5.1214,5.1214,5.1214,5.1214,5.1308,5.1587,5.188,5.2078,5.2306,5.2518,5.2713,5.2713,5.2713,5.2713,5.2713,5.2713,5.2713,5.2713,5.3679,5.4637,5.5603,5.6734,5.7848,1.5963,0.0,1.8249,1.7646,1.7213,1.6808,0.0,0.0,0.0,0.0,0.0,1.6883,1.7561,1.7784,1.8174,1.9071,1.8577,1.9443,2.3689,2.916,3.4121,3.8227,3.9695,4.0364,4.0476,4.1406,4.2086,4.2413,4.2413,4.2638,4.2862,4.2974,4.2974,4.2974,4.2974,4.2974,4.2974,4.2974,4.2974,4.2974,4.2974,4.2974,4.2974,4.2974,4.2974,4.2974,4.2974,4.2974,4.2974,4.2974,4.2974,4.2974,4.2974,4.2974,4.2974,4.2974,4.2974,4.2974,4.2974,4.2974,4.2974,4.2974,4.2974,4.2974,4.2974,4.3184,4.3406,4.3666,4.3887,4.4203,4.4409,4.4626,4.4722,4.4722,4.4722,4.4722,4.4722,4.4722,4.4722,4.4722,4.6045,4.706,4.6478,4.8696,5.0206,4.9722,5.0522,5.1214,5.1214,5.1214,5.1214,5.1214,5.1214,5.1308,5.1587,5.188,5.2078,5.2306,5.2518,5.2713,5.2713,5.2713,5.2713,5.2713,5.2713,5.2713,5.2713,5.4248,5.5198,5.5683,5.7355,5.8402,1.3917,1.5117,1.649,1.5908,1.5972,1.606,1.578,0.0,0.0,0.0,0.0,1.7562,1.7996,1.8536,1.8973,1.9302,2.0242,2.2278,2.6247,3.0536,3.4581,3.8275,3.9201,4.0111,4.1801,4.2187,4.2425,4.275,4.275,4.2862,4.2974,4.2974,4.2974,4.2974,4.2974,4.2974,4.2974,4.2974,4.2974,4.2974,4.2974,4.2974,4.2974,4.2974,4.2974,4.2974,4.2974,4.2974,4.2974,4.2974,4.2974,4.2974,4.2974,4.2974,4.2974,4.2974,4.2974,4.2974,4.2974,4.2974,4.2974,4.2974,4.2974,4.2974,4.2974,4.3184,4.3394,4.3432,4.3776,4.4107,4.4313,4.4518,4.4722,4.4722,4.4722,4.4722,4.4722,4.4722,4.483,4.5342,4.6465,4.7383,4.7791,4.9303,5.0427,5.0331,5.0822,5.1214,5.1214,5.1214,5.1214,5.1214,5.1214,5.1308,5.1587,5.188,5.2078,5.2306,5.2518,5.2713,5.2713,5.2713,5.2713,5.2713,5.2713,5.2713,5.2713,5.4417,5.5442,5.5747,5.7611,5.8631,1.2759,1.4637,1.6425,1.5698,1.5936,1.6211,1.578,0.0,0.0,0.0,0.0,0.0,0.0,1.911,0.0,1.9133,2.2512,2.6432,3.002,3.1448,3.33,3.6371,3.7248,3.8969,4.214,4.2525,4.275,4.2974,4.2974,4.2974,4.2974,4.2974,4.2974,4.2974,4.2974,4.2974,4.2974,4.2974,4.2974,4.2974,4.2974,4.2974,4.2974,4.2974,4.2974,4.2974,4.2974,4.2974,4.2974,4.2974,4.2974,4.2974,4.2974,4.2974,4.2974,4.2974,4.2974,4.2974,4.2974,4.2974,4.2974,4.2974,4.2974,4.2974,4.2974,4.3184,4.3283,4.3085,4.3543,4.401,4.3997,4.4313,4.4722,4.4722,4.4722,4.4722,4.4722,4.483,4.5248,4.6164,4.6687,4.7499,4.9317,4.9722,5.0124,5.1026,5.1214,5.1214,5.1214,5.1214,5.1214,5.1214,5.1214,5.1308,5.1587,5.188,5.2078,5.2306,5.2518,5.2713,5.2713,5.2713,5.2713,5.2713,5.2713,5.2713,5.2713,5.4485,5.5523,5.5906,5.7685,5.8701,1.2526,1.4836,1.6943,1.4768,1.5317,1.6211,0.0,0.0,0.0,0.0,0.0,0.0,0.0,1.8676,1.8765,1.9431,2.4705,3.0156,3.4005,3.7453,3.9886,4.058,4.1113,4.1657,4.2476,4.275,4.2974,4.2974,4.2974,4.2974,4.2974,4.2974,4.2974,4.2974,4.2974,4.2974,4.2974,4.2974,4.2974,4.2974,4.2974,4.2974,4.2974,4.2974,4.2974,4.2974,4.2974,4.2974,4.2974,4.2974,4.2974,4.2974,4.2974,4.2974,4.2974,4.2974,4.2974,4.2974,4.2974,4.2974,4.2974,4.2974,4.2974,4.2974,4.2974,4.2974,4.3085,4.3295,4.3738,4.4313,4.4518,4.4626,4.4722,4.4722,4.4722,4.4722,4.4722,4.5449,4.6164,4.6374,4.7906,4.9219,4.9513,5.0316,5.1011,5.1229,5.1214,5.1214,5.1214,5.1214,5.1214,5.1214,5.1214,5.1308,5.1587,5.188,5.2078,5.2306,5.2518,5.2713,5.2713,5.2713,5.2713,5.2713,5.2713,5.2713,5.2713,5.4637,5.5603,5.5683,5.7758,5.8788,1.2372,1.4022,1.5799,1.5891,1.803,2.0096,0.0,0.0,0.0,0.0,0.0,0.0,0.0,2.1406,2.3934,2.7788,2.907,3.0944,3.4804,3.5447,3.6228,3.8251,3.8922,4.0168,4.2239,4.2638,4.275,4.2974,4.2974,4.2974,4.2974,4.2974,4.2974,4.2974,4.2974,4.2974,4.2974,4.2974,4.2974,4.2974,4.2974,4.2974,4.2974,4.2974,4.2974,4.2974,4.2974,4.2974,4.2974,4.2974,4.2974,4.2974,4.2974,4.2974,4.2974,4.2974,4.2974,4.2974,4.2974,4.2974,4.2974,4.2974,4.2974,4.2974,4.2974,4.2974,4.3085,4.3283,4.3751,4.4107,4.4422,4.5033,4.5449,4.483,4.514,4.5662,4.5662,4.6072,4.6777,4.7892,4.8923,4.982,5.0316,5.0917,5.1214,5.1214,5.1214,5.1214,5.1214,5.1214,5.1214,5.1214,5.1214,5.1308,5.1587,5.188,5.217,5.2503,5.2608,5.2713,5.2713,5.2713,5.2713,5.2713,5.2713,5.2713,5.2713,5.4333,5.5296,5.5826,5.752,5.8544,1.2231,1.3426,1.5189,1.7041,1.9694,0.0,0.0,0.0,0.0,0.0,0.0,0.0,0.0,2.3753,2.7855,3.3688,3.2535,3.2294,3.6215,3.4681,3.4154,3.6892,3.7738,3.9357,4.2165,4.2525,4.275,4.2974,4.2974,4.2974,4.2974,4.2974,4.2974,4.2974,4.2974,4.2974,4.2974,4.2974,4.2974,4.2974,4.2974,4.2974,4.2974,4.2974,4.2974,4.2974,4.2974,4.2974,4.2974,4.2974,4.2974,4.2974,4.2974,4.2974,4.2974,4.2974,4.2974,4.2974,4.2974,4.2974,4.2974,4.2974,4.2974,4.2974,4.2974,4.3085,4.3184,4.3406,4.3764,4.3997,4.4203,4.5342,4.6072,4.4925,4.5755,4.6673,4.6058,4.6583,4.7587,4.9007,4.9611,5.022,5.1026,5.1214,5.1214,5.1214,5.1214,5.1214,5.1214,5.1214,5.1214,5.1214,5.1214,5.1308,5.168,5.1972,5.2352,5.2713,5.2713,5.2713,5.2713,5.2713,5.2713,5.2713,5.2713,5.2788,5.2877,5.4109,5.5231,5.6064,5.7372,5.8314,1.2114,1.4079,1.6453,1.7114,1.7336,0.0,2.2451,2.1923,0.0,2.3619,0.0,0.0,0.0,2.3709,2.6059,2.9931,3.3012,3.632,4.0266,4.0846,4.0874,4.1116,4.1705,4.2152,4.25,4.275,4.2974,4.2974,4.2974,4.2974,4.2974,4.2974,4.2974,4.2974,4.2974,4.2974,4.2974,4.2974,4.2974,4.2974,4.2974,4.2974,4.2974,4.2974,4.2974,4.2974,4.2974,4.2974,4.2974,4.2974,4.2974,4.2974,4.2974,4.2974,4.2974,4.2974,4.2974,4.2974,4.2974,4.2974,4.2974,4.2974,4.2974,4.2974,4.2974,4.3184,4.3406,4.3776,4.4107,4.4313,4.4313,4.5342,4.6072,4.4925,4.6347,4.7369,4.5235,4.7177,4.9106,4.8282,4.9693,5.112,5.1214,5.1214,5.1214,5.1214,5.1214,5.1214,5.1214,5.1214,5.1214,5.1214,5.1214,5.1416,5.1895,5.2352,5.2624,5.2713,5.2713,5.2713,5.2713,5.2713,5.2713,5.2713,5.2713,5.2877,5.3377,5.4433,5.5555,5.6564,5.7577,5.8405,1.2134,1.4471,1.6927,1.6957,1.7872,0.0,0.0,2.5106,2.515,2.6349,2.7176,0.0,0.0,2.9784,3.2742,3.3429,3.6649,3.9567,4.1016,4.1287,4.139,4.1606,4.1618,4.1846,4.2413,4.2425,4.265,4.2974,4.2974,4.2974,4.2974,4.2974,4.2974,4.2974,4.2974,4.2974,4.2974,4.2974,4.2974,4.2974,4.2974,4.2974,4.2974,4.2974,4.2974,4.2974,4.2974,4.2974,4.2974,4.2974,4.2974,4.2974,4.2974,4.2974,4.2974,4.2974,4.2974,4.2974,4.2974,4.2974,4.2974,4.2974,4.2974,4.2974,4.2974,4.3085,4.3184,4.353,4.4261,4.5114,4.5542,4.5966,4.6478,4.666,4.7369,4.7979,4.7777,4.8696,4.9722,4.9902,5.0618,5.1214,5.1214,5.1214,5.1214,5.1214,5.1214,5.1214,5.1214,5.1214,5.1214,5.1214,5.1509,5.1787,5.2139,5.2518,5.2713,5.2713,5.2713,5.2713,5.2713,5.2713,5.2713,5.2713,5.2713,5.2966,5.3377,5.4517,5.5555,5.6641,5.7651,5.8405,1.2548,1.44,1.6548,0.0,0.0,0.0,2.5857,2.6593,2.6643,2.8457,2.8898,0.0,3.0256,0.0,3.598,3.5765,3.8776,4.1184,4.1184,4.1287,4.139,4.1606,4.1618,4.1846,4.2413,4.2425,4.255,4.2974,4.2974,4.2974,4.2974,4.2974,4.2974,4.2974,4.2974,4.2974,4.2974,4.2974,4.2974,4.2974,4.2974,4.2974,4.2974,4.2974,4.2974,4.2974,4.2974,4.2974,4.2974,4.2974,4.2974,4.2974,4.2974,4.2974,4.2974,4.2974,4.2974,4.2974,4.2974,4.2974,4.2974,4.2974,4.2974,4.2974,4.2974,4.3085,4.3295,4.392,4.4872,4.5926,4.7074,4.7396,4.7485,4.7878,4.8482,4.8993,4.9106,4.9611,5.022,5.0618,5.0932,5.1214,5.1214,5.1214,5.1214,5.1214,5.1214,5.1214,5.1214,5.1214,5.1214,5.1214,5.171,5.2078,5.2231,5.2518,5.2713,5.2713,5.2713,5.2713,5.2713,5.2713,5.2713,5.2713,5.2877,5.3129,5.364,5.4685,5.5796,5.6811,5.7651,5.8405,1.339,1.389,1.5458,0.0,0.0,0.0,2.604,2.5275,2.4794,2.9922,2.9744,2.9733,3.3065,3.3793,3.4238,3.5512,3.8776,4.1184,4.1184,4.139,4.1606,4.1606,4.2174,4.2525,4.2525,4.275,4.2974,4.2974,4.2974,4.2974,4.2974,4.2974,4.2974,4.2974,4.2974,4.2974,4.2974,4.2974,4.2974,4.2974,4.2974,4.2974,4.2974,4.2974,4.2974,4.2974,4.2974,4.2974,4.2974,4.2974,4.2974,4.2974,4.2974,4.2974,4.2974,4.2974,4.2974,4.2974,4.2974,4.2974,4.2974,4.2974,4.2974,4.2974,4.2974,4.3184,4.3713,4.5074,4.5714,4.6528,4.9007,4.9625,4.9317,4.8282,4.9693,5.0618,4.8482,4.9693,5.0917,4.982,5.0508,5.1214,5.1214,5.1214,5.1214,5.1214,5.1214,5.1214,5.1214,5.1214,5.1214,5.1214,5.171,5.2002,5.2002,5.2443,5.2713,5.2713,5.2713,5.2713,5.2713,5.2713,5.2713,5.2713,5.3129,5.364,5.4103,5.5197,5.6208,5.7222,5.7814,5.8422,1.2681,1.5988,0.0,1.8466,0.0,0.0,0.0,2.6633,0.0,0.0,3.3529,3.3828,3.3748,3.6582,3.8253,3.6072,3.8776,4.1184,4.1184,4.1287,4.139,4.1606,4.1618,4.1745,4.2211,4.2073,4.2174,4.2638,4.2638,4.275,4.2974,4.2974,4.2974,4.2974,4.2974,4.2974,4.2974,4.2974,4.2974,4.2974,4.2974,4.2974,4.2974,4.2974,4.2974,4.2974,4.2974,4.2974,4.2974,4.2974,4.2974,4.2974,4.2974,4.2974,4.2974,4.2974,4.2974,4.2974,4.2974,4.2974,4.2974,4.2974,4.2974,4.2974,4.2974,4.3615,4.4466,4.5088,4.6528,4.8181,4.9106,5.0013,5.0618,5.0302,5.011,5.0124,5.0206,5.0713,5.112,5.0822,5.1011,5.1214,5.1214,5.1214,5.1214,5.1214,5.1214,5.1214,5.1214,5.1214,5.1308,5.1494,5.1787,5.2078,5.2231,5.2518,5.2713,5.2713,5.2713,5.2713,5.2713,5.2713,5.2713,5.2713,5.3129,5.364,5.4087,5.5571,5.6442,5.6614,5.8048,5.8632,1.5063,1.8109,0.0,2.1674,2.4335,2.7275,2.894,0.0,0.0,0.0,3.5061,3.5522,3.6447,3.8716,3.9841,3.819,3.971,4.1184,4.1184,4.1184,4.1287,4.1606,4.1504,4.1516,4.211,4.196,4.2061,4.2513,4.2638,4.275,4.2974,4.2974,4.2974,4.2974,4.2974,4.2974,4.2974,4.2974,4.2974,4.2974,4.2974,4.2974,4.2974,4.2974,4.2974,4.2974,4.2974,4.2974,4.2974,4.2974,4.2974,4.2974,4.2974,4.2974,4.2974,4.2974,4.2974,4.3085,4.3504,4.3406,4.3085,4.3504,4.3406,4.3085,4.3504,4.4152,4.4993,4.6228,4.7661,4.8993,4.9805,5.0618,5.1214,5.1214,5.0713,5.0412,5.1026,5.1214,5.1214,5.1214,5.1214,5.1214,5.1214,5.1214,5.1214,5.1214,5.1214,5.1214,5.1214,5.1214,5.1308,5.1587,5.188,5.2063,5.2306,5.2518,5.2713,5.2713,5.2713,5.2713,5.2713,5.2713,5.2788,5.2966,5.3481,5.3915,5.4343,5.5812,5.6442,5.6319,5.7887,5.8422,1.8898,2.0256,0.0,2.6606,2.7461,0.0,3.1902,3.1903,3.2029,3.5396,0.0,3.581,4.0322,4.0176,3.9826,4.1057,4.1184,4.1184,4.1184,4.1184,4.1287,4.1492,4.1606,4.172,4.1984,4.2199,4.2413,4.2413,4.275,4.2974,4.2974,4.2974,4.2974,4.2974,4.2974,4.2974,4.2974,4.2924,4.2898,4.2898,4.2848,4.2836,4.2836,4.2936,4.2974,4.2974,4.2974,4.2974,4.2974,4.2974,4.2974,4.2974,4.3085,4.3085,4.2974,4.3085,4.306,4.3121,4.4061,4.372,4.3045,4.4106,4.3791,4.3144,4.4201,4.4728,4.5342,4.7911,4.8765,4.9216,5.0733,5.1169,5.1214,5.1214,5.1214,5.1214,5.1214,5.1214,5.1214,5.1214,5.1214,5.1214,5.1214,5.1214,5.1214,5.1214,5.1214,5.1214,5.1214,5.1214,5.1308,5.1587,5.188,5.2063,5.2306,5.2518,5.2713,5.2713,5.2713,5.2713,5.2713,5.2713,5.2966,5.3377,5.3829,5.4343,5.4765,5.5765,5.6319,5.6319,5.752,5.812,1.7907,2.1664,0.0,0.0,2.8505,3.0537,3.2333,3.2457,3.3173,3.6117,3.6884,3.7691,4.0087,4.0667,4.0815,4.1184,4.1184,4.1184,4.1184,4.1184,4.1184,4.1287,4.1287,4.1287,4.1414,4.1414,4.1631,4.2098,4.2211,4.2538,4.2974,4.2974,4.2974,4.2974,4.2974,4.2862,4.2638,4.2436,4.2223,4.199,4.1785,4.1693,4.1718,4.2585,4.2974,4.2974,4.2974,4.2974,4.2974,4.2974,4.2974,4.3085,4.3932,4.3835,4.3085,4.4042,4.3554,4.2443,4.265,4.2263,4.1693,4.2005,4.2422,4.2928,4.3244,4.4644,4.6237,4.6839,4.8288,4.9784,5.0095,5.0653,5.1214,5.1214,5.1214,5.1214,5.1214,5.1214,5.1214,5.1214,5.1214,5.1214,5.1214,5.1214,5.1214,5.1214,5.1214,5.1214,5.1214,5.1214,5.1308,5.1587,5.188,5.2063,5.2306,5.2518,5.2713,5.2713,5.2713,5.2713,5.2713,5.2713,5.2966,5.3377,5.3829,5.4343,5.4765,5.5765,5.6319,5.6319,5.752,5.812,1.9254,0.0,0.0,2.8145,0.0,3.1334,3.3119,3.3459,3.43,3.6893,3.7664,3.8361,4.0057,4.0824,4.1184,4.1184,4.1184,4.1184,4.1184,4.1184,4.1184,4.1184,4.1184,4.1299,4.139,4.1516,4.1871,4.2199,4.2425,4.265,4.275,4.275,4.275,4.2538,4.2638,4.2638,4.2525,4.2586,4.2421,4.1926,4.176,4.1593,4.1354,4.1932,4.2195,4.2195,4.2195,4.2195,4.2195,4.2195,4.2195,4.2305,4.2812,4.2716,4.2305,4.2812,4.2538,4.1973,4.298,4.2798,4.225,4.3243,4.3655,4.377,4.4266,4.5354,4.6444,4.7238,4.8267,4.9319,4.9503,4.994,5.0287,5.0287,5.0765,5.1214,5.1214,5.1214,5.1214,5.1214,5.1214,5.1214,5.1214,5.1214,5.1214,5.1214,5.1214,5.1214,5.1214,5.1214,5.1308,5.1787,5.1895,5.217,5.2412,5.2608,5.2713,5.2713,5.2713,5.2713,5.2713,5.2713,5.3055,5.3742,5.4001,5.4428,5.5097,5.5637,5.5861,5.5861,5.6844,5.7355,2.0466,2.2837,2.4847,2.9707,3.0889,0.0,3.3888,3.4447,3.5101,3.7536,3.7981,3.8435,3.9806,4.0631,4.1052,4.1052,4.1124,4.1184,4.1184,4.1184,4.1184,4.1184,4.1299,4.1402,4.1606,4.1859,4.2098,4.2413,4.2638,4.2638,4.2413,4.2413,4.2312,4.211,4.2312,4.2413,4.2413,4.2662,4.261,4.2158,4.1957,4.1593,4.1053,4.1053,4.1153,4.1342,4.1342,4.1342,4.1342,4.1342,4.1342,4.1342,4.1531,4.1531,4.1651,4.1851,4.1788,4.1898,4.3611,4.3442,4.2863,4.4642,4.4741,4.4357,4.5428,4.5926,4.6405,4.7697,4.826,4.8531,4.8909,4.9179,4.9269,4.9269,5.0092,5.0885,5.0885,5.0975,5.105,5.105,5.1139,5.1214,5.1214,5.1214,5.1214,5.1214,5.1214,5.1214,5.1214,5.1214,5.1509,5.2002,5.1987,5.2261,5.2624,5.2713,5.2713,5.2713,5.2713,5.2713,5.2713,5.2713,5.3144,5.4087,5.4103,5.4513,5.5409,5.5409,5.5491,5.5572,5.6162,5.6768,1.8006,0.0,2.7094,0.0,3.0889,3.1556,0.0,3.4447,3.5101,3.7536,3.8371,3.8718,3.902,3.9838,4.0499,4.0499,4.0884,4.1184,4.1184,4.1184,4.1184,4.1184,4.139,4.1606,4.1606,4.1606,4.1846,4.2098,4.196,4.1834,4.2098,4.2098,4.2098,4.211,4.2098,4.2098,4.2098,4.1954,4.189,4.1803,4.1084,4.045,3.991,3.991,4.0438,4.1342,4.1342,4.1342,4.1342,4.1342,4.1342,4.1436,4.2435,4.2749,4.2762,4.3757,4.3829,4.3199,4.262,4.1987,4.1455,4.1742,4.2337,4.3217,4.4269,4.5324,4.6279,4.6473,4.7228,4.803,4.803,4.8641,4.9269,4.9269,4.9404,4.9523,4.9523,4.9972,5.0361,5.0361,5.0825,5.1214,5.1214,5.1214,5.1214,5.1214,5.1214,5.1214,5.1214,5.1401,5.168,5.1987,5.2155,5.2412,5.2713,5.2713,5.2713,5.2713,5.2713,5.2713,5.2713,5.2713,5.3144,5.4087,5.4103,5.4513,5.5409,5.5409,5.5637,5.6162,5.6768,5.7429,1.9574,2.3518,2.7428,3.0234,3.0889,3.1344,3.3016,3.3888,3.4891,3.6665,3.7738,3.8443,3.8755,3.9441,3.9958,3.9958,4.015,4.0294,4.0294,4.0294,4.0415,4.0715,4.0853,4.0942,4.1156,4.1156,4.1147,4.1201,4.1164,4.1176,4.1201,4.1201,4.1077,4.0954,4.109,4.1077,4.0954,4.1273,4.1476,4.1464,4.0783,4.0388,4.0162,4.0162,4.0249,4.0413,4.0413,4.0413,4.0413,4.1001,4.1196,4.1286,4.1774,4.1977,4.1889,4.1902,4.1631,4.1422,4.1511,4.1442,4.1406,4.2571,4.3259,4.3843,4.4897,4.558,4.6046,4.6121,4.6593,4.6992,4.7096,4.7496,4.7807,4.797,4.797,4.7985,4.8162,4.897,4.9703,4.9703,4.9927,5.0242,5.0601,5.0676,5.0795,5.1154,5.1214,5.1214,5.1214,5.1401,5.168,5.1987,5.2139,5.2397,5.2713,5.2713,5.2713,5.2713,5.2713,5.2713,5.2713,5.2713,5.3144,5.4087,5.4103,5.4513,5.5409,5.5409,5.5572,5.5781,5.6381,5.6996,2.0235,2.3137,2.5537,2.8982,2.9902,3.0409,3.2302,3.3572,3.4781,3.5904,3.7108,3.8106,3.8527,3.9044,3.9405,3.9405,3.9525,3.9609,3.9609,3.9609,3.9753,4.015,4.0298,4.0398,4.0609,4.0609,4.055,4.0488,4.056,4.0572,4.0366,4.0366,4.0245,4.0013,4.0148,4.0257,4.0123,4.0789,4.1159,4.1128,4.0714,4.0438,4.0195,4.0195,4.0074,3.9968,3.9788,3.9697,3.9788,4.0554,4.0844,4.0844,4.0844,4.0932,4.1119,4.0655,4.0668,4.0945,4.1703,4.1999,4.2279,4.3829,4.4125,4.4125,4.5489,4.5685,4.558,4.6031,4.6121,4.621,4.6403,4.6594,4.6668,4.6829,4.6931,4.7063,4.7519,4.8327,4.9075,4.9239,4.9269,4.9419,4.9898,4.9987,5.0212,5.087,5.0975,5.1035,5.1199,5.1494,5.1787,5.1987,5.2246,5.2503,5.2713,5.2713,5.2713,5.2713,5.2713,5.2713,5.2713,5.2788,5.3233,5.4087,5.4189,5.4681,5.5409,5.5409,5.5491,5.5637,5.6241,5.6844,1.774,1.892,2.0343,2.5662,2.7001,2.8052,3.1871,3.3572,3.4781,3.5904,3.7108,3.7986,3.8022,3.8479,3.8864,3.8864,3.9284,3.9609,3.9609,3.9609,3.9621,3.9645,3.9854,4.005,4.005,4.005,4.016,4.0488,4.0245,4.0001,4.0013,4.0013,4.0013,4.0001,3.9818,3.994,4.0488,4.0789,4.0744,4.0563,4.0526,4.0132,3.9411,3.9411,3.9878,4.0692,3.9968,3.9697,3.9697,3.9788,3.9788,3.9788,3.9788,4.0364,4.1319,4.2306,4.3259,4.4031,4.4111,4.4125,4.4125,4.4298,4.364,4.3273,4.5307,4.5201,4.4606,4.5595,4.6046,4.621,4.621,4.6565,4.6931,4.6916,4.7106,4.7474,4.8102,4.8282,4.8521,4.9149,4.9269,4.9284,4.9314,4.9314,4.9538,5.0197,5.0287,5.0511,5.1139,5.171,5.1987,5.2002,5.2443,5.2713,5.2713,5.2713,5.2713,5.2713,5.2713,5.2713,5.2713,5.3129,5.3568,5.4103,5.4513,5.5014,5.5409,5.5409,5.5717,5.6241,5.6844,5.752,1.7664,1.8627,1.9525,2.3214,2.5488,2.7339,2.962,3.2372,3.4781,3.5904,3.7108,3.7986,3.7986,3.8154,3.8286,3.8286,3.8443,3.8563,3.8563,3.8563,3.8695,3.9056,3.9201,3.9189,3.9189,3.9189,3.9165,3.9136,3.9206,3.9312,3.9525,3.9525,3.9525,3.9525,3.9431,3.9537,3.9972,3.996,4.0034,4.0513,4.0513,4.0307,3.9897,4.0694,4.099,4.0792,4.1419,4.173,4.173,4.239,4.2682,4.2682,4.2682,4.2861,4.315,4.2875,4.2585,4.2279,4.2279,4.19,4.1419,4.2097,4.2488,4.3081,4.442,4.5095,4.5398,4.579,4.597,4.597,4.597,4.6225,4.6565,4.6829,4.7121,4.7369,4.7608,4.7653,4.7728,4.7967,4.8012,4.8132,4.8566,4.8641,4.8865,4.9523,4.9613,4.9703,4.9927,5.0427,5.0712,5.0712,5.1157,5.159,5.2021,5.2067,5.2252,5.2683,5.2713,5.2713,5.2713,5.2877,5.3305,5.4087,5.4258,5.4681,5.5409,5.5781,5.6083,5.6303,5.7297,5.7887,1.6719,0.0,1.7844,2.0657,2.2618,2.4665,2.7371,3.0276,3.2944,3.5131,3.6557,3.7548,3.7974,3.7986,3.7986,3.7986,3.7986,3.7986,3.7986,3.7986,3.8118,3.8491,3.8539,3.8539,3.8539,3.8539,3.849,3.855,3.8736,3.8945,3.9258,3.9258,3.9258,3.9154,3.9258,3.9374,3.9581,3.927,3.9457,4.0132,4.0027,3.9804,3.9581,4.0512,4.0888,4.0692,4.169,4.239,4.2889,4.3545,4.3545,4.3341,4.364,4.3545,4.3245,4.3259,4.2682,4.1815,4.2585,4.2097,4.1432,4.2488,4.2971,4.345,4.4125,4.4805,4.5384,4.5384,4.5595,4.588,4.588,4.615,4.6403,4.6844,4.7121,4.7309,4.7309,4.7309,4.7309,4.7309,4.7309,4.7444,4.7878,4.7952,4.8177,4.8835,4.894,4.9015,4.9239,4.9732,4.9998,4.9998,5.0437,5.0867,5.1328,5.1359,5.1559,5.2006,5.2252,5.2375,5.2375,5.2754,5.3305,5.4087,5.4412,5.4982,5.5717,5.6083,5.6536,5.6904,5.7741,5.8263,0.0,0.0,0.0,1.7778,1.8414,1.9803,2.5334,2.7392,2.9289,3.3387,3.521,3.6453,3.7749,3.7986,3.7986,3.7986,3.7986,3.7986,3.7986,3.7986,3.7986,3.7986,3.7986,3.7986,3.7986,3.7986,3.8198,3.8736,3.8841,3.8945,3.9258,3.9258,3.9154,3.8841,3.9154,3.9258,3.9258,3.8945,3.8945,3.9258,3.8945,3.8631,3.8409,3.8724,3.9428,4.0414,4.0792,4.169,4.2889,4.2889,4.2195,4.1419,4.2488,4.2306,4.1604,4.364,4.3735,4.3177,4.511,4.5095,4.4406,4.5398,4.5003,4.4205,4.4219,4.4312,4.4312,4.4312,4.5095,4.588,4.588,4.6239,4.658,4.6844,4.7106,4.7309,4.7309,4.7309,4.7309,4.7309,4.7309,4.7309,4.7309,4.7309,4.7519,4.8162,4.8252,4.8491,4.9134,4.9672,4.9938,4.9938,5.0376,5.0636,5.0667,5.0667,5.0667,5.0697,5.1313,5.1682,5.1682,5.2741,5.3624,5.4055,5.5115,5.5908,5.6381,5.6381,5.6996,5.812,5.812,5.8632,1.4647,0.0,0.0,0.0,0.0,0.0,2.1431,2.3744,2.6453,3.0502,3.2207,3.3804,3.6259,3.7441,3.7986,3.7986,3.7986,3.7986,3.7986,3.7986,3.7986,3.7986,3.7986,3.7986,3.7986,3.7986,3.8092,3.8514,3.8736,3.8945,3.9258,3.9478,3.9594,3.9478,3.9581,3.9478,3.9258,3.9258,3.905,3.8945,3.905,3.905,3.8724,3.993,4.0617,4.0792,4.2544,4.3531,4.3923,4.3923,4.3735,4.3545,4.462,4.4819,4.4712,4.5293,4.4805,4.3829,4.3748,4.2971,4.1999,4.1531,4.1716,4.2181,4.2971,4.3735,4.4499,4.5201,4.5685,4.597,4.6046,4.5642,4.5446,4.6491,4.6844,4.7019,4.7019,4.7121,4.7309,4.7309,4.7309,4.7309,4.7309,4.7309,4.7369,4.7549,4.7578,4.7638,4.7818,4.8094,4.8369,4.8526,4.8782,4.9236,4.9912,4.9959,5.0174,5.0667,5.0867,5.0974,5.0974,5.1709,5.2715,5.4015,5.4841,5.6034,5.7594,5.7594,5.7741,5.8103,5.8562,5.8927,0.0,0.0,0.0,0.0,0.0,0.0,2.0352,2.2168,2.4756,2.9733,3.1478,3.2729,3.4899,3.6329,3.7145,3.6909,3.7321,3.7733,3.795,3.7986,3.7986,3.7986,3.7986,3.7986,3.7986,3.7986,3.8092,3.8409,3.8514,3.8736,3.905,3.927,3.9374,3.9374,3.9374,3.927,3.905,3.8945,3.8841,3.8841,3.8841,3.8841,3.8841,3.9943,4.0325,4.0224,4.1703,4.239,4.239,4.2861,4.3245,4.3748,4.4326,4.4326,4.4031,4.4434,4.3937,4.2971,4.2875,4.211,4.1219,4.1518,4.1999,4.2571,4.3259,4.4125,4.4911,4.4712,4.4911,4.5293,4.5355,4.5355,4.5551,4.621,4.6668,4.6916,4.6916,4.7121,4.7309,4.7309,4.7309,4.7309,4.7309,4.7309,4.7309,4.7309,4.7309,4.7309,4.7309,4.7467,4.7639,4.7794,4.8118,4.8538,4.9036,4.9151,4.9404,4.9805,5.0112,5.0266,5.0266,5.1086,5.2292,5.3938,5.4809,5.6326,5.8492,5.8192,5.8263,5.8492,5.8858,5.9012,0.0,0.0,0.0,0.0,1.4625,0.0,2.0344,2.1323,2.2881,2.8886,3.0429,3.1158,3.2608,3.3966,3.4795,3.4314,3.5486,3.6752,3.7685,3.7805,3.7805,3.7805,3.7805,3.7805,3.7805,3.7805,3.7911,3.8121,3.8238,3.8343,3.8669,3.8656,3.8693,3.8755,3.8755,3.8779,3.8841,3.8631,3.8631,3.8841,3.8631,3.8631,3.8841,3.9154,3.9374,3.9362,3.9672,3.989,3.9981,4.0844,4.1802,4.2598,4.2792,4.2208,4.1518,4.2585,4.2293,4.1518,4.2501,4.211,4.1505,4.3245,4.3829,4.3829,4.3923,4.4606,4.5018,4.3464,4.345,4.4031,4.4406,4.5173,4.5927,4.6121,4.6565,4.6844,4.6844,4.7106,4.7309,4.7309,4.7309,4.7309,4.7309,4.7309,4.7309,4.7309,4.7309,4.7309,4.7309,4.7467,4.7553,4.7624,4.8049,4.8286,4.8286,4.8537,4.862,4.862,4.922,4.9574,4.9574,5.0683,5.2112,5.3841,5.5067,5.6768,5.8892,5.837,5.8405,5.9012,5.9012,5.9012,0.0,0.0,0.0,0.0,1.5333,0.0,1.6315,1.6242,1.6869,1.9806,2.1204,2.2531,2.4976,2.6247,2.6965,2.6875,2.9662,3.2948,3.6225,3.6711,3.6711,3.6711,3.6711,3.6711,3.6711,3.6711,3.6711,3.6814,3.7018,3.7234,3.7538,3.7639,3.7747,3.8214,3.8419,3.8617,3.8841,3.905,3.905,3.8841,3.905,3.9154,3.9258,3.9478,3.9581,3.9685,4.0554,4.0932,4.0932,4.1119,4.1319,4.1617,4.2501,4.2695,4.2585,4.364,4.3355,4.2488,4.2695,4.211,4.1119,4.0756,4.0554,4.0756,4.1518,4.1999,4.239,4.364,4.2958,4.239,4.4911,4.4527,4.3843,4.558,4.6328,4.6683,4.6683,4.7033,4.7309,4.7309,4.7309,4.7309,4.7309,4.7309,4.7309,4.7309,4.7309,4.7309,4.7309,4.7294,4.7467,4.788,4.7964,4.8218,4.8537,4.862,4.862,4.862,4.8743,4.882,4.882,5.0301,5.1709,5.2921,5.5896,5.7672,5.8116,5.8114,5.8405,5.9012,5.9012,5.9012,0.0,0.0,0.0,1.525,1.5142,0.0,0.0,1.6255,1.6883,1.9034,2.0137,2.1172,2.2518,2.3588,2.4234,2.4234,2.707,2.9568,3.0293,3.3884,3.6411,3.6411,3.6411,3.6411,3.6411,3.6411,3.6411,3.6411,3.6512,3.6715,3.6816,3.7017,3.7152,3.7433,3.7738,3.7873,3.8042,3.8144,3.837,3.863,3.8733,3.9088,3.9478,3.9594,3.9697,3.9697,4.0275,4.0453,4.0453,4.0453,4.0453,4.0465,4.1045,4.1246,4.1345,4.1815,4.1716,4.1246,4.1246,4.0857,4.0453,4.0453,4.0453,4.0655,4.1716,4.1604,4.1518,4.3067,4.239,4.1716,4.3843,4.3937,4.3937,4.5504,4.6239,4.6594,4.6594,4.6946,4.7309,4.7309,4.7309,4.7309,4.7309,4.7309,4.7309,4.7309,4.7309,4.7309,4.7309,4.7309,4.7467,4.7794,4.788,4.8133,4.8453,4.8537,4.862,4.862,4.862,4.8769,4.9244,5.0264,5.1734,5.359,5.5511,5.6936,5.7909,5.7687,5.8063,5.9012,5.9012,5.9012,0.0,0.0,0.0,0.0,0.0,1.5156,0.0,0.0,0.0,1.9361,2.0135,2.0439,2.0438,2.1084,2.1669,2.1578,2.4172,2.5391,2.3351,2.927,3.3946,3.4136,3.5274,3.5805,3.5178,3.5146,3.5449,3.6062,3.5533,3.5449,3.6062,3.6311,3.6448,3.6557,3.6871,3.7132,3.7231,3.7331,3.7641,3.8353,3.8353,3.8766,3.9534,3.9534,3.9597,3.9697,3.9697,3.9697,3.9697,3.9697,3.9697,3.9697,3.9697,3.9697,3.9697,3.9878,3.989,3.9697,3.9878,3.989,3.9788,4.0642,4.0932,4.1032,4.1914,4.1617,4.1132,4.2195,4.1716,4.1232,4.2682,4.3545,4.4326,4.5595,4.6239,4.6506,4.6506,4.6858,4.7207,4.7207,4.7294,4.7309,4.7309,4.7309,4.7309,4.7309,4.7309,4.7309,4.7309,4.7309,4.7396,4.7553,4.7794,4.8049,4.8286,4.8453,4.862,4.862,4.8769,4.9163,4.9868,5.057,5.2015,5.4449,5.4884,5.5839,5.746,5.7107,5.762,5.9012,5.9012,5.9012,0.0,0.0,0.0,1.5583,1.516,1.4742,1.4877,0.0,1.4426,1.3941,0.0,1.4126,1.3883,0.0,0.0,1.3839,1.6792,1.8936,1.8286,2.1897,2.4949,2.5901,3.1293,3.3887,3.0984,3.0799,3.1973,3.4787,3.2394,3.2034,3.4859,3.5004,3.5232,3.5689,3.621,3.6751,3.7231,3.7717,3.7941,3.8003,3.8003,3.8404,3.8956,3.8956,3.9233,3.9697,3.9697,3.9697,3.9697,3.9697,3.9697,3.9697,3.9697,3.9697,3.9788,4.0743,4.0453,3.9788,4.0743,4.0453,3.9697,3.9788,3.989,3.989,3.9981,3.9981,4.007,4.1132,4.0642,4.0567,4.3355,4.3545,4.3464,4.5398,4.6046,4.621,4.621,4.6565,4.6931,4.6931,4.7121,4.7309,4.7309,4.7309,4.7309,4.7309,4.7309,4.7309,4.7309,4.7309,4.7396,4.7553,4.7794,4.8049,4.8286,4.8453,4.862,4.862,4.9325,4.9789,4.9884,5.1426,5.2905,5.4213,5.4984,5.5544,5.5874,5.6515,5.7566,5.9012,5.9012,5.9012,0.0,0.0,1.6638,1.5149,1.5547,1.58,1.4101,1.3697,1.3604,1.3057,0.0,0.0,0.0,0.0,0.0,0.0,1.4883,1.6084,1.4817,1.8927,2.2563,2.3644,2.62,2.8186,2.9174,2.9496,3.1032,3.4498,3.1598,3.1192,3.4655,3.4932,3.5126,3.5356,3.5855,3.6269,3.6492,3.6868,3.7211,3.7525,3.7525,3.7826,3.8366,3.8366,3.8492,3.873,3.9069,3.922,3.9245,3.9559,3.9697,3.9697,3.9697,3.9697,3.9788,4.0173,4.0083,3.9788,4.0173,4.0083,3.9697,3.9697,3.9697,3.9788,4.0364,4.0173,3.9878,4.0932,4.0453,4.0173,4.1999,4.2195,4.239,4.4513,4.5173,4.5446,4.6031,4.6491,4.6756,4.6844,4.7019,4.7121,4.7309,4.7309,4.7309,4.7309,4.7309,4.7309,4.7309,4.7309,4.7396,4.7553,4.7709,4.788,4.8286,4.837,4.8453,4.862,4.9852,5.0783,5.1236,5.2203,5.3128,5.4045,5.4205,5.4712,5.5615,5.5943,5.6667,5.7736,5.8167,5.8599,1.6871,1.7076,1.7464,1.4709,1.5195,1.5713,1.3476,1.3164,1.3277,1.2989,1.3201,0.0,0.0,0.0,1.2657,0.0,0.0,1.393,1.2525,1.5936,1.9042,2.0176,2.1025,2.2961,2.6642,2.6468,2.807,3.2718,2.973,2.9753,3.451,3.5017,3.5126,3.5126,3.5524,3.5824,3.5908,3.6181,3.6476,3.696,3.696,3.7249,3.7789,3.7789,3.7864,3.8027,3.8442,3.863,3.8668,3.9069,3.932,3.9471,3.9471,3.9559,3.9697,3.9697,3.9697,3.9697,3.9697,3.9697,3.9697,3.9697,3.9697,3.989,4.0554,4.0262,3.989,4.0554,4.0262,3.9878,4.0932,4.1419,4.2097,4.3923,4.4698,4.5278,4.5941,4.6403,4.6683,4.6756,4.6931,4.7106,4.7309,4.7309,4.7309,4.7309,4.7309,4.7309,4.7309,4.7309,4.7396,4.7467,4.7624,4.788,4.8218,4.8286,4.8537,4.8934,5.0306,5.1459,5.2236,5.2607,5.3162,5.398,5.3683,5.4154,5.5322,5.5322,5.5701,5.6495,5.7253,5.7995,1.9396,1.7709,1.6646,1.445,1.3692,1.3333,1.3066,1.2989,1.2928,1.2683,1.247,1.2338,1.2329,0.0,0.0,0.0,0.0,0.0,0.0,1.1566,1.2018,1.3112,1.6255,1.9459,2.2435,1.9876,2.1006,2.8058,2.5646,2.7011,3.4366,3.4823,3.4823,3.4823,3.5126,3.532,3.562,3.592,3.6111,3.6383,3.6383,3.6671,3.7211,3.7211,3.75,3.8002,3.8027,3.804,3.804,3.8052,3.8391,3.8894,3.8894,3.922,3.9697,3.9697,3.9697,3.9697,3.9697,3.9697,3.9697,3.9697,3.9697,3.9697,3.9685,3.9697,3.9697,3.9685,3.9697,3.9878,4.0932,4.2012,4.2985,4.4031,4.5095,4.588,4.588,4.6239,4.6594,4.6594,4.6946,4.7309,4.7309,4.7309,4.7309,4.7309,4.7309,4.7309,4.7309,4.7309,4.7309,4.7309,4.7724,4.7964,4.8049,4.837,4.8918,4.9789,5.0615,5.1459,5.2236,5.2307,5.287,5.398,5.398,5.4192,5.4546,5.4546,5.4925,5.5667,5.646,5.7236,2.074,2.0882,2.0633,1.6806,1.6806,1.6907,1.3722,1.286,1.2568,1.2142,1.2041,1.1841,1.1392,0.0,0.0,0.0,0.0,0.0,0.0,1.1226,1.1421,1.1783,1.5216,1.7862,1.8691,2.0129,2.3003,2.794,2.7067,2.8516,3.3573,3.4126,3.4306,3.4306,3.4848,3.5223,3.532,3.5812,3.6015,3.6098,3.637,3.6458,3.6634,3.6634,3.6734,3.6935,3.7312,3.7462,3.7487,3.7852,3.8115,3.8304,3.8304,3.8417,3.8668,3.9421,3.9697,3.9697,3.9697,3.9697,3.9697,3.9697,3.9697,3.9697,3.9697,3.9697,3.9697,3.9697,3.9697,3.9788,4.007,4.0945,4.1999,4.3067,4.4125,4.5003,4.5776,4.615,4.6403,4.6594,4.6858,4.7106,4.7309,4.7309,4.7309,4.7309,4.7309,4.7309,4.7309,4.7309,4.7309,4.7309,4.7467,4.7639,4.7964,4.837,4.9015,4.9868,5.0631,5.1459,5.2236,5.2834,5.3399,5.398,5.398,5.4175,5.4512,5.4512,5.4632,5.4891,5.515,5.596,2.2425,2.2871,2.27,1.8842,1.8922,1.9011,1.5027,1.4011,1.3526,1.2398,1.1837,1.1487,1.1264,1.0901,0.0,0.0,0.0,0.0,0.0,1.1074,1.1167,1.1276,1.3525,1.5362,1.593,1.7451,2.0353,2.4847,2.547,2.73,3.1144,3.2879,3.3765,3.3765,3.4378,3.4847,3.4943,3.5426,3.5812,3.6015,3.6193,3.6275,3.6358,3.6358,3.6358,3.6383,3.6734,3.6885,3.6923,3.7274,3.7538,3.7713,3.7713,3.7839,3.8115,3.9057,3.9534,3.9697,3.9697,3.9697,3.9697,3.9697,3.9697,3.9697,3.9697,3.9697,3.9697,3.9697,3.9697,3.9788,4.0173,4.0743,4.1518,4.2488,4.3545,4.4499,4.5187,4.5761,4.6314,4.6594,4.6756,4.7019,4.7207,4.7309,4.7309,4.7309,4.7309,4.7309,4.7309,4.7309,4.7309,4.7309,4.7467,4.7724,4.8218,4.8769,4.9163,4.9405,5.0461,5.1294,5.1842,5.2677,5.3399,5.398,5.398,5.4175,5.4512,5.4512,5.4512,5.4512,5.4512,5.5046]}]]